<?xml version="1.0" encoding="UTF-8"?><gpx xmlns="http://www.topografix.com/GPX/1/1" version="1.1" creator="iOrient"><trk><name>RAGEин</name><trkseg><trkpt lat="55.7583927" lon="48.7452893"><time>2021-10-23T13:34:36.167</time></trkpt><trkpt lat="55.7583614" lon="48.7453543"><time>2021-10-23T13:34:41.163</time></trkpt><trkpt lat="55.7583276" lon="48.7452875"><time>2021-10-23T13:35:39.183</time></trkpt><trkpt lat="55.7583008" lon="48.7452123"><time>2021-10-23T13:35:43.187</time></trkpt><trkpt lat="55.7583051" lon="48.7451166"><time>2021-10-23T13:35:47.227</time></trkpt><trkpt lat="55.7582958" lon="48.7450382"><time>2021-10-23T13:35:51.177</time></trkpt><trkpt lat="55.7582827" lon="48.7449477"><time>2021-10-23T13:35:56.300</time></trkpt><trkpt lat="55.7582854" lon="48.7448605"><time>2021-10-23T13:36:00.297</time></trkpt><trkpt lat="55.7582979" lon="48.7447669"><time>2021-10-23T13:36:04.303</time></trkpt><trkpt lat="55.7583134" lon="48.7446752"><time>2021-10-23T13:36:08.273</time></trkpt><trkpt lat="55.7583278" lon="48.7445788"><time>2021-10-23T13:36:12.327</time></trkpt><trkpt lat="55.7583321" lon="48.7444733"><time>2021-10-23T13:36:16.300</time></trkpt><trkpt lat="55.7583082" lon="48.7443787"><time>2021-10-23T13:36:20.280</time></trkpt><trkpt lat="55.7582740" lon="48.7443051"><time>2021-10-23T13:36:24.363</time></trkpt><trkpt lat="55.7582397" lon="48.7442296"><time>2021-10-23T13:36:28.307</time></trkpt><trkpt lat="55.7582074" lon="48.7441547"><time>2021-10-23T13:36:32.237</time></trkpt><trkpt lat="55.7581768" lon="48.7440806"><time>2021-10-23T13:36:36.457</time></trkpt><trkpt lat="55.7581456" lon="48.7439962"><time>2021-10-23T13:36:40.180</time></trkpt><trkpt lat="55.7581119" lon="48.7439100"><time>2021-10-23T13:36:44.190</time></trkpt><trkpt lat="55.7580785" lon="48.7438307"><time>2021-10-23T13:36:48.180</time></trkpt><trkpt lat="55.7580453" lon="48.7437495"><time>2021-10-23T13:36:52.180</time></trkpt><trkpt lat="55.7580152" lon="48.7436703"><time>2021-10-23T13:36:56.183</time></trkpt><trkpt lat="55.7579773" lon="48.7435959"><time>2021-10-23T13:37:00.180</time></trkpt><trkpt lat="55.7579445" lon="48.7435163"><time>2021-10-23T13:37:04.330</time></trkpt><trkpt lat="55.7579006" lon="48.7434459"><time>2021-10-23T13:37:08.323</time></trkpt><trkpt lat="55.7578698" lon="48.7433858"><time>2021-10-23T13:37:11.337</time></trkpt><trkpt lat="55.7578393" lon="48.7433246"><time>2021-10-23T13:37:14.353</time></trkpt><trkpt lat="55.7578002" lon="48.7432441"><time>2021-10-23T13:37:18.347</time></trkpt><trkpt lat="55.7577672" lon="48.7431841"><time>2021-10-23T13:37:21.277</time></trkpt><trkpt lat="55.7577244" lon="48.7431158"><time>2021-10-23T13:37:25.353</time></trkpt><trkpt lat="55.7576898" lon="48.7430373"><time>2021-10-23T13:37:29.160</time></trkpt><trkpt lat="55.7576569" lon="48.7429582"><time>2021-10-23T13:37:33.313</time></trkpt><trkpt lat="55.7576218" lon="48.7428809"><time>2021-10-23T13:37:37.320</time></trkpt><trkpt lat="55.7575906" lon="48.7428039"><time>2021-10-23T13:37:40.307</time></trkpt><trkpt lat="55.7575520" lon="48.7427354"><time>2021-10-23T13:37:43.170</time></trkpt><trkpt lat="55.7575190" lon="48.7426681"><time>2021-10-23T13:37:46.250</time></trkpt><trkpt lat="55.7574952" lon="48.7425934"><time>2021-10-23T13:37:49.170</time></trkpt><trkpt lat="55.7574563" lon="48.7425193"><time>2021-10-23T13:37:53.297</time></trkpt><trkpt lat="55.7574250" lon="48.7424404"><time>2021-10-23T13:37:57.330</time></trkpt><trkpt lat="55.7573866" lon="48.7423614"><time>2021-10-23T13:38:01.307</time></trkpt><trkpt lat="55.7573559" lon="48.7423016"><time>2021-10-23T13:38:04.313</time></trkpt><trkpt lat="55.7573236" lon="48.7422438"><time>2021-10-23T13:38:07.257</time></trkpt><trkpt lat="55.7572898" lon="48.7421847"><time>2021-10-23T13:38:10.300</time></trkpt><trkpt lat="55.7572573" lon="48.7421184"><time>2021-10-23T13:38:13.297</time></trkpt><trkpt lat="55.7572230" lon="48.7420463"><time>2021-10-23T13:38:16.253</time></trkpt><trkpt lat="55.7571891" lon="48.7419792"><time>2021-10-23T13:38:20.283</time></trkpt><trkpt lat="55.7571625" lon="48.7418985"><time>2021-10-23T13:38:24.340</time></trkpt><trkpt lat="55.7571263" lon="48.7418284"><time>2021-10-23T13:38:28.307</time></trkpt><trkpt lat="55.7570916" lon="48.7417499"><time>2021-10-23T13:38:32.270</time></trkpt><trkpt lat="55.7570638" lon="48.7416704"><time>2021-10-23T13:38:36.297</time></trkpt><trkpt lat="55.7570396" lon="48.7415845"><time>2021-10-23T13:38:40.187</time></trkpt><trkpt lat="55.7570198" lon="48.7414986"><time>2021-10-23T13:38:44.183</time></trkpt><trkpt lat="55.7569873" lon="48.7414255"><time>2021-10-23T13:38:48.180</time></trkpt><trkpt lat="55.7569747" lon="48.7413439"><time>2021-10-23T13:38:52.187</time></trkpt><trkpt lat="55.7569406" lon="48.7412717"><time>2021-10-23T13:38:56.177</time></trkpt><trkpt lat="55.7569028" lon="48.7412220"><time>2021-10-23T13:38:59.333</time></trkpt><trkpt lat="55.7568473" lon="48.7411677"><time>2021-10-23T13:39:02.327</time></trkpt><trkpt lat="55.7568007" lon="48.7411093"><time>2021-10-23T13:39:05.313</time></trkpt><trkpt lat="55.7567684" lon="48.7410523"><time>2021-10-23T13:39:08.340</time></trkpt><trkpt lat="55.7567270" lon="48.7409904"><time>2021-10-23T13:39:12.227</time></trkpt><trkpt lat="55.7566954" lon="48.7409261"><time>2021-10-23T13:39:15.263</time></trkpt><trkpt lat="55.7566552" lon="48.7408516"><time>2021-10-23T13:39:19.347</time></trkpt><trkpt lat="55.7566152" lon="48.7407823"><time>2021-10-23T13:39:23.323</time></trkpt><trkpt lat="55.7565743" lon="48.7407183"><time>2021-10-23T13:39:27.270</time></trkpt><trkpt lat="55.7565449" lon="48.7406401"><time>2021-10-23T13:39:31.363</time></trkpt><trkpt lat="55.7565210" lon="48.7405640"><time>2021-10-23T13:39:35.297</time></trkpt><trkpt lat="55.7564764" lon="48.7404880"><time>2021-10-23T13:39:39.303</time></trkpt><trkpt lat="55.7564408" lon="48.7404202"><time>2021-10-23T13:39:43.307</time></trkpt><trkpt lat="55.7564036" lon="48.7403689"><time>2021-10-23T13:39:47.357</time></trkpt><trkpt lat="55.7563698" lon="48.7403057"><time>2021-10-23T13:39:51.493</time></trkpt><trkpt lat="55.7563322" lon="48.7402559"><time>2021-10-23T13:39:55.300</time></trkpt><trkpt lat="55.7562979" lon="48.7401944"><time>2021-10-23T13:39:59.353</time></trkpt><trkpt lat="55.7562677" lon="48.7401190"><time>2021-10-23T13:40:03.400</time></trkpt><trkpt lat="55.7562310" lon="48.7400475"><time>2021-10-23T13:40:07.327</time></trkpt><trkpt lat="55.7562018" lon="48.7399745"><time>2021-10-23T13:40:11.347</time></trkpt><trkpt lat="55.7561666" lon="48.7399019"><time>2021-10-23T13:40:16.340</time></trkpt><trkpt lat="55.7561361" lon="48.7398431"><time>2021-10-23T13:40:21.363</time></trkpt><trkpt lat="55.7560943" lon="48.7397832"><time>2021-10-23T13:40:26.317</time></trkpt><trkpt lat="55.7560484" lon="48.7397534"><time>2021-10-23T13:40:30.377</time></trkpt><trkpt lat="55.7560095" lon="48.7397120"><time>2021-10-23T13:40:34.170</time></trkpt><trkpt lat="55.7560052" lon="48.7396181"><time>2021-10-23T13:40:38.177</time></trkpt><trkpt lat="55.7559685" lon="48.7395451"><time>2021-10-23T13:40:42.313</time></trkpt><trkpt lat="55.7559373" lon="48.7394628"><time>2021-10-23T13:40:46.163</time></trkpt><trkpt lat="55.7559038" lon="48.7393965"><time>2021-10-23T13:40:50.243</time></trkpt><trkpt lat="55.7558661" lon="48.7393238"><time>2021-10-23T13:40:54.310</time></trkpt><trkpt lat="55.7558276" lon="48.7392483"><time>2021-10-23T13:40:58.267</time></trkpt><trkpt lat="55.7557995" lon="48.7391815"><time>2021-10-23T13:41:01.277</time></trkpt><trkpt lat="55.7557689" lon="48.7390996"><time>2021-10-23T13:41:05.337</time></trkpt><trkpt lat="55.7557444" lon="48.7390173"><time>2021-10-23T13:41:09.300</time></trkpt><trkpt lat="55.7557202" lon="48.7389449"><time>2021-10-23T13:41:13.327</time></trkpt><trkpt lat="55.7556893" lon="48.7388727"><time>2021-10-23T13:41:18.330</time></trkpt><trkpt lat="55.7556678" lon="48.7387978"><time>2021-10-23T13:41:24.337</time></trkpt><trkpt lat="55.7557243" lon="48.7387814"><time>2021-10-23T13:41:30.343</time></trkpt><trkpt lat="55.7557273" lon="48.7386892"><time>2021-10-23T13:41:44.183</time></trkpt><trkpt lat="55.7557576" lon="48.7386055"><time>2021-10-23T13:41:48.333</time></trkpt><trkpt lat="55.7557708" lon="48.7385105"><time>2021-10-23T13:41:55.303</time></trkpt><trkpt lat="55.7557782" lon="48.7384196"><time>2021-10-23T13:42:00.340</time></trkpt><trkpt lat="55.7557624" lon="48.7383334"><time>2021-10-23T13:42:04.353</time></trkpt><trkpt lat="55.7557707" lon="48.7382474"><time>2021-10-23T13:42:08.347</time></trkpt><trkpt lat="55.7558036" lon="48.7381768"><time>2021-10-23T13:42:17.183</time></trkpt><trkpt lat="55.7558153" lon="48.7380881"><time>2021-10-23T13:42:23.383</time></trkpt><trkpt lat="55.7558344" lon="48.7379988"><time>2021-10-23T13:42:28.270</time></trkpt><trkpt lat="55.7558671" lon="48.7379279"><time>2021-10-23T13:42:34.317</time></trkpt><trkpt lat="55.7558934" lon="48.7378628"><time>2021-10-23T13:42:39.320</time></trkpt><trkpt lat="55.7559221" lon="48.7377867"><time>2021-10-23T13:42:44.317</time></trkpt><trkpt lat="55.7559446" lon="48.7377095"><time>2021-10-23T13:42:48.157</time></trkpt><trkpt lat="55.7559705" lon="48.7376286"><time>2021-10-23T13:42:52.177</time></trkpt><trkpt lat="55.7560006" lon="48.7375522"><time>2021-10-23T13:42:56.283</time></trkpt><trkpt lat="55.7560389" lon="48.7374930"><time>2021-10-23T13:43:00.330</time></trkpt><trkpt lat="55.7560828" lon="48.7374282"><time>2021-10-23T13:43:05.270</time></trkpt><trkpt lat="55.7561249" lon="48.7373748"><time>2021-10-23T13:43:09.303</time></trkpt><trkpt lat="55.7561676" lon="48.7373225"><time>2021-10-23T13:43:13.197</time></trkpt><trkpt lat="55.7562211" lon="48.7372781"><time>2021-10-23T13:43:17.317</time></trkpt><trkpt lat="55.7562755" lon="48.7372345"><time>2021-10-23T13:43:21.260</time></trkpt><trkpt lat="55.7563162" lon="48.7371972"><time>2021-10-23T13:43:24.303</time></trkpt><trkpt lat="55.7563595" lon="48.7371374"><time>2021-10-23T13:43:28.343</time></trkpt><trkpt lat="55.7564012" lon="48.7370789"><time>2021-10-23T13:43:33.180</time></trkpt><trkpt lat="55.7564485" lon="48.7370449"><time>2021-10-23T13:43:37.257</time></trkpt><trkpt lat="55.7564950" lon="48.7370043"><time>2021-10-23T13:43:41.307</time></trkpt><trkpt lat="55.7565455" lon="48.7369692"><time>2021-10-23T13:43:45.300</time></trkpt><trkpt lat="55.7565905" lon="48.7369364"><time>2021-10-23T13:43:48.187</time></trkpt><trkpt lat="55.7566449" lon="48.7369191"><time>2021-10-23T13:43:52.180</time></trkpt><trkpt lat="55.7566940" lon="48.7368806"><time>2021-10-23T13:43:56.173</time></trkpt><trkpt lat="55.7567383" lon="48.7368422"><time>2021-10-23T13:44:00.343</time></trkpt><trkpt lat="55.7567840" lon="48.7367808"><time>2021-10-23T13:44:04.290</time></trkpt><trkpt lat="55.7568206" lon="48.7367295"><time>2021-10-23T13:44:07.343</time></trkpt><trkpt lat="55.7568541" lon="48.7366606"><time>2021-10-23T13:44:11.350</time></trkpt><trkpt lat="55.7568946" lon="48.7365896"><time>2021-10-23T13:44:15.323</time></trkpt><trkpt lat="55.7569480" lon="48.7365656"><time>2021-10-23T13:44:19.180</time></trkpt><trkpt lat="55.7569939" lon="48.7365195"><time>2021-10-23T13:44:23.193</time></trkpt><trkpt lat="55.7570292" lon="48.7364439"><time>2021-10-23T13:44:27.357</time></trkpt><trkpt lat="55.7570705" lon="48.7363757"><time>2021-10-23T13:44:31.360</time></trkpt><trkpt lat="55.7571191" lon="48.7363389"><time>2021-10-23T13:44:35.190</time></trkpt><trkpt lat="55.7571641" lon="48.7362872"><time>2021-10-23T13:44:40.180</time></trkpt><trkpt lat="55.7572012" lon="48.7362147"><time>2021-10-23T13:44:45.323</time></trkpt><trkpt lat="55.7572476" lon="48.7361599"><time>2021-10-23T13:44:49.177</time></trkpt><trkpt lat="55.7572893" lon="48.7360990"><time>2021-10-23T13:44:53.190</time></trkpt><trkpt lat="55.7573309" lon="48.7360471"><time>2021-10-23T13:44:57.173</time></trkpt><trkpt lat="55.7573784" lon="48.7360087"><time>2021-10-23T13:45:01.180</time></trkpt><trkpt lat="55.7574158" lon="48.7359640"><time>2021-10-23T13:45:04.197</time></trkpt><trkpt lat="55.7574503" lon="48.7359040"><time>2021-10-23T13:45:07.170</time></trkpt><trkpt lat="55.7575026" lon="48.7358640"><time>2021-10-23T13:45:11.200</time></trkpt><trkpt lat="55.7575495" lon="48.7358179"><time>2021-10-23T13:45:15.210</time></trkpt><trkpt lat="55.7575914" lon="48.7357657"><time>2021-10-23T13:45:19.207</time></trkpt><trkpt lat="55.7576362" lon="48.7357255"><time>2021-10-23T13:45:24.187</time></trkpt><trkpt lat="55.7576757" lon="48.7356790"><time>2021-10-23T13:45:28.207</time></trkpt><trkpt lat="55.7577250" lon="48.7356354"><time>2021-10-23T13:45:32.203</time></trkpt><trkpt lat="55.7577629" lon="48.7355833"><time>2021-10-23T13:45:36.203</time></trkpt><trkpt lat="55.7578088" lon="48.7355263"><time>2021-10-23T13:45:42.193</time></trkpt><trkpt lat="55.7578465" lon="48.7354712"><time>2021-10-23T13:45:46.180</time></trkpt><trkpt lat="55.7578854" lon="48.7354218"><time>2021-10-23T13:45:49.210</time></trkpt><trkpt lat="55.7579242" lon="48.7353678"><time>2021-10-23T13:45:52.203</time></trkpt><trkpt lat="55.7579667" lon="48.7353056"><time>2021-10-23T13:45:56.193</time></trkpt><trkpt lat="55.7580068" lon="48.7352428"><time>2021-10-23T13:46:00.217</time></trkpt><trkpt lat="55.7580542" lon="48.7351824"><time>2021-10-23T13:46:04.190</time></trkpt><trkpt lat="55.7580959" lon="48.7351310"><time>2021-10-23T13:46:08.203</time></trkpt><trkpt lat="55.7581299" lon="48.7350734"><time>2021-10-23T13:46:12.177</time></trkpt><trkpt lat="55.7581562" lon="48.7349820"><time>2021-10-23T13:46:16.177</time></trkpt><trkpt lat="55.7581622" lon="48.7348974"><time>2021-10-23T13:46:19.197</time></trkpt><trkpt lat="55.7581712" lon="48.7347949"><time>2021-10-23T13:46:23.190</time></trkpt><trkpt lat="55.7581663" lon="48.7347678"><time>2021-10-23T13:46:25.207</time></trkpt><trkpt lat="55.7581237" lon="48.7348314"><time>2021-10-23T13:46:56.177</time></trkpt><trkpt lat="55.7580801" lon="48.7348899"><time>2021-10-23T13:47:00.187</time></trkpt><trkpt lat="55.7580371" lon="48.7349157"><time>2021-10-23T13:47:04.187</time></trkpt><trkpt lat="55.7580046" lon="48.7349744"><time>2021-10-23T13:47:09.280</time></trkpt><trkpt lat="55.7579630" lon="48.7350254"><time>2021-10-23T13:47:14.327</time></trkpt><trkpt lat="55.7579127" lon="48.7350562"><time>2021-10-23T13:47:21.310</time></trkpt><trkpt lat="55.7578708" lon="48.7351071"><time>2021-10-23T13:47:26.310</time></trkpt><trkpt lat="55.7578352" lon="48.7351718"><time>2021-10-23T13:48:10.267</time></trkpt><trkpt lat="55.7577830" lon="48.7351982"><time>2021-10-23T13:48:15.210</time></trkpt><trkpt lat="55.7577418" lon="48.7352335"><time>2021-10-23T13:48:19.337</time></trkpt><trkpt lat="55.7576893" lon="48.7352761"><time>2021-10-23T13:48:24.333</time></trkpt><trkpt lat="55.7576488" lon="48.7353185"><time>2021-10-23T13:48:29.310</time></trkpt><trkpt lat="55.7576042" lon="48.7353522"><time>2021-10-23T13:48:32.680</time></trkpt><trkpt lat="55.7575570" lon="48.7353781"><time>2021-10-23T13:48:36.233</time></trkpt><trkpt lat="55.7575155" lon="48.7354245"><time>2021-10-23T13:48:40.180</time></trkpt><trkpt lat="55.7574782" lon="48.7354696"><time>2021-10-23T13:48:44.227</time></trkpt><trkpt lat="55.7574333" lon="48.7355063"><time>2021-10-23T13:48:48.330</time></trkpt><trkpt lat="55.7573872" lon="48.7355537"><time>2021-10-23T13:48:52.173</time></trkpt><trkpt lat="55.7573469" lon="48.7355963"><time>2021-10-23T13:48:56.197</time></trkpt><trkpt lat="55.7573102" lon="48.7356458"><time>2021-10-23T13:49:00.200</time></trkpt><trkpt lat="55.7572538" lon="48.7356665"><time>2021-10-23T13:49:04.200</time></trkpt><trkpt lat="55.7571989" lon="48.7356946"><time>2021-10-23T13:49:08.193</time></trkpt><trkpt lat="55.7571553" lon="48.7357393"><time>2021-10-23T13:49:12.197</time></trkpt><trkpt lat="55.7571090" lon="48.7357893"><time>2021-10-23T13:49:17.180</time></trkpt><trkpt lat="55.7570595" lon="48.7358267"><time>2021-10-23T13:49:22.200</time></trkpt><trkpt lat="55.7570179" lon="48.7358749"><time>2021-10-23T13:49:26.203</time></trkpt><trkpt lat="55.7569798" lon="48.7359217"><time>2021-10-23T13:49:30.197</time></trkpt><trkpt lat="55.7569399" lon="48.7359603"><time>2021-10-23T13:49:34.273</time></trkpt><trkpt lat="55.7568963" lon="48.7359918"><time>2021-10-23T13:49:38.200</time></trkpt><trkpt lat="55.7568508" lon="48.7360223"><time>2021-10-23T13:49:42.187</time></trkpt><trkpt lat="55.7568039" lon="48.7360717"><time>2021-10-23T13:49:46.277</time></trkpt><trkpt lat="55.7567598" lon="48.7361221"><time>2021-10-23T13:49:50.183</time></trkpt><trkpt lat="55.7567225" lon="48.7361780"><time>2021-10-23T13:49:54.200</time></trkpt><trkpt lat="55.7566794" lon="48.7362260"><time>2021-10-23T13:49:58.250</time></trkpt><trkpt lat="55.7566394" lon="48.7362700"><time>2021-10-23T13:50:02.197</time></trkpt><trkpt lat="55.7566053" lon="48.7363254"><time>2021-10-23T13:50:06.197</time></trkpt><trkpt lat="55.7565726" lon="48.7363869"><time>2021-10-23T13:50:10.233</time></trkpt><trkpt lat="55.7565398" lon="48.7364458"><time>2021-10-23T13:50:14.200</time></trkpt><trkpt lat="55.7564996" lon="48.7365117"><time>2021-10-23T13:50:19.197</time></trkpt><trkpt lat="55.7564634" lon="48.7365612"><time>2021-10-23T13:50:23.197</time></trkpt><trkpt lat="55.7564206" lon="48.7366077"><time>2021-10-23T13:50:27.197</time></trkpt><trkpt lat="55.7563748" lon="48.7366523"><time>2021-10-23T13:50:31.200</time></trkpt><trkpt lat="55.7563258" lon="48.7366661"><time>2021-10-23T13:50:35.197</time></trkpt><trkpt lat="55.7562795" lon="48.7366895"><time>2021-10-23T13:50:39.197</time></trkpt><trkpt lat="55.7562255" lon="48.7367084"><time>2021-10-23T13:50:43.193</time></trkpt><trkpt lat="55.7561740" lon="48.7367350"><time>2021-10-23T13:50:47.193</time></trkpt><trkpt lat="55.7561259" lon="48.7367733"><time>2021-10-23T13:50:51.200</time></trkpt><trkpt lat="55.7560824" lon="48.7368176"><time>2021-10-23T13:50:55.177</time></trkpt><trkpt lat="55.7560385" lon="48.7368559"><time>2021-10-23T13:50:59.193</time></trkpt><trkpt lat="55.7559896" lon="48.7369008"><time>2021-10-23T13:51:04.200</time></trkpt><trkpt lat="55.7559471" lon="48.7369441"><time>2021-10-23T13:51:09.270</time></trkpt><trkpt lat="55.7559153" lon="48.7370016"><time>2021-10-23T13:51:14.200</time></trkpt><trkpt lat="55.7558788" lon="48.7370645"><time>2021-10-23T13:51:20.200</time></trkpt><trkpt lat="55.7558297" lon="48.7370713"><time>2021-10-23T13:51:25.197</time></trkpt><trkpt lat="55.7557856" lon="48.7371065"><time>2021-10-23T13:51:30.200</time></trkpt><trkpt lat="55.7557401" lon="48.7371641"><time>2021-10-23T13:51:35.197</time></trkpt><trkpt lat="55.7556957" lon="48.7371972"><time>2021-10-23T13:51:39.197</time></trkpt><trkpt lat="55.7556472" lon="48.7372132"><time>2021-10-23T13:51:43.200</time></trkpt><trkpt lat="55.7555994" lon="48.7372340"><time>2021-10-23T13:51:47.190</time></trkpt><trkpt lat="55.7555635" lon="48.7372854"><time>2021-10-23T13:51:51.197</time></trkpt><trkpt lat="55.7555380" lon="48.7373734"><time>2021-10-23T13:51:55.160</time></trkpt><trkpt lat="55.7555162" lon="48.7374467"><time>2021-10-23T13:51:59.180</time></trkpt><trkpt lat="55.7554867" lon="48.7375114"><time>2021-10-23T13:52:04.197</time></trkpt><trkpt lat="55.7554372" lon="48.7375532"><time>2021-10-23T13:52:09.187</time></trkpt><trkpt lat="55.7553881" lon="48.7376013"><time>2021-10-23T13:52:14.277</time></trkpt><trkpt lat="55.7553537" lon="48.7376535"><time>2021-10-23T13:52:18.203</time></trkpt><trkpt lat="55.7553220" lon="48.7377152"><time>2021-10-23T13:52:22.263</time></trkpt><trkpt lat="55.7552961" lon="48.7378008"><time>2021-10-23T13:52:27.203</time></trkpt><trkpt lat="55.7552898" lon="48.7378906"><time>2021-10-23T13:52:32.257</time></trkpt><trkpt lat="55.7552717" lon="48.7379759"><time>2021-10-23T13:52:36.203</time></trkpt><trkpt lat="55.7552665" lon="48.7380686"><time>2021-10-23T13:52:40.170</time></trkpt><trkpt lat="55.7552737" lon="48.7381478"><time>2021-10-23T13:52:44.187</time></trkpt><trkpt lat="55.7552546" lon="48.7382373"><time>2021-10-23T13:52:49.233</time></trkpt><trkpt lat="55.7552362" lon="48.7383197"><time>2021-10-23T13:52:53.177</time></trkpt><trkpt lat="55.7552246" lon="48.7383985"><time>2021-10-23T13:52:57.180</time></trkpt><trkpt lat="55.7552175" lon="48.7384823"><time>2021-10-23T13:53:02.180</time></trkpt><trkpt lat="55.7551809" lon="48.7385305"><time>2021-10-23T13:53:07.250</time></trkpt><trkpt lat="55.7551573" lon="48.7386042"><time>2021-10-23T13:53:12.180</time></trkpt><trkpt lat="55.7551390" lon="48.7386934"><time>2021-10-23T13:53:19.250</time></trkpt><trkpt lat="55.7550973" lon="48.7387544"><time>2021-10-23T13:53:23.183</time></trkpt><trkpt lat="55.7550577" lon="48.7388226"><time>2021-10-23T13:53:28.183</time></trkpt><trkpt lat="55.7550104" lon="48.7388524"><time>2021-10-23T13:53:32.177</time></trkpt><trkpt lat="55.7549787" lon="48.7389225"><time>2021-10-23T13:53:38.200</time></trkpt><trkpt lat="55.7549336" lon="48.7389750"><time>2021-10-23T13:53:46.203</time></trkpt><trkpt lat="55.7548854" lon="48.7389948"><time>2021-10-23T13:53:52.177</time></trkpt><trkpt lat="55.7548369" lon="48.7390268"><time>2021-10-23T13:53:58.170</time></trkpt><trkpt lat="55.7547918" lon="48.7390513"><time>2021-10-23T13:54:03.180</time></trkpt><trkpt lat="55.7547529" lon="48.7391037"><time>2021-10-23T13:54:08.327</time></trkpt><trkpt lat="55.7547258" lon="48.7391774"><time>2021-10-23T13:54:12.363</time></trkpt><trkpt lat="55.7546971" lon="48.7392559"><time>2021-10-23T13:54:15.350</time></trkpt><trkpt lat="55.7546832" lon="48.7393317"><time>2021-10-23T13:54:38.387</time></trkpt><trkpt lat="55.7546679" lon="48.7394241"><time>2021-10-23T13:54:42.327</time></trkpt><trkpt lat="55.7546526" lon="48.7395035"><time>2021-10-23T13:54:46.337</time></trkpt><trkpt lat="55.7546439" lon="48.7395846"><time>2021-10-23T13:54:49.313</time></trkpt><trkpt lat="55.7546380" lon="48.7396719"><time>2021-10-23T13:54:52.317</time></trkpt><trkpt lat="55.7546254" lon="48.7397866"><time>2021-10-23T13:54:55.177</time></trkpt><trkpt lat="55.7546129" lon="48.7398874"><time>2021-10-23T13:54:58.180</time></trkpt><trkpt lat="55.7546009" lon="48.7399748"><time>2021-10-23T13:55:01.180</time></trkpt><trkpt lat="55.7545864" lon="48.7400527"><time>2021-10-23T13:55:05.320</time></trkpt><trkpt lat="55.7545687" lon="48.7401425"><time>2021-10-23T13:55:09.300</time></trkpt><trkpt lat="55.7545299" lon="48.7402029"><time>2021-10-23T13:55:14.310</time></trkpt><trkpt lat="55.7544797" lon="48.7401561"><time>2021-10-23T13:55:21.317</time></trkpt><trkpt lat="55.7544195" lon="48.7401290"><time>2021-10-23T13:55:26.320</time></trkpt><trkpt lat="55.7543625" lon="48.7400865"><time>2021-10-23T13:55:30.310</time></trkpt><trkpt lat="55.7543120" lon="48.7400698"><time>2021-10-23T13:55:33.283</time></trkpt><trkpt lat="55.7542667" lon="48.7400521"><time>2021-10-23T13:55:36.183</time></trkpt><trkpt lat="55.7542163" lon="48.7400270"><time>2021-10-23T13:55:40.273</time></trkpt><trkpt lat="55.7541571" lon="48.7400183"><time>2021-10-23T13:55:44.640</time></trkpt><trkpt lat="55.7541068" lon="48.7399914"><time>2021-10-23T13:55:49.427</time></trkpt><trkpt lat="55.7540563" lon="48.7399807"><time>2021-10-23T13:55:53.170</time></trkpt><trkpt lat="55.7540454" lon="48.7399012"><time>2021-10-23T13:55:56.170</time></trkpt><trkpt lat="55.7539960" lon="48.7399328"><time>2021-10-23T13:56:03.170</time></trkpt><trkpt lat="55.7539383" lon="48.7399215"><time>2021-10-23T13:56:07.167</time></trkpt><trkpt lat="55.7538854" lon="48.7398747"><time>2021-10-23T13:56:11.167</time></trkpt><trkpt lat="55.7538420" lon="48.7398484"><time>2021-10-23T13:56:14.267</time></trkpt><trkpt lat="55.7537940" lon="48.7398190"><time>2021-10-23T13:56:17.167</time></trkpt><trkpt lat="55.7537447" lon="48.7397942"><time>2021-10-23T13:56:20.167</time></trkpt><trkpt lat="55.7536931" lon="48.7397800"><time>2021-10-23T13:56:23.170</time></trkpt><trkpt lat="55.7536477" lon="48.7397379"><time>2021-10-23T13:56:26.167</time></trkpt><trkpt lat="55.7536008" lon="48.7397174"><time>2021-10-23T13:56:29.167</time></trkpt><trkpt lat="55.7535475" lon="48.7397248"><time>2021-10-23T13:56:33.170</time></trkpt><trkpt lat="55.7534967" lon="48.7396790"><time>2021-10-23T13:56:37.167</time></trkpt><trkpt lat="55.7534394" lon="48.7396643"><time>2021-10-23T13:56:41.170</time></trkpt><trkpt lat="55.7533910" lon="48.7396318"><time>2021-10-23T13:56:45.170</time></trkpt><trkpt lat="55.7533460" lon="48.7396089"><time>2021-10-23T13:57:08.167</time></trkpt><trkpt lat="55.7533548" lon="48.7395261"><time>2021-10-23T13:57:11.187</time></trkpt><trkpt lat="55.7533362" lon="48.7394134"><time>2021-10-23T13:57:14.173</time></trkpt><trkpt lat="55.7532910" lon="48.7393550"><time>2021-10-23T13:57:18.213</time></trkpt><trkpt lat="55.7532658" lon="48.7392836"><time>2021-10-23T13:57:23.187</time></trkpt><trkpt lat="55.7532954" lon="48.7392106"><time>2021-10-23T13:57:38.177</time></trkpt><trkpt lat="55.7532827" lon="48.7392875"><time>2021-10-23T13:57:46.180</time></trkpt><trkpt lat="55.7532656" lon="48.7393765"><time>2021-10-23T13:57:51.180</time></trkpt><trkpt lat="55.7532620" lon="48.7394583"><time>2021-10-23T13:57:56.183</time></trkpt><trkpt lat="55.7532155" lon="48.7394879"><time>2021-10-23T13:58:01.513</time></trkpt><trkpt lat="55.7531571" lon="48.7394706"><time>2021-10-23T13:58:05.173</time></trkpt><trkpt lat="55.7531089" lon="48.7394493"><time>2021-10-23T13:58:08.173</time></trkpt><trkpt lat="55.7530718" lon="48.7393925"><time>2021-10-23T13:58:11.173</time></trkpt><trkpt lat="55.7530331" lon="48.7393155"><time>2021-10-23T13:58:15.297</time></trkpt><trkpt lat="55.7530108" lon="48.7392419"><time>2021-10-23T13:58:18.307</time></trkpt><trkpt lat="55.7529842" lon="48.7391656"><time>2021-10-23T13:58:22.290</time></trkpt><trkpt lat="55.7530244" lon="48.7391266"><time>2021-10-23T13:58:27.263</time></trkpt><trkpt lat="55.7530754" lon="48.7391217"><time>2021-10-23T13:58:30.187</time></trkpt><trkpt lat="55.7531274" lon="48.7391150"><time>2021-10-23T13:58:33.240</time></trkpt><trkpt lat="55.7531786" lon="48.7391056"><time>2021-10-23T13:58:36.193</time></trkpt><trkpt lat="55.7532292" lon="48.7390909"><time>2021-10-23T13:58:39.187</time></trkpt><trkpt lat="55.7532734" lon="48.7390689"><time>2021-10-23T13:58:42.347</time></trkpt><trkpt lat="55.7533194" lon="48.7390635"><time>2021-10-23T13:58:45.303</time></trkpt><trkpt lat="55.7533250" lon="48.7390796"><time>2021-10-23T13:58:50.227</time></trkpt><trkpt lat="55.7533152" lon="48.7391456"><time>2021-10-23T13:58:54.410</time></trkpt><trkpt lat="55.7533042" lon="48.7392237"><time>2021-10-23T13:58:57.177</time></trkpt><trkpt lat="55.7532974" lon="48.7393102"><time>2021-10-23T13:59:00.177</time></trkpt><trkpt lat="55.7532916" lon="48.7393924"><time>2021-10-23T13:59:03.187</time></trkpt><trkpt lat="55.7532742" lon="48.7394803"><time>2021-10-23T13:59:14.177</time></trkpt><trkpt lat="55.7532567" lon="48.7395674"><time>2021-10-23T13:59:18.177</time></trkpt><trkpt lat="55.7532416" lon="48.7396442"><time>2021-10-23T13:59:22.180</time></trkpt><trkpt lat="55.7532301" lon="48.7397345"><time>2021-10-23T13:59:27.177</time></trkpt><trkpt lat="55.7532353" lon="48.7398336"><time>2021-10-23T13:59:32.160</time></trkpt><trkpt lat="55.7532180" lon="48.7399159"><time>2021-10-23T13:59:36.177</time></trkpt><trkpt lat="55.7532108" lon="48.7400119"><time>2021-10-23T13:59:45.177</time></trkpt><trkpt lat="55.7531822" lon="48.7400865"><time>2021-10-23T13:59:49.167</time></trkpt><trkpt lat="55.7531247" lon="48.7400747"><time>2021-10-23T13:59:53.177</time></trkpt><trkpt lat="55.7530737" lon="48.7400498"><time>2021-10-23T13:59:57.177</time></trkpt><trkpt lat="55.7530256" lon="48.7400515"><time>2021-10-23T14:00:01.177</time></trkpt><trkpt lat="55.7529847" lon="48.7401128"><time>2021-10-23T14:00:05.177</time></trkpt><trkpt lat="55.7529317" lon="48.7401573"><time>2021-10-23T14:00:09.177</time></trkpt><trkpt lat="55.7528875" lon="48.7401938"><time>2021-10-23T14:00:12.177</time></trkpt><trkpt lat="55.7528437" lon="48.7402238"><time>2021-10-23T14:00:15.177</time></trkpt><trkpt lat="55.7527935" lon="48.7402092"><time>2021-10-23T14:00:29.177</time></trkpt><trkpt lat="55.7527436" lon="48.7401823"><time>2021-10-23T14:00:33.193</time></trkpt><trkpt lat="55.7526852" lon="48.7401768"><time>2021-10-23T14:00:37.167</time></trkpt><trkpt lat="55.7526602" lon="48.7402457"><time>2021-10-23T14:00:40.183</time></trkpt><trkpt lat="55.7526463" lon="48.7403327"><time>2021-10-23T14:00:43.167</time></trkpt><trkpt lat="55.7526324" lon="48.7404197"><time>2021-10-23T14:00:46.190</time></trkpt><trkpt lat="55.7526245" lon="48.7405069"><time>2021-10-23T14:00:49.177</time></trkpt><trkpt lat="55.7526138" lon="48.7405960"><time>2021-10-23T14:00:52.177</time></trkpt><trkpt lat="55.7526109" lon="48.7406948"><time>2021-10-23T14:00:55.173</time></trkpt><trkpt lat="55.7525985" lon="48.7407849"><time>2021-10-23T14:00:58.177</time></trkpt><trkpt lat="55.7525916" lon="48.7408899"><time>2021-10-23T14:01:01.157</time></trkpt><trkpt lat="55.7525774" lon="48.7409829"><time>2021-10-23T14:01:04.177</time></trkpt><trkpt lat="55.7525618" lon="48.7410665"><time>2021-10-23T14:01:07.180</time></trkpt><trkpt lat="55.7525475" lon="48.7411537"><time>2021-10-23T14:01:10.177</time></trkpt><trkpt lat="55.7525332" lon="48.7412346"><time>2021-10-23T14:01:13.180</time></trkpt><trkpt lat="55.7525164" lon="48.7413089"><time>2021-10-23T14:01:16.177</time></trkpt><trkpt lat="55.7524994" lon="48.7413955"><time>2021-10-23T14:01:21.177</time></trkpt><trkpt lat="55.7524844" lon="48.7414894"><time>2021-10-23T14:01:26.177</time></trkpt><trkpt lat="55.7524713" lon="48.7415727"><time>2021-10-23T14:01:30.177</time></trkpt><trkpt lat="55.7524631" lon="48.7416530"><time>2021-10-23T14:01:33.177</time></trkpt><trkpt lat="55.7524449" lon="48.7417348"><time>2021-10-23T14:01:36.200</time></trkpt><trkpt lat="55.7524276" lon="48.7418218"><time>2021-10-23T14:01:39.197</time></trkpt><trkpt lat="55.7524124" lon="48.7419004"><time>2021-10-23T14:01:41.197</time></trkpt><trkpt lat="55.7523958" lon="48.7419799"><time>2021-10-23T14:01:43.250</time></trkpt><trkpt lat="55.7523771" lon="48.7420572"><time>2021-10-23T14:01:45.213</time></trkpt><trkpt lat="55.7523496" lon="48.7421624"><time>2021-10-23T14:01:48.193</time></trkpt><trkpt lat="55.7523297" lon="48.7422490"><time>2021-10-23T14:01:51.177</time></trkpt><trkpt lat="55.7523105" lon="48.7423268"><time>2021-10-23T14:01:55.230</time></trkpt><trkpt lat="55.7522796" lon="48.7423860"><time>2021-10-23T14:01:59.177</time></trkpt><trkpt lat="55.7522325" lon="48.7423597"><time>2021-10-23T14:02:04.177</time></trkpt><trkpt lat="55.7521873" lon="48.7423665"><time>2021-10-23T14:02:12.177</time></trkpt><trkpt lat="55.7521369" lon="48.7423559"><time>2021-10-23T14:02:15.177</time></trkpt><trkpt lat="55.7520887" lon="48.7423461"><time>2021-10-23T14:02:18.177</time></trkpt><trkpt lat="55.7520371" lon="48.7423100"><time>2021-10-23T14:02:21.183</time></trkpt><trkpt lat="55.7519816" lon="48.7422600"><time>2021-10-23T14:02:24.167</time></trkpt><trkpt lat="55.7519331" lon="48.7422210"><time>2021-10-23T14:02:27.193</time></trkpt><trkpt lat="55.7518790" lon="48.7421856"><time>2021-10-23T14:02:31.153</time></trkpt><trkpt lat="55.7518314" lon="48.7421595"><time>2021-10-23T14:02:34.167</time></trkpt><trkpt lat="55.7517871" lon="48.7421395"><time>2021-10-23T14:02:37.180</time></trkpt><trkpt lat="55.7517336" lon="48.7421270"><time>2021-10-23T14:02:41.180</time></trkpt><trkpt lat="55.7516759" lon="48.7420962"><time>2021-10-23T14:02:45.170</time></trkpt><trkpt lat="55.7516304" lon="48.7420719"><time>2021-10-23T14:02:48.153</time></trkpt><trkpt lat="55.7515859" lon="48.7420378"><time>2021-10-23T14:02:51.173</time></trkpt><trkpt lat="55.7515385" lon="48.7420082"><time>2021-10-23T14:02:54.177</time></trkpt><trkpt lat="55.7514902" lon="48.7419902"><time>2021-10-23T14:02:57.177</time></trkpt><trkpt lat="55.7514329" lon="48.7419644"><time>2021-10-23T14:03:01.177</time></trkpt><trkpt lat="55.7513797" lon="48.7419454"><time>2021-10-23T14:03:05.177</time></trkpt><trkpt lat="55.7513363" lon="48.7419152"><time>2021-10-23T14:03:08.173</time></trkpt><trkpt lat="55.7512896" lon="48.7418606"><time>2021-10-23T14:03:12.177</time></trkpt><trkpt lat="55.7512451" lon="48.7418435"><time>2021-10-23T14:03:16.167</time></trkpt><trkpt lat="55.7511924" lon="48.7418132"><time>2021-10-23T14:03:20.160</time></trkpt><trkpt lat="55.7511401" lon="48.7417935"><time>2021-10-23T14:03:24.153</time></trkpt><trkpt lat="55.7510875" lon="48.7417714"><time>2021-10-23T14:03:28.190</time></trkpt><trkpt lat="55.7510369" lon="48.7417382"><time>2021-10-23T14:03:32.177</time></trkpt><trkpt lat="55.7509914" lon="48.7417222"><time>2021-10-23T14:03:35.177</time></trkpt><trkpt lat="55.7509438" lon="48.7417083"><time>2021-10-23T14:03:38.173</time></trkpt><trkpt lat="55.7508991" lon="48.7417004"><time>2021-10-23T14:03:41.180</time></trkpt><trkpt lat="55.7508468" lon="48.7416923"><time>2021-10-23T14:03:45.177</time></trkpt><trkpt lat="55.7508117" lon="48.7416330"><time>2021-10-23T14:03:49.167</time></trkpt><trkpt lat="55.7508055" lon="48.7415332"><time>2021-10-23T14:03:53.177</time></trkpt><trkpt lat="55.7507741" lon="48.7414664"><time>2021-10-23T14:03:57.177</time></trkpt><trkpt lat="55.7507489" lon="48.7413888"><time>2021-10-23T14:04:01.177</time></trkpt><trkpt lat="55.7507132" lon="48.7413333"><time>2021-10-23T14:04:05.177</time></trkpt><trkpt lat="55.7506722" lon="48.7412924"><time>2021-10-23T14:04:09.177</time></trkpt><trkpt lat="55.7506235" lon="48.7412507"><time>2021-10-23T14:04:14.177</time></trkpt><trkpt lat="55.7505750" lon="48.7412447"><time>2021-10-23T14:04:19.177</time></trkpt><trkpt lat="55.7505283" lon="48.7411983"><time>2021-10-23T14:04:23.177</time></trkpt><trkpt lat="55.7504834" lon="48.7411780"><time>2021-10-23T14:04:26.177</time></trkpt><trkpt lat="55.7504471" lon="48.7411307"><time>2021-10-23T14:04:29.177</time></trkpt><trkpt lat="55.7504123" lon="48.7410515"><time>2021-10-23T14:04:33.177</time></trkpt><trkpt lat="55.7503663" lon="48.7409876"><time>2021-10-23T14:04:37.180</time></trkpt><trkpt lat="55.7503137" lon="48.7409414"><time>2021-10-23T14:04:41.250</time></trkpt><trkpt lat="55.7502591" lon="48.7409109"><time>2021-10-23T14:04:45.177</time></trkpt><trkpt lat="55.7502146" lon="48.7408898"><time>2021-10-23T14:04:49.180</time></trkpt><trkpt lat="55.7501685" lon="48.7408456"><time>2021-10-23T14:04:53.190</time></trkpt><trkpt lat="55.7501233" lon="48.7408060"><time>2021-10-23T14:04:57.177</time></trkpt><trkpt lat="55.7500753" lon="48.7407687"><time>2021-10-23T14:05:01.177</time></trkpt><trkpt lat="55.7500296" lon="48.7407137"><time>2021-10-23T14:05:05.177</time></trkpt><trkpt lat="55.7499879" lon="48.7406381"><time>2021-10-23T14:05:09.177</time></trkpt><trkpt lat="55.7499474" lon="48.7405883"><time>2021-10-23T14:05:12.163</time></trkpt><trkpt lat="55.7499106" lon="48.7405403"><time>2021-10-23T14:05:15.177</time></trkpt><trkpt lat="55.7498775" lon="48.7404829"><time>2021-10-23T14:05:18.187</time></trkpt><trkpt lat="55.7498444" lon="48.7404250"><time>2021-10-23T14:05:21.230</time></trkpt><trkpt lat="55.7498353" lon="48.7403431"><time>2021-10-23T14:05:25.177</time></trkpt><trkpt lat="55.7498698" lon="48.7402816"><time>2021-10-23T14:05:30.177</time></trkpt><trkpt lat="55.7498932" lon="48.7401972"><time>2021-10-23T14:05:35.177</time></trkpt><trkpt lat="55.7499005" lon="48.7401187"><time>2021-10-23T14:05:40.177</time></trkpt><trkpt lat="55.7499105" lon="48.7400347"><time>2021-10-23T14:05:44.173</time></trkpt><trkpt lat="55.7499102" lon="48.7399518"><time>2021-10-23T14:05:47.177</time></trkpt><trkpt lat="55.7499158" lon="48.7398694"><time>2021-10-23T14:05:50.177</time></trkpt><trkpt lat="55.7499240" lon="48.7397837"><time>2021-10-23T14:05:53.177</time></trkpt><trkpt lat="55.7499283" lon="48.7396956"><time>2021-10-23T14:05:56.177</time></trkpt><trkpt lat="55.7499305" lon="48.7396122"><time>2021-10-23T14:05:59.177</time></trkpt><trkpt lat="55.7499184" lon="48.7395110"><time>2021-10-23T14:06:03.253</time></trkpt><trkpt lat="55.7498895" lon="48.7394268"><time>2021-10-23T14:06:07.177</time></trkpt><trkpt lat="55.7498631" lon="48.7393339"><time>2021-10-23T14:06:11.177</time></trkpt><trkpt lat="55.7498348" lon="48.7392591"><time>2021-10-23T14:06:15.197</time></trkpt><trkpt lat="55.7498019" lon="48.7391923"><time>2021-10-23T14:06:19.160</time></trkpt><trkpt lat="55.7497692" lon="48.7391262"><time>2021-10-23T14:06:23.493</time></trkpt><trkpt lat="55.7497234" lon="48.7390706"><time>2021-10-23T14:06:28.177</time></trkpt><trkpt lat="55.7496840" lon="48.7390237"><time>2021-10-23T14:06:32.173</time></trkpt><trkpt lat="55.7496356" lon="48.7389915"><time>2021-10-23T14:06:36.177</time></trkpt><trkpt lat="55.7495921" lon="48.7389493"><time>2021-10-23T14:06:40.190</time></trkpt><trkpt lat="55.7495476" lon="48.7388899"><time>2021-10-23T14:06:45.187</time></trkpt><trkpt lat="55.7495105" lon="48.7388399"><time>2021-10-23T14:06:49.233</time></trkpt><trkpt lat="55.7494694" lon="48.7387791"><time>2021-10-23T14:06:54.163</time></trkpt><trkpt lat="55.7494217" lon="48.7387295"><time>2021-10-23T14:06:58.177</time></trkpt><trkpt lat="55.7493696" lon="48.7386834"><time>2021-10-23T14:07:02.177</time></trkpt><trkpt lat="55.7493186" lon="48.7386628"><time>2021-10-23T14:07:06.177</time></trkpt><trkpt lat="55.7492721" lon="48.7386330"><time>2021-10-23T14:07:10.177</time></trkpt><trkpt lat="55.7492283" lon="48.7385928"><time>2021-10-23T14:07:14.163</time></trkpt><trkpt lat="55.7491846" lon="48.7385637"><time>2021-10-23T14:07:18.173</time></trkpt><trkpt lat="55.7491354" lon="48.7385385"><time>2021-10-23T14:07:22.180</time></trkpt><trkpt lat="55.7490792" lon="48.7385236"><time>2021-10-23T14:07:26.180</time></trkpt><trkpt lat="55.7490266" lon="48.7385055"><time>2021-10-23T14:07:30.230</time></trkpt><trkpt lat="55.7489740" lon="48.7384906"><time>2021-10-23T14:07:34.180</time></trkpt><trkpt lat="55.7489147" lon="48.7384715"><time>2021-10-23T14:07:38.177</time></trkpt><trkpt lat="55.7488607" lon="48.7384459"><time>2021-10-23T14:07:42.233</time></trkpt><trkpt lat="55.7488164" lon="48.7384314"><time>2021-10-23T14:07:46.177</time></trkpt><trkpt lat="55.7487621" lon="48.7384161"><time>2021-10-23T14:07:50.190</time></trkpt><trkpt lat="55.7487160" lon="48.7384145"><time>2021-10-23T14:07:54.253</time></trkpt><trkpt lat="55.7486745" lon="48.7383698"><time>2021-10-23T14:07:58.177</time></trkpt><trkpt lat="55.7486248" lon="48.7383477"><time>2021-10-23T14:08:02.180</time></trkpt><trkpt lat="55.7485773" lon="48.7383638"><time>2021-10-23T14:08:06.230</time></trkpt><trkpt lat="55.7485460" lon="48.7384219"><time>2021-10-23T14:08:12.263</time></trkpt><trkpt lat="55.7485206" lon="48.7383500"><time>2021-10-23T14:08:16.177</time></trkpt><trkpt lat="55.7485014" lon="48.7382647"><time>2021-10-23T14:08:19.177</time></trkpt><trkpt lat="55.7484801" lon="48.7381931"><time>2021-10-23T14:08:22.177</time></trkpt><trkpt lat="55.7484793" lon="48.7381027"><time>2021-10-23T14:08:26.177</time></trkpt><trkpt lat="55.7484866" lon="48.7380041"><time>2021-10-23T14:08:30.230</time></trkpt><trkpt lat="55.7484585" lon="48.7379217"><time>2021-10-23T14:08:34.177</time></trkpt><trkpt lat="55.7484294" lon="48.7378476"><time>2021-10-23T14:08:39.177</time></trkpt><trkpt lat="55.7484566" lon="48.7377787"><time>2021-10-23T14:08:51.337</time></trkpt><trkpt lat="55.7485053" lon="48.7377510"><time>2021-10-23T14:08:57.170</time></trkpt><trkpt lat="55.7485486" lon="48.7377860"><time>2021-10-23T14:09:02.280</time></trkpt><trkpt lat="55.7485815" lon="48.7377109"><time>2021-10-23T14:09:07.333</time></trkpt><trkpt lat="55.7486081" lon="48.7376254"><time>2021-10-23T14:09:12.177</time></trkpt><trkpt lat="55.7486184" lon="48.7375367"><time>2021-10-23T14:09:16.313</time></trkpt><trkpt lat="55.7486558" lon="48.7374577"><time>2021-10-23T14:09:20.297</time></trkpt><trkpt lat="55.7486899" lon="48.7374046"><time>2021-10-23T14:09:23.330</time></trkpt><trkpt lat="55.7487165" lon="48.7373320"><time>2021-10-23T14:09:27.447</time></trkpt><trkpt lat="55.7486814" lon="48.7372707"><time>2021-10-23T14:09:36.183</time></trkpt><trkpt lat="55.7486534" lon="48.7373349"><time>2021-10-23T14:09:42.170</time></trkpt><trkpt lat="55.7486838" lon="48.7373302"><time>2021-10-23T14:09:52.847</time></trkpt><trkpt lat="55.7486900" lon="48.7372764"><time>2021-10-23T14:10:02.177</time></trkpt><trkpt lat="55.7487177" lon="48.7373537"><time>2021-10-23T14:10:27.297</time></trkpt><trkpt lat="55.7486822" lon="48.7374163"><time>2021-10-23T14:10:35.357</time></trkpt><trkpt lat="55.7486421" lon="48.7374820"><time>2021-10-23T14:10:41.180</time></trkpt><trkpt lat="55.7485929" lon="48.7375054"><time>2021-10-23T14:10:45.287</time></trkpt><trkpt lat="55.7485490" lon="48.7375225"><time>2021-10-23T14:10:49.323</time></trkpt><trkpt lat="55.7485051" lon="48.7375815"><time>2021-10-23T14:10:55.347</time></trkpt><trkpt lat="55.7484648" lon="48.7376320"><time>2021-10-23T14:11:00.187</time></trkpt><trkpt lat="55.7484154" lon="48.7376032"><time>2021-10-23T14:11:05.297</time></trkpt><trkpt lat="55.7483691" lon="48.7375780"><time>2021-10-23T14:11:09.303</time></trkpt><trkpt lat="55.7483201" lon="48.7376217"><time>2021-10-23T14:11:16.180</time></trkpt><trkpt lat="55.7482834" lon="48.7376939"><time>2021-10-23T14:11:21.183</time></trkpt><trkpt lat="55.7482357" lon="48.7377226"><time>2021-10-23T14:11:25.180</time></trkpt><trkpt lat="55.7481819" lon="48.7377126"><time>2021-10-23T14:11:29.423</time></trkpt><trkpt lat="55.7481273" lon="48.7377008"><time>2021-10-23T14:11:34.200</time></trkpt><trkpt lat="55.7480827" lon="48.7376823"><time>2021-10-23T14:11:38.203</time></trkpt><trkpt lat="55.7480333" lon="48.7376197"><time>2021-10-23T14:11:42.210</time></trkpt><trkpt lat="55.7480035" lon="48.7375426"><time>2021-10-23T14:11:46.207</time></trkpt><trkpt lat="55.7479545" lon="48.7375579"><time>2021-10-23T14:11:52.203</time></trkpt><trkpt lat="55.7479119" lon="48.7375996"><time>2021-10-23T14:11:56.203</time></trkpt><trkpt lat="55.7478695" lon="48.7376399"><time>2021-10-23T14:12:00.217</time></trkpt><trkpt lat="55.7478228" lon="48.7376668"><time>2021-10-23T14:12:04.170</time></trkpt><trkpt lat="55.7477737" lon="48.7376993"><time>2021-10-23T14:12:08.173</time></trkpt><trkpt lat="55.7477306" lon="48.7377254"><time>2021-10-23T14:12:12.187</time></trkpt><trkpt lat="55.7476824" lon="48.7377537"><time>2021-10-23T14:12:17.187</time></trkpt><trkpt lat="55.7476386" lon="48.7377899"><time>2021-10-23T14:12:21.197</time></trkpt><trkpt lat="55.7475900" lon="48.7378213"><time>2021-10-23T14:12:25.180</time></trkpt><trkpt lat="55.7475443" lon="48.7378551"><time>2021-10-23T14:12:29.287</time></trkpt><trkpt lat="55.7474999" lon="48.7378898"><time>2021-10-23T14:12:33.300</time></trkpt><trkpt lat="55.7474680" lon="48.7379517"><time>2021-10-23T14:12:37.180</time></trkpt><trkpt lat="55.7474723" lon="48.7380397"><time>2021-10-23T14:12:41.187</time></trkpt><trkpt lat="55.7474897" lon="48.7381245"><time>2021-10-23T14:12:45.183</time></trkpt><trkpt lat="55.7475199" lon="48.7381995"><time>2021-10-23T14:12:49.307</time></trkpt><trkpt lat="55.7475402" lon="48.7382814"><time>2021-10-23T14:12:53.307</time></trkpt><trkpt lat="55.7475562" lon="48.7383700"><time>2021-10-23T14:12:57.173</time></trkpt><trkpt lat="55.7475479" lon="48.7384582"><time>2021-10-23T14:13:01.290</time></trkpt><trkpt lat="55.7475132" lon="48.7385231"><time>2021-10-23T14:13:05.177</time></trkpt><trkpt lat="55.7474837" lon="48.7385960"><time>2021-10-23T14:13:09.287</time></trkpt><trkpt lat="55.7474605" lon="48.7386648"><time>2021-10-23T14:13:13.183</time></trkpt><trkpt lat="55.7474301" lon="48.7387307"><time>2021-10-23T14:13:17.457</time></trkpt><trkpt lat="55.7474026" lon="48.7388101"><time>2021-10-23T14:13:21.327</time></trkpt><trkpt lat="55.7473740" lon="48.7388890"><time>2021-10-23T14:13:25.340</time></trkpt><trkpt lat="55.7473858" lon="48.7389773"><time>2021-10-23T14:13:29.310</time></trkpt><trkpt lat="55.7474217" lon="48.7390565"><time>2021-10-23T14:13:33.323</time></trkpt><trkpt lat="55.7474606" lon="48.7391317"><time>2021-10-23T14:13:37.327</time></trkpt><trkpt lat="55.7475024" lon="48.7392112"><time>2021-10-23T14:13:41.333</time></trkpt><trkpt lat="55.7475406" lon="48.7392820"><time>2021-10-23T14:13:45.183</time></trkpt><trkpt lat="55.7475729" lon="48.7393557"><time>2021-10-23T14:13:49.177</time></trkpt><trkpt lat="55.7476066" lon="48.7394092"><time>2021-10-23T14:13:53.323</time></trkpt><trkpt lat="55.7476407" lon="48.7394702"><time>2021-10-23T14:13:57.307</time></trkpt><trkpt lat="55.7476807" lon="48.7395293"><time>2021-10-23T14:14:01.317</time></trkpt><trkpt lat="55.7477260" lon="48.7395908"><time>2021-10-23T14:14:05.317</time></trkpt><trkpt lat="55.7477689" lon="48.7396413"><time>2021-10-23T14:14:08.313</time></trkpt><trkpt lat="55.7478141" lon="48.7396915"><time>2021-10-23T14:14:11.260</time></trkpt><trkpt lat="55.7478551" lon="48.7397534"><time>2021-10-23T14:14:14.317</time></trkpt><trkpt lat="55.7478808" lon="48.7398340"><time>2021-10-23T14:14:17.313</time></trkpt><trkpt lat="55.7478576" lon="48.7399269"><time>2021-10-23T14:14:21.180</time></trkpt><trkpt lat="55.7478179" lon="48.7399974"><time>2021-10-23T14:14:25.167</time></trkpt><trkpt lat="55.7477893" lon="48.7400614"><time>2021-10-23T14:14:28.173</time></trkpt><trkpt lat="55.7477527" lon="48.7401437"><time>2021-10-23T14:14:32.483</time></trkpt><trkpt lat="55.7477309" lon="48.7402154"><time>2021-10-23T14:14:35.187</time></trkpt><trkpt lat="55.7477155" lon="48.7403006"><time>2021-10-23T14:14:39.327</time></trkpt><trkpt lat="55.7476944" lon="48.7403730"><time>2021-10-23T14:14:42.243</time></trkpt><trkpt lat="55.7476567" lon="48.7404165"><time>2021-10-23T14:14:45.187</time></trkpt><trkpt lat="55.7476330" lon="48.7405096"><time>2021-10-23T14:14:50.257</time></trkpt><trkpt lat="55.7476445" lon="48.7405871"><time>2021-10-23T14:14:53.320</time></trkpt><trkpt lat="55.7476226" lon="48.7406809"><time>2021-10-23T14:14:57.327</time></trkpt><trkpt lat="55.7475948" lon="48.7407546"><time>2021-10-23T14:15:00.330</time></trkpt><trkpt lat="55.7475780" lon="48.7408517"><time>2021-10-23T14:15:04.333</time></trkpt><trkpt lat="55.7475472" lon="48.7409181"><time>2021-10-23T14:15:07.177</time></trkpt><trkpt lat="55.7475095" lon="48.7409671"><time>2021-10-23T14:15:10.320</time></trkpt><trkpt lat="55.7474767" lon="48.7410374"><time>2021-10-23T14:15:15.287</time></trkpt><trkpt lat="55.7474441" lon="48.7411058"><time>2021-10-23T14:15:21.177</time></trkpt><trkpt lat="55.7474202" lon="48.7411873"><time>2021-10-23T14:15:25.347</time></trkpt><trkpt lat="55.7473846" lon="48.7412370"><time>2021-10-23T14:15:30.257</time></trkpt><trkpt lat="55.7473561" lon="48.7411681"><time>2021-10-23T14:16:07.343</time></trkpt><trkpt lat="55.7473275" lon="48.7411066"><time>2021-10-23T14:16:09.310</time></trkpt><trkpt lat="55.7473023" lon="48.7410300"><time>2021-10-23T14:16:11.307</time></trkpt><trkpt lat="55.7472845" lon="48.7409521"><time>2021-10-23T14:16:13.277</time></trkpt><trkpt lat="55.7472611" lon="48.7408448"><time>2021-10-23T14:16:16.270</time></trkpt><trkpt lat="55.7472367" lon="48.7407644"><time>2021-10-23T14:16:19.180</time></trkpt><trkpt lat="55.7472084" lon="48.7407017"><time>2021-10-23T14:16:22.330</time></trkpt><trkpt lat="55.7471721" lon="48.7406213"><time>2021-10-23T14:16:26.310</time></trkpt><trkpt lat="55.7471413" lon="48.7405611"><time>2021-10-23T14:16:30.177</time></trkpt><trkpt lat="55.7471020" lon="48.7405216"><time>2021-10-23T14:16:39.270</time></trkpt><trkpt lat="55.7470528" lon="48.7404742"><time>2021-10-23T14:16:43.183</time></trkpt><trkpt lat="55.7469971" lon="48.7404712"><time>2021-10-23T14:16:47.250</time></trkpt><trkpt lat="55.7469415" lon="48.7404728"><time>2021-10-23T14:16:51.210</time></trkpt><trkpt lat="55.7469095" lon="48.7405482"><time>2021-10-23T14:16:58.203</time></trkpt><trkpt lat="55.7468882" lon="48.7406205"><time>2021-10-23T14:17:06.210</time></trkpt><trkpt lat="55.7468786" lon="48.7407115"><time>2021-10-23T14:17:11.187</time></trkpt><trkpt lat="55.7468513" lon="48.7407883"><time>2021-10-23T14:17:16.257</time></trkpt><trkpt lat="55.7468241" lon="48.7408545"><time>2021-10-23T14:17:20.193</time></trkpt><trkpt lat="55.7468535" lon="48.7407764"><time>2021-10-23T14:17:24.193</time></trkpt><trkpt lat="55.7468968" lon="48.7407472"><time>2021-10-23T14:17:27.207</time></trkpt><trkpt lat="55.7469444" lon="48.7407340"><time>2021-10-23T14:17:30.187</time></trkpt><trkpt lat="55.7470012" lon="48.7407395"><time>2021-10-23T14:17:33.207</time></trkpt><trkpt lat="55.7470622" lon="48.7407624"><time>2021-10-23T14:17:36.203</time></trkpt><trkpt lat="55.7471056" lon="48.7408144"><time>2021-10-23T14:17:39.177</time></trkpt><trkpt lat="55.7471192" lon="48.7409052"><time>2021-10-23T14:17:42.200</time></trkpt><trkpt lat="55.7471148" lon="48.7409956"><time>2021-10-23T14:17:46.190</time></trkpt><trkpt lat="55.7471134" lon="48.7410571"><time>2021-10-23T14:17:51.470</time></trkpt><trkpt lat="55.7470740" lon="48.7409589"><time>2021-10-23T14:18:04.167</time></trkpt><trkpt lat="55.7470230" lon="48.7409842"><time>2021-10-23T14:18:09.187</time></trkpt><trkpt lat="55.7469734" lon="48.7410156"><time>2021-10-23T14:18:14.190</time></trkpt><trkpt lat="55.7469297" lon="48.7410675"><time>2021-10-23T14:18:19.187</time></trkpt><trkpt lat="55.7469081" lon="48.7411477"><time>2021-10-23T14:18:23.183</time></trkpt><trkpt lat="55.7468890" lon="48.7412368"><time>2021-10-23T14:18:40.177</time></trkpt><trkpt lat="55.7468580" lon="48.7413155"><time>2021-10-23T14:18:44.190</time></trkpt><trkpt lat="55.7468187" lon="48.7413572"><time>2021-10-23T14:18:47.187</time></trkpt><trkpt lat="55.7467751" lon="48.7413958"><time>2021-10-23T14:18:50.177</time></trkpt><trkpt lat="55.7467207" lon="48.7414379"><time>2021-10-23T14:18:54.183</time></trkpt><trkpt lat="55.7466774" lon="48.7414712"><time>2021-10-23T14:18:57.193</time></trkpt><trkpt lat="55.7466267" lon="48.7415006"><time>2021-10-23T14:19:00.200</time></trkpt><trkpt lat="55.7465805" lon="48.7415401"><time>2021-10-23T14:19:03.203</time></trkpt><trkpt lat="55.7465460" lon="48.7415984"><time>2021-10-23T14:19:06.210</time></trkpt><trkpt lat="55.7465058" lon="48.7416736"><time>2021-10-23T14:19:10.187</time></trkpt><trkpt lat="55.7464768" lon="48.7417556"><time>2021-10-23T14:19:14.193</time></trkpt><trkpt lat="55.7464544" lon="48.7418441"><time>2021-10-23T14:19:18.283</time></trkpt><trkpt lat="55.7464050" lon="48.7418162"><time>2021-10-23T14:19:24.173</time></trkpt><trkpt lat="55.7463538" lon="48.7417631"><time>2021-10-23T14:19:28.187</time></trkpt><trkpt lat="55.7463157" lon="48.7416865"><time>2021-10-23T14:19:32.187</time></trkpt><trkpt lat="55.7462737" lon="48.7416353"><time>2021-10-23T14:19:35.237</time></trkpt><trkpt lat="55.7462326" lon="48.7415920"><time>2021-10-23T14:19:38.180</time></trkpt><trkpt lat="55.7461918" lon="48.7415565"><time>2021-10-23T14:19:41.187</time></trkpt><trkpt lat="55.7461573" lon="48.7414905"><time>2021-10-23T14:19:45.190</time></trkpt><trkpt lat="55.7461400" lon="48.7413963"><time>2021-10-23T14:19:50.190</time></trkpt><trkpt lat="55.7461020" lon="48.7413421"><time>2021-10-23T14:19:53.187</time></trkpt><trkpt lat="55.7460516" lon="48.7413195"><time>2021-10-23T14:19:56.190</time></trkpt><trkpt lat="55.7460151" lon="48.7413898"><time>2021-10-23T14:19:59.180</time></trkpt><trkpt lat="55.7459878" lon="48.7414746"><time>2021-10-23T14:20:02.187</time></trkpt><trkpt lat="55.7459605" lon="48.7415461"><time>2021-10-23T14:20:05.193</time></trkpt><trkpt lat="55.7459286" lon="48.7416220"><time>2021-10-23T14:20:08.187</time></trkpt><trkpt lat="55.7459051" lon="48.7416983"><time>2021-10-23T14:20:11.187</time></trkpt><trkpt lat="55.7458841" lon="48.7417747"><time>2021-10-23T14:20:14.203</time></trkpt><trkpt lat="55.7458594" lon="48.7418487"><time>2021-10-23T14:20:17.160</time></trkpt><trkpt lat="55.7458419" lon="48.7419329"><time>2021-10-23T14:20:21.180</time></trkpt><trkpt lat="55.7457971" lon="48.7419221"><time>2021-10-23T14:20:41.173</time></trkpt><trkpt lat="55.7457540" lon="48.7418690"><time>2021-10-23T14:20:44.170</time></trkpt><trkpt lat="55.7457083" lon="48.7418107"><time>2021-10-23T14:20:47.183</time></trkpt><trkpt lat="55.7456714" lon="48.7417413"><time>2021-10-23T14:20:50.173</time></trkpt><trkpt lat="55.7456329" lon="48.7416852"><time>2021-10-23T14:20:54.183</time></trkpt><trkpt lat="55.7455927" lon="48.7416265"><time>2021-10-23T14:20:58.190</time></trkpt><trkpt lat="55.7455507" lon="48.7415688"><time>2021-10-23T14:21:02.197</time></trkpt><trkpt lat="55.7455156" lon="48.7415154"><time>2021-10-23T14:21:06.180</time></trkpt><trkpt lat="55.7454788" lon="48.7414540"><time>2021-10-23T14:21:10.193</time></trkpt><trkpt lat="55.7454409" lon="48.7413891"><time>2021-10-23T14:21:14.200</time></trkpt><trkpt lat="55.7453952" lon="48.7413251"><time>2021-10-23T14:21:18.260</time></trkpt><trkpt lat="55.7453520" lon="48.7412563"><time>2021-10-23T14:21:22.177</time></trkpt><trkpt lat="55.7453095" lon="48.7411917"><time>2021-10-23T14:21:26.180</time></trkpt><trkpt lat="55.7452658" lon="48.7411293"><time>2021-10-23T14:21:30.230</time></trkpt><trkpt lat="55.7452311" lon="48.7410525"><time>2021-10-23T14:21:34.237</time></trkpt><trkpt lat="55.7451863" lon="48.7409919"><time>2021-10-23T14:21:38.183</time></trkpt><trkpt lat="55.7451462" lon="48.7409518"><time>2021-10-23T14:21:41.183</time></trkpt><trkpt lat="55.7450980" lon="48.7408919"><time>2021-10-23T14:21:45.197</time></trkpt><trkpt lat="55.7450621" lon="48.7408192"><time>2021-10-23T14:21:49.180</time></trkpt><trkpt lat="55.7450270" lon="48.7407601"><time>2021-10-23T14:21:53.193</time></trkpt><trkpt lat="55.7449933" lon="48.7406887"><time>2021-10-23T14:21:57.197</time></trkpt><trkpt lat="55.7449517" lon="48.7406249"><time>2021-10-23T14:22:01.197</time></trkpt><trkpt lat="55.7449093" lon="48.7405623"><time>2021-10-23T14:22:05.177</time></trkpt><trkpt lat="55.7448714" lon="48.7405055"><time>2021-10-23T14:22:09.183</time></trkpt><trkpt lat="55.7448384" lon="48.7404426"><time>2021-10-23T14:22:13.193</time></trkpt><trkpt lat="55.7448051" lon="48.7403766"><time>2021-10-23T14:22:17.183</time></trkpt><trkpt lat="55.7447683" lon="48.7403100"><time>2021-10-23T14:22:21.183</time></trkpt><trkpt lat="55.7447344" lon="48.7402431"><time>2021-10-23T14:22:25.200</time></trkpt><trkpt lat="55.7446934" lon="48.7401914"><time>2021-10-23T14:22:29.193</time></trkpt><trkpt lat="55.7446461" lon="48.7401339"><time>2021-10-23T14:22:33.190</time></trkpt><trkpt lat="55.7446044" lon="48.7400645"><time>2021-10-23T14:22:37.170</time></trkpt><trkpt lat="55.7445642" lon="48.7400046"><time>2021-10-23T14:22:41.187</time></trkpt><trkpt lat="55.7445210" lon="48.7399346"><time>2021-10-23T14:22:45.183</time></trkpt><trkpt lat="55.7444882" lon="48.7398781"><time>2021-10-23T14:22:48.170</time></trkpt><trkpt lat="55.7444519" lon="48.7398166"><time>2021-10-23T14:22:51.183</time></trkpt><trkpt lat="55.7444155" lon="48.7397511"><time>2021-10-23T14:22:54.200</time></trkpt><trkpt lat="55.7443913" lon="48.7396723"><time>2021-10-23T14:22:57.187</time></trkpt><trkpt lat="55.7443528" lon="48.7396097"><time>2021-10-23T14:23:01.257</time></trkpt><trkpt lat="55.7443043" lon="48.7395479"><time>2021-10-23T14:23:05.190</time></trkpt><trkpt lat="55.7442645" lon="48.7394687"><time>2021-10-23T14:23:09.190</time></trkpt><trkpt lat="55.7442369" lon="48.7393950"><time>2021-10-23T14:23:12.187</time></trkpt><trkpt lat="55.7442067" lon="48.7393220"><time>2021-10-23T14:23:15.190</time></trkpt><trkpt lat="55.7441692" lon="48.7392703"><time>2021-10-23T14:23:18.193</time></trkpt><trkpt lat="55.7441229" lon="48.7392195"><time>2021-10-23T14:23:22.273</time></trkpt><trkpt lat="55.7440840" lon="48.7391675"><time>2021-10-23T14:23:26.210</time></trkpt><trkpt lat="55.7440373" lon="48.7391180"><time>2021-10-23T14:23:32.193</time></trkpt><trkpt lat="55.7439965" lon="48.7390731"><time>2021-10-23T14:23:36.193</time></trkpt><trkpt lat="55.7439476" lon="48.7390569"><time>2021-10-23T14:23:40.280</time></trkpt><trkpt lat="55.7438928" lon="48.7390760"><time>2021-10-23T14:23:44.213</time></trkpt><trkpt lat="55.7438449" lon="48.7390724"><time>2021-10-23T14:23:47.283</time></trkpt><trkpt lat="55.7437859" lon="48.7390825"><time>2021-10-23T14:23:52.330</time></trkpt><trkpt lat="55.7437329" lon="48.7390407"><time>2021-10-23T14:23:56.277</time></trkpt><trkpt lat="55.7437037" lon="48.7389801"><time>2021-10-23T14:23:59.327</time></trkpt><trkpt lat="55.7436713" lon="48.7389227"><time>2021-10-23T14:24:02.357</time></trkpt><trkpt lat="55.7436350" lon="48.7388521"><time>2021-10-23T14:24:06.353</time></trkpt><trkpt lat="55.7435971" lon="48.7387914"><time>2021-10-23T14:24:11.330</time></trkpt><trkpt lat="55.7435491" lon="48.7387980"><time>2021-10-23T14:24:17.313</time></trkpt><trkpt lat="55.7435039" lon="48.7387882"><time>2021-10-23T14:24:22.260</time></trkpt><trkpt lat="55.7434601" lon="48.7387576"><time>2021-10-23T14:24:28.520</time></trkpt><trkpt lat="55.7434157" lon="48.7387080"><time>2021-10-23T14:24:32.197</time></trkpt><trkpt lat="55.7433748" lon="48.7386500"><time>2021-10-23T14:24:36.203</time></trkpt><trkpt lat="55.7433319" lon="48.7386012"><time>2021-10-23T14:24:40.213</time></trkpt><trkpt lat="55.7432827" lon="48.7385621"><time>2021-10-23T14:24:45.270</time></trkpt><trkpt lat="55.7432399" lon="48.7385272"><time>2021-10-23T14:24:49.183</time></trkpt><trkpt lat="55.7431924" lon="48.7384970"><time>2021-10-23T14:24:53.190</time></trkpt><trkpt lat="55.7431477" lon="48.7384686"><time>2021-10-23T14:24:57.613</time></trkpt><trkpt lat="55.7431034" lon="48.7384511"><time>2021-10-23T14:25:01.367</time></trkpt><trkpt lat="55.7430730" lon="48.7385185"><time>2021-10-23T14:25:11.157</time></trkpt><trkpt lat="55.7430386" lon="48.7385976"><time>2021-10-23T14:25:23.183</time></trkpt><trkpt lat="55.7429898" lon="48.7386347"><time>2021-10-23T14:25:27.190</time></trkpt><trkpt lat="55.7429416" lon="48.7386721"><time>2021-10-23T14:25:31.183</time></trkpt><trkpt lat="55.7429013" lon="48.7387104"><time>2021-10-23T14:25:35.187</time></trkpt><trkpt lat="55.7428612" lon="48.7387579"><time>2021-10-23T14:25:39.183</time></trkpt><trkpt lat="55.7428277" lon="48.7388179"><time>2021-10-23T14:25:44.187</time></trkpt><trkpt lat="55.7427778" lon="48.7388641"><time>2021-10-23T14:25:49.273</time></trkpt><trkpt lat="55.7427294" lon="48.7389102"><time>2021-10-23T14:25:53.290</time></trkpt><trkpt lat="55.7426844" lon="48.7389651"><time>2021-10-23T14:25:57.307</time></trkpt><trkpt lat="55.7426355" lon="48.7389684"><time>2021-10-23T14:26:00.313</time></trkpt><trkpt lat="55.7425824" lon="48.7389657"><time>2021-10-23T14:26:03.307</time></trkpt><trkpt lat="55.7425366" lon="48.7389682"><time>2021-10-23T14:26:06.243</time></trkpt><trkpt lat="55.7424811" lon="48.7389642"><time>2021-10-23T14:26:10.270</time></trkpt><trkpt lat="55.7424274" lon="48.7389425"><time>2021-10-23T14:26:15.177</time></trkpt><trkpt lat="55.7423736" lon="48.7389359"><time>2021-10-23T14:26:19.267</time></trkpt><trkpt lat="55.7423230" lon="48.7389271"><time>2021-10-23T14:26:23.303</time></trkpt><trkpt lat="55.7422683" lon="48.7389164"><time>2021-10-23T14:26:28.187</time></trkpt><trkpt lat="55.7422240" lon="48.7389004"><time>2021-10-23T14:26:32.313</time></trkpt><trkpt lat="55.7421670" lon="48.7388924"><time>2021-10-23T14:26:37.300</time></trkpt><trkpt lat="55.7421147" lon="48.7388868"><time>2021-10-23T14:26:41.273</time></trkpt><trkpt lat="55.7420588" lon="48.7388635"><time>2021-10-23T14:26:45.157</time></trkpt><trkpt lat="55.7420154" lon="48.7388364"><time>2021-10-23T14:26:50.173</time></trkpt><trkpt lat="55.7419663" lon="48.7388145"><time>2021-10-23T14:27:06.193</time></trkpt><trkpt lat="55.7419262" lon="48.7387738"><time>2021-10-23T14:27:09.170</time></trkpt><trkpt lat="55.7418857" lon="48.7387162"><time>2021-10-23T14:27:14.210</time></trkpt><trkpt lat="55.7418450" lon="48.7386694"><time>2021-10-23T14:27:18.210</time></trkpt><trkpt lat="55.7417994" lon="48.7386105"><time>2021-10-23T14:27:23.217</time></trkpt><trkpt lat="55.7417670" lon="48.7385506"><time>2021-10-23T14:27:27.190</time></trkpt><trkpt lat="55.7417332" lon="48.7384697"><time>2021-10-23T14:27:31.187</time></trkpt><trkpt lat="55.7416943" lon="48.7383877"><time>2021-10-23T14:27:35.190</time></trkpt><trkpt lat="55.7416533" lon="48.7383258"><time>2021-10-23T14:27:39.217</time></trkpt><trkpt lat="55.7416184" lon="48.7382593"><time>2021-10-23T14:27:43.210</time></trkpt><trkpt lat="55.7415781" lon="48.7381907"><time>2021-10-23T14:27:47.193</time></trkpt><trkpt lat="55.7415375" lon="48.7381289"><time>2021-10-23T14:27:51.190</time></trkpt><trkpt lat="55.7415044" lon="48.7380713"><time>2021-10-23T14:27:54.173</time></trkpt><trkpt lat="55.7414751" lon="48.7380094"><time>2021-10-23T14:27:57.170</time></trkpt><trkpt lat="55.7414469" lon="48.7379334"><time>2021-10-23T14:28:01.193</time></trkpt><trkpt lat="55.7414162" lon="48.7378423"><time>2021-10-23T14:28:05.190</time></trkpt><trkpt lat="55.7413899" lon="48.7377705"><time>2021-10-23T14:28:08.200</time></trkpt><trkpt lat="55.7413597" lon="48.7376979"><time>2021-10-23T14:28:11.193</time></trkpt><trkpt lat="55.7413293" lon="48.7376235"><time>2021-10-23T14:28:14.197</time></trkpt><trkpt lat="55.7412981" lon="48.7375434"><time>2021-10-23T14:28:17.180</time></trkpt><trkpt lat="55.7412573" lon="48.7374858"><time>2021-10-23T14:28:20.193</time></trkpt><trkpt lat="55.7412302" lon="48.7374093"><time>2021-10-23T14:28:24.173</time></trkpt><trkpt lat="55.7411843" lon="48.7374481"><time>2021-10-23T14:28:30.177</time></trkpt><trkpt lat="55.7411685" lon="48.7375412"><time>2021-10-23T14:28:34.173</time></trkpt><trkpt lat="55.7411214" lon="48.7375286"><time>2021-10-23T14:28:39.193</time></trkpt><trkpt lat="55.7411010" lon="48.7374448"><time>2021-10-23T14:28:43.167</time></trkpt><trkpt lat="55.7410998" lon="48.7373587"><time>2021-10-23T14:28:47.190</time></trkpt><trkpt lat="55.7410999" lon="48.7372775"><time>2021-10-23T14:28:51.210</time></trkpt><trkpt lat="55.7410681" lon="48.7372151"><time>2021-10-23T14:28:55.213</time></trkpt><trkpt lat="55.7410199" lon="48.7372166"><time>2021-10-23T14:28:58.203</time></trkpt><trkpt lat="55.7409770" lon="48.7372494"><time>2021-10-23T14:29:01.220</time></trkpt><trkpt lat="55.7409585" lon="48.7373284"><time>2021-10-23T14:29:05.197</time></trkpt><trkpt lat="55.7409813" lon="48.7374006"><time>2021-10-23T14:29:08.193</time></trkpt><trkpt lat="55.7410042" lon="48.7374780"><time>2021-10-23T14:29:12.197</time></trkpt><trkpt lat="55.7410050" lon="48.7375724"><time>2021-10-23T14:29:17.203</time></trkpt><trkpt lat="55.7410397" lon="48.7376257"><time>2021-10-23T14:29:21.213</time></trkpt><trkpt lat="55.7410611" lon="48.7377001"><time>2021-10-23T14:29:25.197</time></trkpt><trkpt lat="55.7410227" lon="48.7377528"><time>2021-10-23T14:29:30.180</time></trkpt><trkpt lat="55.7410726" lon="48.7377160"><time>2021-10-23T14:29:36.187</time></trkpt><trkpt lat="55.7411196" lon="48.7376708"><time>2021-10-23T14:29:40.187</time></trkpt><trkpt lat="55.7411626" lon="48.7376108"><time>2021-10-23T14:29:44.190</time></trkpt><trkpt lat="55.7412035" lon="48.7375655"><time>2021-10-23T14:29:47.187</time></trkpt><trkpt lat="55.7412533" lon="48.7375212"><time>2021-10-23T14:29:51.190</time></trkpt><trkpt lat="55.7413014" lon="48.7374770"><time>2021-10-23T14:29:55.193</time></trkpt><trkpt lat="55.7413448" lon="48.7374457"><time>2021-10-23T14:30:01.200</time></trkpt><trkpt lat="55.7413613" lon="48.7373623"><time>2021-10-23T14:30:10.183</time></trkpt><trkpt lat="55.7414099" lon="48.7373464"><time>2021-10-23T14:30:14.197</time></trkpt><trkpt lat="55.7413945" lon="48.7374231"><time>2021-10-23T14:30:28.200</time></trkpt><trkpt lat="55.7413525" lon="48.7374626"><time>2021-10-23T14:30:32.183</time></trkpt><trkpt lat="55.7413173" lon="48.7375227"><time>2021-10-23T14:30:44.207</time></trkpt><trkpt lat="55.7412641" lon="48.7375222"><time>2021-10-23T14:30:48.197</time></trkpt><trkpt lat="55.7412297" lon="48.7374689"><time>2021-10-23T14:31:00.203</time></trkpt><trkpt lat="55.7412260" lon="48.7373756"><time>2021-10-23T14:31:06.180</time></trkpt><trkpt lat="55.7412337" lon="48.7372868"><time>2021-10-23T14:31:12.193</time></trkpt><trkpt lat="55.7412169" lon="48.7373609"><time>2021-10-23T14:31:26.207</time></trkpt><trkpt lat="55.7412210" lon="48.7374458"><time>2021-10-23T14:31:32.193</time></trkpt><trkpt lat="55.7412305" lon="48.7373625"><time>2021-10-23T14:31:45.187</time></trkpt><trkpt lat="55.7412494" lon="48.7372840"><time>2021-10-23T14:31:51.203</time></trkpt><trkpt lat="55.7412075" lon="48.7372272"><time>2021-10-23T14:31:59.217</time></trkpt><trkpt lat="55.7411627" lon="48.7371907"><time>2021-10-23T14:32:05.197</time></trkpt><trkpt lat="55.7411492" lon="48.7372684"><time>2021-10-23T14:32:10.180</time></trkpt><trkpt lat="55.7411061" lon="48.7372918"><time>2021-10-23T14:32:21.207</time></trkpt><trkpt lat="55.7410659" lon="48.7373402"><time>2021-10-23T14:32:27.180</time></trkpt><trkpt lat="55.7410237" lon="48.7374066"><time>2021-10-23T14:32:32.183</time></trkpt><trkpt lat="55.7409906" lon="48.7374800"><time>2021-10-23T14:32:36.183</time></trkpt><trkpt lat="55.7409468" lon="48.7374302"><time>2021-10-23T14:32:45.210</time></trkpt><trkpt lat="55.7408947" lon="48.7374497"><time>2021-10-23T14:32:51.217</time></trkpt><trkpt lat="55.7408729" lon="48.7375330"><time>2021-10-23T14:32:56.187</time></trkpt><trkpt lat="55.7408550" lon="48.7376193"><time>2021-10-23T14:33:02.187</time></trkpt><trkpt lat="55.7408419" lon="48.7376992"><time>2021-10-23T14:33:07.203</time></trkpt><trkpt lat="55.7408103" lon="48.7377599"><time>2021-10-23T14:33:11.173</time></trkpt><trkpt lat="55.7407739" lon="48.7378176"><time>2021-10-23T14:33:15.193</time></trkpt><trkpt lat="55.7407384" lon="48.7378847"><time>2021-10-23T14:33:19.190</time></trkpt><trkpt lat="55.7407114" lon="48.7379710"><time>2021-10-23T14:33:23.213</time></trkpt><trkpt lat="55.7406995" lon="48.7380557"><time>2021-10-23T14:33:27.247</time></trkpt><trkpt lat="55.7406833" lon="48.7381437"><time>2021-10-23T14:33:31.200</time></trkpt><trkpt lat="55.7406419" lon="48.7381893"><time>2021-10-23T14:33:36.177</time></trkpt><trkpt lat="55.7405951" lon="48.7381893"><time>2021-10-23T14:33:40.197</time></trkpt><trkpt lat="55.7405463" lon="48.7381810"><time>2021-10-23T14:33:45.190</time></trkpt><trkpt lat="55.7405798" lon="48.7382566"><time>2021-10-23T14:33:51.197</time></trkpt><trkpt lat="55.7406165" lon="48.7383041"><time>2021-10-23T14:33:55.193</time></trkpt><trkpt lat="55.7405870" lon="48.7383769"><time>2021-10-23T14:34:01.173</time></trkpt><trkpt lat="55.7405580" lon="48.7384537"><time>2021-10-23T14:34:07.183</time></trkpt><trkpt lat="55.7405806" lon="48.7385300"><time>2021-10-23T14:34:13.187</time></trkpt><trkpt lat="55.7405781" lon="48.7386251"><time>2021-10-23T14:34:21.197</time></trkpt><trkpt lat="55.7406227" lon="48.7386720"><time>2021-10-23T14:34:25.193</time></trkpt><trkpt lat="55.7406305" lon="48.7386997"><time>2021-10-23T14:34:27.347</time></trkpt><trkpt lat="55.7406557" lon="48.7387293"><time>2021-10-23T14:34:32.187</time></trkpt><trkpt lat="55.7406977" lon="48.7387789"><time>2021-10-23T14:34:38.180</time></trkpt><trkpt lat="55.7407440" lon="48.7387930"><time>2021-10-23T14:34:46.197</time></trkpt><trkpt lat="55.7406966" lon="48.7387718"><time>2021-10-23T14:35:01.210</time></trkpt><trkpt lat="55.7406589" lon="48.7387141"><time>2021-10-23T14:35:06.170</time></trkpt><trkpt lat="55.7406275" lon="48.7387744"><time>2021-10-23T14:35:15.193</time></trkpt><trkpt lat="55.7405801" lon="48.7387938"><time>2021-10-23T14:35:20.193</time></trkpt><trkpt lat="55.7405277" lon="48.7387643"><time>2021-10-23T14:35:25.207</time></trkpt><trkpt lat="55.7404720" lon="48.7387848"><time>2021-10-23T14:35:30.197</time></trkpt><trkpt lat="55.7404177" lon="48.7388059"><time>2021-10-23T14:35:34.183</time></trkpt><trkpt lat="55.7403691" lon="48.7388180"><time>2021-10-23T14:35:37.187</time></trkpt><trkpt lat="55.7403250" lon="48.7387959"><time>2021-10-23T14:35:40.197</time></trkpt><trkpt lat="55.7402754" lon="48.7387522"><time>2021-10-23T14:35:44.203</time></trkpt><trkpt lat="55.7402281" lon="48.7387145"><time>2021-10-23T14:35:48.190</time></trkpt><trkpt lat="55.7401909" lon="48.7386605"><time>2021-10-23T14:35:52.200</time></trkpt><trkpt lat="55.7401533" lon="48.7386023"><time>2021-10-23T14:35:56.170</time></trkpt><trkpt lat="55.7401092" lon="48.7385461"><time>2021-10-23T14:36:00.170</time></trkpt><trkpt lat="55.7400710" lon="48.7384932"><time>2021-10-23T14:36:04.177</time></trkpt><trkpt lat="55.7400548" lon="48.7384100"><time>2021-10-23T14:36:14.137</time></trkpt><trkpt lat="55.7400265" lon="48.7383463"><time>2021-10-23T14:36:17.177</time></trkpt><trkpt lat="55.7399902" lon="48.7382769"><time>2021-10-23T14:36:26.180</time></trkpt><trkpt lat="55.7399464" lon="48.7382201"><time>2021-10-23T14:36:31.207</time></trkpt><trkpt lat="55.7399148" lon="48.7381582"><time>2021-10-23T14:36:35.207</time></trkpt><trkpt lat="55.7398850" lon="48.7380889"><time>2021-10-23T14:36:39.177</time></trkpt><trkpt lat="55.7398527" lon="48.7380273"><time>2021-10-23T14:36:43.200</time></trkpt><trkpt lat="55.7398296" lon="48.7379514"><time>2021-10-23T14:36:48.203</time></trkpt><trkpt lat="55.7397975" lon="48.7378877"><time>2021-10-23T14:36:59.203</time></trkpt><trkpt lat="55.7397744" lon="48.7378145"><time>2021-10-23T14:37:04.190</time></trkpt><trkpt lat="55.7397415" lon="48.7377445"><time>2021-10-23T14:37:09.190</time></trkpt><trkpt lat="55.7397012" lon="48.7376913"><time>2021-10-23T14:37:13.183</time></trkpt><trkpt lat="55.7396657" lon="48.7376420"><time>2021-10-23T14:37:17.280</time></trkpt><trkpt lat="55.7396257" lon="48.7375756"><time>2021-10-23T14:37:22.300</time></trkpt><trkpt lat="55.7395796" lon="48.7375361"><time>2021-10-23T14:37:27.313</time></trkpt><trkpt lat="55.7395613" lon="48.7374436"><time>2021-10-23T14:37:34.300</time></trkpt><trkpt lat="55.7395194" lon="48.7373897"><time>2021-10-23T14:37:39.280</time></trkpt><trkpt lat="55.7394800" lon="48.7373423"><time>2021-10-23T14:37:44.327</time></trkpt><trkpt lat="55.7394375" lon="48.7373150"><time>2021-10-23T14:37:49.173</time></trkpt><trkpt lat="55.7393813" lon="48.7373031"><time>2021-10-23T14:37:53.320</time></trkpt><trkpt lat="55.7393393" lon="48.7372552"><time>2021-10-23T14:37:58.187</time></trkpt><trkpt lat="55.7392910" lon="48.7372539"><time>2021-10-23T14:38:04.187</time></trkpt><trkpt lat="55.7392363" lon="48.7372642"><time>2021-10-23T14:38:10.330</time></trkpt><trkpt lat="55.7391875" lon="48.7372915"><time>2021-10-23T14:38:15.337</time></trkpt><trkpt lat="55.7391363" lon="48.7372876"><time>2021-10-23T14:38:21.320</time></trkpt><trkpt lat="55.7390842" lon="48.7372858"><time>2021-10-23T14:38:26.263</time></trkpt><trkpt lat="55.7390357" lon="48.7372862"><time>2021-10-23T14:38:31.187</time></trkpt><trkpt lat="55.7389902" lon="48.7372860"><time>2021-10-23T14:38:36.323</time></trkpt><trkpt lat="55.7389410" lon="48.7372878"><time>2021-10-23T14:38:40.183</time></trkpt><trkpt lat="55.7388955" lon="48.7372790"><time>2021-10-23T14:38:45.190</time></trkpt><trkpt lat="55.7388481" lon="48.7372684"><time>2021-10-23T14:38:50.347</time></trkpt><trkpt lat="55.7388026" lon="48.7372607"><time>2021-10-23T14:38:54.347</time></trkpt><trkpt lat="55.7387566" lon="48.7372686"><time>2021-10-23T14:38:59.320</time></trkpt><trkpt lat="55.7387074" lon="48.7372768"><time>2021-10-23T14:39:04.330</time></trkpt><trkpt lat="55.7386579" lon="48.7372937"><time>2021-10-23T14:39:08.180</time></trkpt><trkpt lat="55.7386090" lon="48.7372712"><time>2021-10-23T14:39:12.327</time></trkpt><trkpt lat="55.7385616" lon="48.7372746"><time>2021-10-23T14:39:16.390</time></trkpt><trkpt lat="55.7385138" lon="48.7372891"><time>2021-10-23T14:41:09.167</time></trkpt><trkpt lat="55.7384697" lon="48.7373233"><time>2021-10-23T14:41:14.200</time></trkpt><trkpt lat="55.7384232" lon="48.7373185"><time>2021-10-23T14:41:19.197</time></trkpt><trkpt lat="55.7383714" lon="48.7373121"><time>2021-10-23T14:41:23.180</time></trkpt><trkpt lat="55.7383342" lon="48.7373696"><time>2021-10-23T14:41:40.187</time></trkpt><trkpt lat="55.7382905" lon="48.7373975"><time>2021-10-23T14:41:44.347</time></trkpt><trkpt lat="55.7382364" lon="48.7374024"><time>2021-10-23T14:41:49.333</time></trkpt><trkpt lat="55.7381851" lon="48.7374268"><time>2021-10-23T14:41:54.320</time></trkpt><trkpt lat="55.7381370" lon="48.7374533"><time>2021-10-23T14:41:59.173</time></trkpt><trkpt lat="55.7380915" lon="48.7374454"><time>2021-10-23T14:42:04.187</time></trkpt><trkpt lat="55.7380454" lon="48.7374652"><time>2021-10-23T14:42:09.187</time></trkpt><trkpt lat="55.7380010" lon="48.7375161"><time>2021-10-23T14:42:14.260</time></trkpt><trkpt lat="55.7379583" lon="48.7375412"><time>2021-10-23T14:42:21.277</time></trkpt><trkpt lat="55.7379964" lon="48.7376027"><time>2021-10-23T14:43:45.180</time></trkpt><trkpt lat="55.7379580" lon="48.7375612"><time>2021-10-23T14:43:47.333</time></trkpt><trkpt lat="55.7379435" lon="48.7376502"><time>2021-10-23T14:46:05.187</time></trkpt><trkpt lat="55.7379358" lon="48.7377429"><time>2021-10-23T14:46:10.200</time></trkpt><trkpt lat="55.7379187" lon="48.7378235"><time>2021-10-23T14:46:14.207</time></trkpt><trkpt lat="55.7379003" lon="48.7379121"><time>2021-10-23T14:46:19.373</time></trkpt><trkpt lat="55.7378849" lon="48.7379894"><time>2021-10-23T14:46:24.187</time></trkpt><trkpt lat="55.7378694" lon="48.7380644"><time>2021-10-23T14:46:28.347</time></trkpt><trkpt lat="55.7378750" lon="48.7381441"><time>2021-10-23T14:46:32.193</time></trkpt><trkpt lat="55.7379021" lon="48.7382199"><time>2021-10-23T14:47:14.197</time></trkpt><trkpt lat="55.7379257" lon="48.7383051"><time>2021-10-23T14:47:20.180</time></trkpt><trkpt lat="55.7379506" lon="48.7383739"><time>2021-10-23T14:47:25.173</time></trkpt><trkpt lat="55.7379692" lon="48.7384550"><time>2021-10-23T14:47:30.190</time></trkpt><trkpt lat="55.7379787" lon="48.7385528"><time>2021-10-23T14:47:35.180</time></trkpt><trkpt lat="55.7379845" lon="48.7386327"><time>2021-10-23T14:47:39.180</time></trkpt><trkpt lat="55.7380024" lon="48.7387176"><time>2021-10-23T14:47:46.180</time></trkpt><trkpt lat="55.7380056" lon="48.7388102"><time>2021-10-23T14:47:51.210</time></trkpt><trkpt lat="55.7380039" lon="48.7388958"><time>2021-10-23T14:47:55.253</time></trkpt><trkpt lat="55.7379958" lon="48.7389760"><time>2021-10-23T14:48:00.390</time></trkpt><trkpt lat="55.7379979" lon="48.7390628"><time>2021-10-23T14:48:06.180</time></trkpt><trkpt lat="55.7380086" lon="48.7391498"><time>2021-10-23T14:48:12.207</time></trkpt><trkpt lat="55.7380093" lon="48.7392330"><time>2021-10-23T14:48:18.207</time></trkpt><trkpt lat="55.7380164" lon="48.7393235"><time>2021-10-23T14:48:24.213</time></trkpt><trkpt lat="55.7380303" lon="48.7394143"><time>2021-10-23T14:48:30.187</time></trkpt><trkpt lat="55.7380262" lon="48.7394962"><time>2021-10-23T14:48:35.183</time></trkpt><trkpt lat="55.7380248" lon="48.7395841"><time>2021-10-23T14:48:40.190</time></trkpt><trkpt lat="55.7380047" lon="48.7396746"><time>2021-10-23T14:50:41.197</time></trkpt><trkpt lat="55.7380057" lon="48.7397609"><time>2021-10-23T14:50:46.187</time></trkpt><trkpt lat="55.7380251" lon="48.7398412"><time>2021-10-23T14:50:51.180</time></trkpt><trkpt lat="55.7379879" lon="48.7398887"><time>2021-10-23T14:50:57.317</time></trkpt><trkpt lat="55.7379327" lon="48.7399255"><time>2021-10-23T14:51:01.200</time></trkpt><trkpt lat="55.7379208" lon="48.7400052"><time>2021-10-23T14:51:05.197</time></trkpt><trkpt lat="55.7379257" lon="48.7400937"><time>2021-10-23T14:51:09.197</time></trkpt><trkpt lat="55.7379332" lon="48.7401743"><time>2021-10-23T14:51:13.177</time></trkpt><trkpt lat="55.7379331" lon="48.7402699"><time>2021-10-23T14:51:17.190</time></trkpt><trkpt lat="55.7379289" lon="48.7403623"><time>2021-10-23T14:51:21.370</time></trkpt><trkpt lat="55.7379300" lon="48.7404493"><time>2021-10-23T14:51:25.437</time></trkpt><trkpt lat="55.7379185" lon="48.7405445"><time>2021-10-23T14:51:29.187</time></trkpt><trkpt lat="55.7379206" lon="48.7406383"><time>2021-10-23T14:51:33.187</time></trkpt><trkpt lat="55.7379218" lon="48.7407276"><time>2021-10-23T14:51:37.187</time></trkpt><trkpt lat="55.7379188" lon="48.7408180"><time>2021-10-23T14:51:41.350</time></trkpt><trkpt lat="55.7379129" lon="48.7409087"><time>2021-10-23T14:51:45.187</time></trkpt><trkpt lat="55.7379174" lon="48.7410123"><time>2021-10-23T14:51:49.190</time></trkpt><trkpt lat="55.7379180" lon="48.7411096"><time>2021-10-23T14:51:53.187</time></trkpt><trkpt lat="55.7379110" lon="48.7412114"><time>2021-10-23T14:51:57.187</time></trkpt><trkpt lat="55.7379103" lon="48.7412988"><time>2021-10-23T14:52:01.187</time></trkpt><trkpt lat="55.7379123" lon="48.7413789"><time>2021-10-23T14:52:05.357</time></trkpt><trkpt lat="55.7379151" lon="48.7414651"><time>2021-10-23T14:52:09.277</time></trkpt><trkpt lat="55.7379114" lon="48.7415581"><time>2021-10-23T14:52:13.193</time></trkpt><trkpt lat="55.7379156" lon="48.7416476"><time>2021-10-23T14:52:17.193</time></trkpt><trkpt lat="55.7379142" lon="48.7417346"><time>2021-10-23T14:52:21.190</time></trkpt><trkpt lat="55.7379225" lon="48.7418213"><time>2021-10-23T14:52:25.190</time></trkpt><trkpt lat="55.7379126" lon="48.7419023"><time>2021-10-23T14:52:31.330</time></trkpt><trkpt lat="55.7378939" lon="48.7419812"><time>2021-10-23T14:52:35.323</time></trkpt><trkpt lat="55.7378989" lon="48.7420789"><time>2021-10-23T14:52:40.173</time></trkpt><trkpt lat="55.7379139" lon="48.7421780"><time>2021-10-23T14:52:45.197</time></trkpt><trkpt lat="55.7379161" lon="48.7422699"><time>2021-10-23T14:52:49.180</time></trkpt><trkpt lat="55.7379186" lon="48.7423656"><time>2021-10-23T14:52:54.330</time></trkpt><trkpt lat="55.7379172" lon="48.7424611"><time>2021-10-23T14:52:59.193</time></trkpt><trkpt lat="55.7379240" lon="48.7425401"><time>2021-10-23T14:53:03.510</time></trkpt><trkpt lat="55.7379287" lon="48.7426269"><time>2021-10-23T14:53:07.197</time></trkpt><trkpt lat="55.7379216" lon="48.7427115"><time>2021-10-23T14:53:11.193</time></trkpt><trkpt lat="55.7379246" lon="48.7428059"><time>2021-10-23T14:53:16.200</time></trkpt><trkpt lat="55.7379221" lon="48.7428939"><time>2021-10-23T14:53:21.187</time></trkpt><trkpt lat="55.7379378" lon="48.7429762"><time>2021-10-23T14:53:26.177</time></trkpt><trkpt lat="55.7379413" lon="48.7430751"><time>2021-10-23T14:53:31.190</time></trkpt><trkpt lat="55.7379381" lon="48.7431622"><time>2021-10-23T14:53:35.373</time></trkpt><trkpt lat="55.7379407" lon="48.7432489"><time>2021-10-23T14:53:39.340</time></trkpt><trkpt lat="55.7379349" lon="48.7433530"><time>2021-10-23T14:53:43.177</time></trkpt><trkpt lat="55.7379297" lon="48.7434532"><time>2021-10-23T14:53:47.193</time></trkpt><trkpt lat="55.7379263" lon="48.7435415"><time>2021-10-23T14:53:51.193</time></trkpt><trkpt lat="55.7379272" lon="48.7436284"><time>2021-10-23T14:53:56.183</time></trkpt><trkpt lat="55.7379220" lon="48.7437131"><time>2021-10-23T14:54:02.200</time></trkpt><trkpt lat="55.7378871" lon="48.7437797"><time>2021-10-23T14:54:08.190</time></trkpt><trkpt lat="55.7378988" lon="48.7438583"><time>2021-10-23T14:54:18.180</time></trkpt><trkpt lat="55.7378962" lon="48.7439462"><time>2021-10-23T14:54:22.183</time></trkpt><trkpt lat="55.7379008" lon="48.7440426"><time>2021-10-23T14:54:36.190</time></trkpt><trkpt lat="55.7379060" lon="48.7441322"><time>2021-10-23T14:54:40.193</time></trkpt><trkpt lat="55.7379055" lon="48.7442245"><time>2021-10-23T14:54:44.193</time></trkpt><trkpt lat="55.7379091" lon="48.7443108"><time>2021-10-23T14:54:48.180</time></trkpt><trkpt lat="55.7379160" lon="48.7443933"><time>2021-10-23T14:54:53.203</time></trkpt><trkpt lat="55.7378980" lon="48.7444734"><time>2021-10-23T14:55:09.197</time></trkpt><trkpt lat="55.7378512" lon="48.7444660"><time>2021-10-23T14:55:20.190</time></trkpt><trkpt lat="55.7378046" lon="48.7444829"><time>2021-10-23T14:55:33.193</time></trkpt><trkpt lat="55.7377593" lon="48.7445176"><time>2021-10-23T14:55:38.193</time></trkpt><trkpt lat="55.7377158" lon="48.7445490"><time>2021-10-23T14:55:43.207</time></trkpt><trkpt lat="55.7376681" lon="48.7445535"><time>2021-10-23T14:55:48.173</time></trkpt><trkpt lat="55.7376306" lon="48.7445988"><time>2021-10-23T14:55:55.203</time></trkpt><trkpt lat="55.7375850" lon="48.7445718"><time>2021-10-23T14:56:10.153</time></trkpt><trkpt lat="55.7375490" lon="48.7446285"><time>2021-10-23T14:56:34.173</time></trkpt><trkpt lat="55.7375148" lon="48.7446806"><time>2021-10-23T14:56:41.173</time></trkpt><trkpt lat="55.7374648" lon="48.7446924"><time>2021-10-23T14:56:47.183</time></trkpt><trkpt lat="55.7374236" lon="48.7447263"><time>2021-10-23T14:56:54.213</time></trkpt><trkpt lat="55.7373908" lon="48.7447848"><time>2021-10-23T14:57:00.187</time></trkpt><trkpt lat="55.7373543" lon="48.7448369"><time>2021-10-23T14:57:07.187</time></trkpt><trkpt lat="55.7373106" lon="48.7448800"><time>2021-10-23T14:57:13.187</time></trkpt><trkpt lat="55.7372663" lon="48.7449025"><time>2021-10-23T14:57:18.190</time></trkpt><trkpt lat="55.7372202" lon="48.7449269"><time>2021-10-23T14:57:23.173</time></trkpt><trkpt lat="55.7371730" lon="48.7449366"><time>2021-10-23T14:57:29.187</time></trkpt><trkpt lat="55.7371330" lon="48.7448838"><time>2021-10-23T14:57:46.170</time></trkpt><trkpt lat="55.7370920" lon="48.7448472"><time>2021-10-23T14:57:52.177</time></trkpt><trkpt lat="55.7370382" lon="48.7448323"><time>2021-10-23T14:57:58.180</time></trkpt><trkpt lat="55.7369877" lon="48.7448353"><time>2021-10-23T14:58:02.193</time></trkpt><trkpt lat="55.7369637" lon="48.7449031"><time>2021-10-23T14:58:08.180</time></trkpt><trkpt lat="55.7369252" lon="48.7449567"><time>2021-10-23T14:58:14.203</time></trkpt><trkpt lat="55.7368863" lon="48.7450065"><time>2021-10-23T14:58:18.193</time></trkpt><trkpt lat="55.7368376" lon="48.7449970"><time>2021-10-23T14:58:23.187</time></trkpt><trkpt lat="55.7367924" lon="48.7449653"><time>2021-10-23T14:58:31.173</time></trkpt><trkpt lat="55.7367429" lon="48.7449631"><time>2021-10-23T14:58:40.197</time></trkpt><trkpt lat="55.7366987" lon="48.7449839"><time>2021-10-23T14:58:48.197</time></trkpt><trkpt lat="55.7366541" lon="48.7449575"><time>2021-10-23T14:58:55.177</time></trkpt><trkpt lat="55.7366204" lon="48.7450204"><time>2021-10-23T14:59:03.180</time></trkpt><trkpt lat="55.7365753" lon="48.7450076"><time>2021-10-23T14:59:11.170</time></trkpt><trkpt lat="55.7365372" lon="48.7450598"><time>2021-10-23T14:59:19.183</time></trkpt><trkpt lat="55.7365049" lon="48.7451184"><time>2021-10-23T14:59:27.180</time></trkpt><trkpt lat="55.7364636" lon="48.7451740"><time>2021-10-23T14:59:36.207</time></trkpt><trkpt lat="55.7364244" lon="48.7452218"><time>2021-10-23T14:59:43.187</time></trkpt><trkpt lat="55.7363895" lon="48.7452754"><time>2021-10-23T14:59:49.180</time></trkpt><trkpt lat="55.7363431" lon="48.7452728"><time>2021-10-23T14:59:59.187</time></trkpt><trkpt lat="55.7362955" lon="48.7453021"><time>2021-10-23T15:00:15.183</time></trkpt><trkpt lat="55.7362560" lon="48.7453452"><time>2021-10-23T15:00:25.187</time></trkpt><trkpt lat="55.7362177" lon="48.7453874"><time>2021-10-23T15:00:43.190</time></trkpt><trkpt lat="55.7361734" lon="48.7453662"><time>2021-10-23T15:00:52.177</time></trkpt><trkpt lat="55.7361280" lon="48.7453438"><time>2021-10-23T15:00:59.167</time></trkpt><trkpt lat="55.7360793" lon="48.7453356"><time>2021-10-23T15:01:05.177</time></trkpt><trkpt lat="55.7360521" lon="48.7452473"><time>2021-10-23T15:01:17.197</time></trkpt><trkpt lat="55.7360060" lon="48.7452373"><time>2021-10-23T15:01:26.190</time></trkpt><trkpt lat="55.7359537" lon="48.7452302"><time>2021-10-23T15:01:33.210</time></trkpt><trkpt lat="55.7359062" lon="48.7452354"><time>2021-10-23T15:01:37.187</time></trkpt><trkpt lat="55.7359247" lon="48.7453197"><time>2021-10-23T15:02:02.187</time></trkpt><trkpt lat="55.7359694" lon="48.7453036"><time>2021-10-23T15:02:29.193</time></trkpt><trkpt lat="55.7360009" lon="48.7452384"><time>2021-10-23T15:03:15.187</time></trkpt><trkpt lat="55.7359599" lon="48.7451975"><time>2021-10-23T15:03:30.183</time></trkpt><trkpt lat="55.7359323" lon="48.7451340"><time>2021-10-23T15:04:02.190</time></trkpt><trkpt lat="55.7358849" lon="48.7451241"><time>2021-10-23T15:04:09.187</time></trkpt><trkpt lat="55.7358413" lon="48.7450752"><time>2021-10-23T15:04:24.190</time></trkpt><trkpt lat="55.7357952" lon="48.7450922"><time>2021-10-23T15:04:29.287</time></trkpt><trkpt lat="55.7357543" lon="48.7450526"><time>2021-10-23T15:04:38.337</time></trkpt><trkpt lat="55.7357846" lon="48.7451116"><time>2021-10-23T15:04:51.363</time></trkpt><trkpt lat="55.7357511" lon="48.7450426"><time>2021-10-23T15:05:16.187</time></trkpt><trkpt lat="55.7357040" lon="48.7450375"><time>2021-10-23T15:05:21.187</time></trkpt><trkpt lat="55.7356566" lon="48.7450423"><time>2021-10-23T15:05:27.200</time></trkpt><trkpt lat="55.7356082" lon="48.7450394"><time>2021-10-23T15:05:35.227</time></trkpt><trkpt lat="55.7355669" lon="48.7450790"><time>2021-10-23T15:05:40.187</time></trkpt><trkpt lat="55.7355230" lon="48.7451086"><time>2021-10-23T15:05:46.173</time></trkpt><trkpt lat="55.7354790" lon="48.7451298"><time>2021-10-23T15:05:52.190</time></trkpt><trkpt lat="55.7354358" lon="48.7451768"><time>2021-10-23T15:05:57.177</time></trkpt><trkpt lat="55.7354203" lon="48.7452588"><time>2021-10-23T15:06:03.193</time></trkpt><trkpt lat="55.7353806" lon="48.7452963"><time>2021-10-23T15:06:09.180</time></trkpt><trkpt lat="55.7353528" lon="48.7453761"><time>2021-10-23T15:06:17.187</time></trkpt><trkpt lat="55.7353299" lon="48.7454498"><time>2021-10-23T15:06:24.173</time></trkpt><trkpt lat="55.7352941" lon="48.7455145"><time>2021-10-23T15:06:30.203</time></trkpt><trkpt lat="55.7352561" lon="48.7455642"><time>2021-10-23T15:06:36.187</time></trkpt><trkpt lat="55.7352188" lon="48.7456219"><time>2021-10-23T15:06:42.183</time></trkpt><trkpt lat="55.7352528" lon="48.7456798"><time>2021-10-23T15:06:57.183</time></trkpt><trkpt lat="55.7352083" lon="48.7456920"><time>2021-10-23T15:07:37.170</time></trkpt><trkpt lat="55.7351700" lon="48.7457402"><time>2021-10-23T15:08:27.203</time></trkpt><trkpt lat="55.7351268" lon="48.7457646"><time>2021-10-23T15:08:37.207</time></trkpt><trkpt lat="55.7350928" lon="48.7458177"><time>2021-10-23T15:08:43.200</time></trkpt><trkpt lat="55.7350570" lon="48.7458773"><time>2021-10-23T15:08:49.197</time></trkpt><trkpt lat="55.7350491" lon="48.7459657"><time>2021-10-23T15:08:59.207</time></trkpt><trkpt lat="55.7350297" lon="48.7460376"><time>2021-10-23T15:09:12.187</time></trkpt><trkpt lat="55.7350020" lon="48.7461062"><time>2021-10-23T15:09:49.177</time></trkpt><trkpt lat="55.7349631" lon="48.7461521"><time>2021-10-23T15:09:55.197</time></trkpt><trkpt lat="55.7349203" lon="48.7461860"><time>2021-10-23T15:10:00.193</time></trkpt><trkpt lat="55.7349162" lon="48.7462682"><time>2021-10-23T15:10:11.207</time></trkpt><trkpt lat="55.7349370" lon="48.7463468"><time>2021-10-23T15:10:18.193</time></trkpt><trkpt lat="55.7349692" lon="48.7464181"><time>2021-10-23T15:10:23.210</time></trkpt><trkpt lat="55.7350131" lon="48.7464478"><time>2021-10-23T15:10:29.203</time></trkpt><trkpt lat="55.7350057" lon="48.7465368"><time>2021-10-23T15:10:40.193</time></trkpt><trkpt lat="55.7350366" lon="48.7466022"><time>2021-10-23T15:11:00.223</time></trkpt><trkpt lat="55.7350222" lon="48.7466849"><time>2021-10-23T15:11:05.203</time></trkpt><trkpt lat="55.7349910" lon="48.7467484"><time>2021-10-23T15:11:13.187</time></trkpt><trkpt lat="55.7349591" lon="48.7468205"><time>2021-10-23T15:11:20.213</time></trkpt><trkpt lat="55.7349484" lon="48.7469160"><time>2021-10-23T15:11:25.213</time></trkpt><trkpt lat="55.7349455" lon="48.7469977"><time>2021-10-23T15:11:39.187</time></trkpt><trkpt lat="55.7349440" lon="48.7470799"><time>2021-10-23T15:11:46.183</time></trkpt><trkpt lat="55.7349883" lon="48.7471202"><time>2021-10-23T15:11:54.210</time></trkpt><trkpt lat="55.7350343" lon="48.7471198"><time>2021-10-23T15:12:01.187</time></trkpt><trkpt lat="55.7350047" lon="48.7471809"><time>2021-10-23T15:12:12.210</time></trkpt><trkpt lat="55.7349723" lon="48.7472375"><time>2021-10-23T15:12:34.203</time></trkpt><trkpt lat="55.7349982" lon="48.7473132"><time>2021-10-23T15:12:45.190</time></trkpt><trkpt lat="55.7349934" lon="48.7473930"><time>2021-10-23T15:12:55.200</time></trkpt><trkpt lat="55.7349499" lon="48.7474385"><time>2021-10-23T15:14:59.203</time></trkpt><trkpt lat="55.7349041" lon="48.7474788"><time>2021-10-23T15:15:18.200</time></trkpt><trkpt lat="55.7348757" lon="48.7475456"><time>2021-10-23T15:15:42.193</time></trkpt><trkpt lat="55.7348478" lon="48.7476116"><time>2021-10-23T15:15:47.213</time></trkpt><trkpt lat="55.7348174" lon="48.7476792"><time>2021-10-23T15:15:53.210</time></trkpt><trkpt lat="55.7347940" lon="48.7477569"><time>2021-10-23T15:15:59.197</time></trkpt><trkpt lat="55.7347696" lon="48.7478297"><time>2021-10-23T15:16:06.187</time></trkpt><trkpt lat="55.7347413" lon="48.7479038"><time>2021-10-23T15:16:12.203</time></trkpt><trkpt lat="55.7347355" lon="48.7479926"><time>2021-10-23T15:16:18.237</time></trkpt><trkpt lat="55.7346986" lon="48.7480489"><time>2021-10-23T15:16:23.200</time></trkpt><trkpt lat="55.7346864" lon="48.7481304"><time>2021-10-23T15:16:28.203</time></trkpt><trkpt lat="55.7346658" lon="48.7482058"><time>2021-10-23T15:16:34.217</time></trkpt><trkpt lat="55.7346547" lon="48.7482898"><time>2021-10-23T15:16:40.190</time></trkpt><trkpt lat="55.7346880" lon="48.7483438"><time>2021-10-23T15:16:55.167</time></trkpt><trkpt lat="55.7346649" lon="48.7484162"><time>2021-10-23T15:17:15.207</time></trkpt><trkpt lat="55.7346902" lon="48.7484852"><time>2021-10-23T15:17:25.207</time></trkpt><trkpt lat="55.7347062" lon="48.7485723"><time>2021-10-23T15:17:31.213</time></trkpt><trkpt lat="55.7347373" lon="48.7486333"><time>2021-10-23T15:17:40.213</time></trkpt><trkpt lat="55.7347640" lon="48.7487058"><time>2021-10-23T15:17:46.203</time></trkpt><trkpt lat="55.7347207" lon="48.7487559"><time>2021-10-23T15:18:11.217</time></trkpt><trkpt lat="55.7346779" lon="48.7487877"><time>2021-10-23T15:18:26.200</time></trkpt><trkpt lat="55.7347209" lon="48.7487500"><time>2021-10-23T15:18:41.170</time></trkpt><trkpt lat="55.7346634" lon="48.7487256"><time>2021-10-23T15:19:02.190</time></trkpt><trkpt lat="55.7346155" lon="48.7487396"><time>2021-10-23T15:19:09.177</time></trkpt><trkpt lat="55.7345884" lon="48.7488122"><time>2021-10-23T15:19:18.177</time></trkpt><trkpt lat="55.7345844" lon="48.7488951"><time>2021-10-23T15:19:23.177</time></trkpt><trkpt lat="55.7345937" lon="48.7489915"><time>2021-10-23T15:19:30.183</time></trkpt><trkpt lat="55.7345734" lon="48.7490638"><time>2021-10-23T15:19:35.200</time></trkpt><trkpt lat="55.7345748" lon="48.7491502"><time>2021-10-23T15:19:42.183</time></trkpt><trkpt lat="55.7345726" lon="48.7492340"><time>2021-10-23T15:19:51.190</time></trkpt><trkpt lat="55.7345631" lon="48.7493149"><time>2021-10-23T15:20:37.207</time></trkpt><trkpt lat="55.7345569" lon="48.7492339"><time>2021-10-23T15:21:10.193</time></trkpt><trkpt lat="55.7345074" lon="48.7492380"><time>2021-10-23T15:21:19.183</time></trkpt><trkpt lat="55.7344877" lon="48.7491616"><time>2021-10-23T15:21:57.203</time></trkpt><trkpt lat="55.7345030" lon="48.7490785"><time>2021-10-23T15:22:11.207</time></trkpt><trkpt lat="55.7345401" lon="48.7490322"><time>2021-10-23T15:22:21.200</time></trkpt><trkpt lat="55.7345586" lon="48.7489515"><time>2021-10-23T15:22:34.193</time></trkpt><trkpt lat="55.7345808" lon="48.7488722"><time>2021-10-23T15:22:42.187</time></trkpt><trkpt lat="55.7346206" lon="48.7488309"><time>2021-10-23T15:22:50.220</time></trkpt><trkpt lat="55.7346625" lon="48.7487810"><time>2021-10-23T15:22:59.217</time></trkpt><trkpt lat="55.7347078" lon="48.7487516"><time>2021-10-23T15:23:04.210</time></trkpt><trkpt lat="55.7347472" lon="48.7486982"><time>2021-10-23T15:23:16.217</time></trkpt><trkpt lat="55.7347790" lon="48.7486409"><time>2021-10-23T15:23:29.193</time></trkpt><trkpt lat="55.7348104" lon="48.7485836"><time>2021-10-23T15:23:39.200</time></trkpt><trkpt lat="55.7348296" lon="48.7485069"><time>2021-10-23T15:23:46.200</time></trkpt><trkpt lat="55.7348697" lon="48.7484637"><time>2021-10-23T15:24:14.193</time></trkpt><trkpt lat="55.7349208" lon="48.7484559"><time>2021-10-23T15:24:53.223</time></trkpt><trkpt lat="55.7349641" lon="48.7484786"><time>2021-10-23T15:25:21.213</time></trkpt><trkpt lat="55.7350006" lon="48.7484218"><time>2021-10-23T15:25:44.187</time></trkpt><trkpt lat="55.7350173" lon="48.7483447"><time>2021-10-23T15:25:51.190</time></trkpt><trkpt lat="55.7350509" lon="48.7482855"><time>2021-10-23T15:26:51.177</time></trkpt><trkpt lat="55.7350396" lon="48.7482079"><time>2021-10-23T15:27:37.200</time></trkpt><trkpt lat="55.7350289" lon="48.7481253"><time>2021-10-23T15:27:47.197</time></trkpt><trkpt lat="55.7350233" lon="48.7480415"><time>2021-10-23T15:27:55.207</time></trkpt><trkpt lat="55.7350061" lon="48.7481151"><time>2021-10-23T15:28:23.213</time></trkpt><trkpt lat="55.7349952" lon="48.7482045"><time>2021-10-23T15:28:30.193</time></trkpt><trkpt lat="55.7350370" lon="48.7482641"><time>2021-10-23T15:28:38.223</time></trkpt><trkpt lat="55.7349930" lon="48.7482811"><time>2021-10-23T15:30:31.193</time></trkpt><trkpt lat="55.7350208" lon="48.7483481"><time>2021-10-23T15:35:53.187</time></trkpt><trkpt lat="55.7350056" lon="48.7482720"><time>2021-10-23T15:38:45.190</time></trkpt><trkpt lat="55.7350504" lon="48.7482881"><time>2021-10-23T15:39:53.190</time></trkpt><trkpt lat="55.7350041" lon="48.7482993"><time>2021-10-23T15:43:27.173</time></trkpt><trkpt lat="55.7350449" lon="48.7483326"><time>2021-10-23T15:45:03.187</time></trkpt><trkpt lat="55.7350848" lon="48.7482871"><time>2021-10-23T15:46:19.177</time></trkpt><trkpt lat="55.7350827" lon="48.7483757"><time>2021-10-23T15:46:37.237</time></trkpt><trkpt lat="55.7351255" lon="48.7484108"><time>2021-10-23T15:46:55.187</time></trkpt><trkpt lat="55.7351115" lon="48.7484883"><time>2021-10-23T15:47:21.170</time></trkpt><trkpt lat="55.7351016" lon="48.7485779"><time>2021-10-23T15:47:27.200</time></trkpt><trkpt lat="55.7351023" lon="48.7486671"><time>2021-10-23T15:47:33.203</time></trkpt><trkpt lat="55.7351053" lon="48.7487514"><time>2021-10-23T15:48:55.203</time></trkpt><trkpt lat="55.7351338" lon="48.7488181"><time>2021-10-23T15:49:02.217</time></trkpt><trkpt lat="55.7351358" lon="48.7489002"><time>2021-10-23T15:49:18.177</time></trkpt><trkpt lat="55.7351505" lon="48.7489841"><time>2021-10-23T15:49:26.190</time></trkpt><trkpt lat="55.7351840" lon="48.7490542"><time>2021-10-23T15:49:33.190</time></trkpt><trkpt lat="55.7351954" lon="48.7491430"><time>2021-10-23T15:49:40.180</time></trkpt><trkpt lat="55.7352009" lon="48.7492274"><time>2021-10-23T15:49:47.193</time></trkpt><trkpt lat="55.7352059" lon="48.7493133"><time>2021-10-23T15:49:54.193</time></trkpt><trkpt lat="55.7351997" lon="48.7494015"><time>2021-10-23T15:50:03.187</time></trkpt><trkpt lat="55.7351812" lon="48.7494822"><time>2021-10-23T15:50:09.210</time></trkpt><trkpt lat="55.7351496" lon="48.7495476"><time>2021-10-23T15:50:15.197</time></trkpt><trkpt lat="55.7351437" lon="48.7496311"><time>2021-10-23T15:50:24.213</time></trkpt><trkpt lat="55.7351545" lon="48.7497161"><time>2021-10-23T15:50:40.207</time></trkpt><trkpt lat="55.7351765" lon="48.7498000"><time>2021-10-23T15:50:50.190</time></trkpt><trkpt lat="55.7351790" lon="48.7498838"><time>2021-10-23T15:51:03.197</time></trkpt><trkpt lat="55.7351733" lon="48.7499645"><time>2021-10-23T15:51:11.220</time></trkpt><trkpt lat="55.7351780" lon="48.7500518"><time>2021-10-23T15:51:24.207</time></trkpt><trkpt lat="55.7351414" lon="48.7500051"><time>2021-10-23T15:52:29.230</time></trkpt><trkpt lat="55.7350926" lon="48.7499980"><time>2021-10-23T15:52:34.197</time></trkpt><trkpt lat="55.7350480" lon="48.7500331"><time>2021-10-23T15:52:43.217</time></trkpt><trkpt lat="55.7350130" lon="48.7499763"><time>2021-10-23T15:52:54.203</time></trkpt><trkpt lat="55.7349883" lon="48.7498991"><time>2021-10-23T15:53:02.197</time></trkpt><trkpt lat="55.7349449" lon="48.7498584"><time>2021-10-23T15:53:10.197</time></trkpt><trkpt lat="55.7349007" lon="48.7498279"><time>2021-10-23T15:53:15.197</time></trkpt><trkpt lat="55.7348508" lon="48.7498262"><time>2021-10-23T15:53:20.217</time></trkpt><trkpt lat="55.7348076" lon="48.7497841"><time>2021-10-23T15:53:27.200</time></trkpt><trkpt lat="55.7347740" lon="48.7497292"><time>2021-10-23T15:53:36.210</time></trkpt><trkpt lat="55.7347488" lon="48.7498086"><time>2021-10-23T15:53:46.217</time></trkpt><trkpt lat="55.7347500" lon="48.7498893"><time>2021-10-23T15:53:51.197</time></trkpt><trkpt lat="55.7347551" lon="48.7499865"><time>2021-10-23T15:53:57.193</time></trkpt><trkpt lat="55.7347706" lon="48.7500714"><time>2021-10-23T15:54:03.190</time></trkpt><trkpt lat="55.7347751" lon="48.7501554"><time>2021-10-23T15:54:12.187</time></trkpt><trkpt lat="55.7347785" lon="48.7502364"><time>2021-10-23T15:54:22.197</time></trkpt><trkpt lat="55.7347422" lon="48.7503020"><time>2021-10-23T15:54:30.197</time></trkpt><trkpt lat="55.7346924" lon="48.7503368"><time>2021-10-23T15:54:35.197</time></trkpt><trkpt lat="55.7346460" lon="48.7503502"><time>2021-10-23T15:54:44.187</time></trkpt><trkpt lat="55.7345962" lon="48.7503525"><time>2021-10-23T15:54:52.187</time></trkpt><trkpt lat="55.7345503" lon="48.7503347"><time>2021-10-23T15:54:58.197</time></trkpt><trkpt lat="55.7345394" lon="48.7502511"><time>2021-10-23T15:55:04.197</time></trkpt><trkpt lat="55.7345781" lon="48.7501820"><time>2021-10-23T15:55:08.200</time></trkpt><trkpt lat="55.7346101" lon="48.7501257"><time>2021-10-23T15:55:14.183</time></trkpt><trkpt lat="55.7346576" lon="48.7501352"><time>2021-10-23T15:55:27.193</time></trkpt><trkpt lat="55.7346938" lon="48.7501869"><time>2021-10-23T15:55:47.193</time></trkpt><trkpt lat="55.7346474" lon="48.7502082"><time>2021-10-23T15:57:38.197</time></trkpt><trkpt lat="55.7346011" lon="48.7502274"><time>2021-10-23T15:58:03.200</time></trkpt><trkpt lat="55.7345832" lon="48.7501517"><time>2021-10-23T15:58:14.197</time></trkpt><trkpt lat="55.7346197" lon="48.7502027"><time>2021-10-23T16:00:56.210</time></trkpt><trkpt lat="55.7346669" lon="48.7502107"><time>2021-10-23T16:01:02.207</time></trkpt><trkpt lat="55.7347122" lon="48.7501950"><time>2021-10-23T16:01:08.217</time></trkpt><trkpt lat="55.7347419" lon="48.7502639"><time>2021-10-23T16:01:20.197</time></trkpt><trkpt lat="55.7347724" lon="48.7503238"><time>2021-10-23T16:01:30.587</time></trkpt><trkpt lat="55.7348238" lon="48.7503307"><time>2021-10-23T16:01:35.200</time></trkpt><trkpt lat="55.7348464" lon="48.7502602"><time>2021-10-23T16:01:39.197</time></trkpt><trkpt lat="55.7348518" lon="48.7501717"><time>2021-10-23T16:01:47.200</time></trkpt><trkpt lat="55.7348384" lon="48.7500901"><time>2021-10-23T16:01:53.200</time></trkpt><trkpt lat="55.7348581" lon="48.7500074"><time>2021-10-23T16:02:00.193</time></trkpt><trkpt lat="55.7349092" lon="48.7500071"><time>2021-10-23T16:02:17.217</time></trkpt><trkpt lat="55.7349592" lon="48.7500032"><time>2021-10-23T16:02:24.193</time></trkpt><trkpt lat="55.7350055" lon="48.7500158"><time>2021-10-23T16:02:32.203</time></trkpt><trkpt lat="55.7350530" lon="48.7500289"><time>2021-10-23T16:02:44.197</time></trkpt><trkpt lat="55.7350981" lon="48.7500534"><time>2021-10-23T16:03:00.203</time></trkpt><trkpt lat="55.7351205" lon="48.7501306"><time>2021-10-23T16:03:11.197</time></trkpt><trkpt lat="55.7351244" lon="48.7502176"><time>2021-10-23T16:03:31.183</time></trkpt><trkpt lat="55.7351568" lon="48.7502813"><time>2021-10-23T16:03:39.197</time></trkpt><trkpt lat="55.7351971" lon="48.7503220"><time>2021-10-23T16:03:52.207</time></trkpt><trkpt lat="55.7352338" lon="48.7503720"><time>2021-10-23T16:04:03.197</time></trkpt><trkpt lat="55.7352818" lon="48.7503974"><time>2021-10-23T16:04:19.200</time></trkpt><trkpt lat="55.7352891" lon="48.7504863"><time>2021-10-23T16:04:36.193</time></trkpt><trkpt lat="55.7353182" lon="48.7505470"><time>2021-10-23T16:04:42.197</time></trkpt><trkpt lat="55.7353158" lon="48.7506294"><time>2021-10-23T16:04:51.203</time></trkpt><trkpt lat="55.7353259" lon="48.7507137"><time>2021-10-23T16:04:59.200</time></trkpt><trkpt lat="55.7353323" lon="48.7507953"><time>2021-10-23T16:05:06.200</time></trkpt><trkpt lat="55.7353378" lon="48.7508760"><time>2021-10-23T16:05:11.197</time></trkpt><trkpt lat="55.7353501" lon="48.7509601"><time>2021-10-23T16:05:16.217</time></trkpt><trkpt lat="55.7353681" lon="48.7510430"><time>2021-10-23T16:05:21.197</time></trkpt><trkpt lat="55.7353751" lon="48.7511273"><time>2021-10-23T16:05:27.197</time></trkpt><trkpt lat="55.7353770" lon="48.7512136"><time>2021-10-23T16:05:39.197</time></trkpt><trkpt lat="55.7353732" lon="48.7512990"><time>2021-10-23T16:05:45.213</time></trkpt><trkpt lat="55.7353837" lon="48.7513863"><time>2021-10-23T16:05:55.227</time></trkpt><trkpt lat="55.7354232" lon="48.7514260"><time>2021-10-23T16:06:06.173</time></trkpt><trkpt lat="55.7354328" lon="48.7515117"><time>2021-10-23T16:06:12.200</time></trkpt><trkpt lat="55.7354464" lon="48.7515876"><time>2021-10-23T16:06:18.197</time></trkpt><trkpt lat="55.7354375" lon="48.7516709"><time>2021-10-23T16:06:24.190</time></trkpt><trkpt lat="55.7354390" lon="48.7517528"><time>2021-10-23T16:06:37.200</time></trkpt><trkpt lat="55.7354651" lon="48.7518247"><time>2021-10-23T16:06:47.197</time></trkpt><trkpt lat="55.7354799" lon="48.7519060"><time>2021-10-23T16:06:54.183</time></trkpt><trkpt lat="55.7354523" lon="48.7519694"><time>2021-10-23T16:07:07.213</time></trkpt><trkpt lat="55.7354567" lon="48.7520543"><time>2021-10-23T16:07:16.193</time></trkpt><trkpt lat="55.7354623" lon="48.7521341"><time>2021-10-23T16:07:29.213</time></trkpt><trkpt lat="55.7354252" lon="48.7521836"><time>2021-10-23T16:08:26.227</time></trkpt><trkpt lat="55.7354678" lon="48.7522144"><time>2021-10-23T16:08:47.200</time></trkpt><trkpt lat="55.7354539" lon="48.7522972"><time>2021-10-23T16:09:06.200</time></trkpt><trkpt lat="55.7354565" lon="48.7523810"><time>2021-10-23T16:09:14.187</time></trkpt><trkpt lat="55.7354534" lon="48.7524605"><time>2021-10-23T16:09:20.197</time></trkpt><trkpt lat="55.7354272" lon="48.7525344"><time>2021-10-23T16:09:26.190</time></trkpt><trkpt lat="55.7354308" lon="48.7526159"><time>2021-10-23T16:09:33.213</time></trkpt><trkpt lat="55.7354379" lon="48.7527048"><time>2021-10-23T16:09:42.220</time></trkpt><trkpt lat="55.7354407" lon="48.7527904"><time>2021-10-23T16:09:49.203</time></trkpt><trkpt lat="55.7354509" lon="48.7528813"><time>2021-10-23T16:09:57.193</time></trkpt><trkpt lat="55.7354523" lon="48.7529635"><time>2021-10-23T16:10:04.197</time></trkpt><trkpt lat="55.7354667" lon="48.7530476"><time>2021-10-23T16:10:10.223</time></trkpt><trkpt lat="55.7354542" lon="48.7531355"><time>2021-10-23T16:10:15.227</time></trkpt><trkpt lat="55.7354759" lon="48.7532072"><time>2021-10-23T16:10:22.207</time></trkpt><trkpt lat="55.7354543" lon="48.7532815"><time>2021-10-23T16:10:34.187</time></trkpt><trkpt lat="55.7354650" lon="48.7533656"><time>2021-10-23T16:10:38.200</time></trkpt><trkpt lat="55.7354973" lon="48.7534272"><time>2021-10-23T16:10:41.200</time></trkpt><trkpt lat="55.7355335" lon="48.7534964"><time>2021-10-23T16:10:46.213</time></trkpt><trkpt lat="55.7355617" lon="48.7535667"><time>2021-10-23T16:10:50.197</time></trkpt><trkpt lat="55.7355827" lon="48.7536377"><time>2021-10-23T16:10:54.200</time></trkpt><trkpt lat="55.7355945" lon="48.7537151"><time>2021-10-23T16:11:00.197</time></trkpt><trkpt lat="55.7356033" lon="48.7537946"><time>2021-10-23T16:11:06.193</time></trkpt><trkpt lat="55.7356049" lon="48.7538816"><time>2021-10-23T16:11:13.190</time></trkpt><trkpt lat="55.7355959" lon="48.7539673"><time>2021-10-23T16:11:20.187</time></trkpt><trkpt lat="55.7355884" lon="48.7540500"><time>2021-10-23T16:11:28.203</time></trkpt><trkpt lat="55.7355928" lon="48.7541374"><time>2021-10-23T16:11:36.193</time></trkpt><trkpt lat="55.7355825" lon="48.7542244"><time>2021-10-23T16:11:42.190</time></trkpt><trkpt lat="55.7355706" lon="48.7543138"><time>2021-10-23T16:11:47.197</time></trkpt><trkpt lat="55.7355565" lon="48.7543935"><time>2021-10-23T16:11:53.193</time></trkpt><trkpt lat="55.7355617" lon="48.7544739"><time>2021-10-23T16:11:59.203</time></trkpt><trkpt lat="55.7355430" lon="48.7545510"><time>2021-10-23T16:12:05.193</time></trkpt><trkpt lat="55.7355132" lon="48.7546181"><time>2021-10-23T16:12:11.190</time></trkpt><trkpt lat="55.7355010" lon="48.7547104"><time>2021-10-23T16:12:18.190</time></trkpt><trkpt lat="55.7355211" lon="48.7547862"><time>2021-10-23T16:12:24.197</time></trkpt><trkpt lat="55.7354881" lon="48.7548619"><time>2021-10-23T16:12:31.227</time></trkpt><trkpt lat="55.7354635" lon="48.7549312"><time>2021-10-23T16:12:37.207</time></trkpt><trkpt lat="55.7354654" lon="48.7550147"><time>2021-10-23T16:12:42.190</time></trkpt><trkpt lat="55.7354792" lon="48.7550994"><time>2021-10-23T16:13:00.217</time></trkpt><trkpt lat="55.7355143" lon="48.7551658"><time>2021-10-23T16:13:23.187</time></trkpt><trkpt lat="55.7355532" lon="48.7552210"><time>2021-10-23T16:13:29.180</time></trkpt><trkpt lat="55.7355850" lon="48.7552845"><time>2021-10-23T16:13:35.190</time></trkpt><trkpt lat="55.7356113" lon="48.7553619"><time>2021-10-23T16:13:42.197</time></trkpt><trkpt lat="55.7356379" lon="48.7554307"><time>2021-10-23T16:13:48.197</time></trkpt><trkpt lat="55.7356815" lon="48.7554686"><time>2021-10-23T16:13:53.190</time></trkpt><trkpt lat="55.7357110" lon="48.7555446"><time>2021-10-23T16:14:00.200</time></trkpt><trkpt lat="55.7357459" lon="48.7556038"><time>2021-10-23T16:14:07.190</time></trkpt><trkpt lat="55.7357682" lon="48.7556759"><time>2021-10-23T16:14:13.187</time></trkpt><trkpt lat="55.7357963" lon="48.7557562"><time>2021-10-23T16:14:19.187</time></trkpt><trkpt lat="55.7358217" lon="48.7558235"><time>2021-10-23T16:14:25.197</time></trkpt><trkpt lat="55.7358483" lon="48.7558879"><time>2021-10-23T16:14:31.187</time></trkpt><trkpt lat="55.7358878" lon="48.7559402"><time>2021-10-23T16:14:38.197</time></trkpt><trkpt lat="55.7359049" lon="48.7560171"><time>2021-10-23T16:14:45.203</time></trkpt><trkpt lat="55.7359477" lon="48.7560458"><time>2021-10-23T16:14:52.200</time></trkpt><trkpt lat="55.7359473" lon="48.7561402"><time>2021-10-23T16:14:57.193</time></trkpt><trkpt lat="55.7359476" lon="48.7562322"><time>2021-10-23T16:15:02.183</time></trkpt><trkpt lat="55.7359560" lon="48.7563218"><time>2021-10-23T16:15:07.190</time></trkpt><trkpt lat="55.7359569" lon="48.7564116"><time>2021-10-23T16:15:13.177</time></trkpt><trkpt lat="55.7359698" lon="48.7564909"><time>2021-10-23T16:15:20.187</time></trkpt><trkpt lat="55.7359932" lon="48.7565708"><time>2021-10-23T16:15:27.190</time></trkpt><trkpt lat="55.7360222" lon="48.7566389"><time>2021-10-23T16:15:34.213</time></trkpt><trkpt lat="55.7360629" lon="48.7566858"><time>2021-10-23T16:15:40.217</time></trkpt><trkpt lat="55.7360779" lon="48.7567651"><time>2021-10-23T16:15:48.227</time></trkpt><trkpt lat="55.7361152" lon="48.7568120"><time>2021-10-23T16:16:00.203</time></trkpt><trkpt lat="55.7361495" lon="48.7568715"><time>2021-10-23T16:16:05.197</time></trkpt><trkpt lat="55.7361871" lon="48.7569349"><time>2021-10-23T16:16:10.200</time></trkpt><trkpt lat="55.7362178" lon="48.7570053"><time>2021-10-23T16:16:15.210</time></trkpt><trkpt lat="55.7362495" lon="48.7570646"><time>2021-10-23T16:16:21.213</time></trkpt><trkpt lat="55.7362780" lon="48.7571277"><time>2021-10-23T16:16:27.213</time></trkpt><trkpt lat="55.7362969" lon="48.7572128"><time>2021-10-23T16:16:35.193</time></trkpt><trkpt lat="55.7363049" lon="48.7572937"><time>2021-10-23T16:16:50.220</time></trkpt><trkpt lat="55.7363538" lon="48.7572931"><time>2021-10-23T16:16:57.210</time></trkpt><trkpt lat="55.7363756" lon="48.7573712"><time>2021-10-23T16:17:11.193</time></trkpt><trkpt lat="55.7363896" lon="48.7574561"><time>2021-10-23T16:17:23.197</time></trkpt><trkpt lat="55.7364110" lon="48.7575341"><time>2021-10-23T16:17:30.180</time></trkpt><trkpt lat="55.7364113" lon="48.7576233"><time>2021-10-23T16:17:36.190</time></trkpt><trkpt lat="55.7364159" lon="48.7577141"><time>2021-10-23T16:17:41.193</time></trkpt><trkpt lat="55.7364389" lon="48.7577873"><time>2021-10-23T16:17:49.207</time></trkpt><trkpt lat="55.7364568" lon="48.7578649"><time>2021-10-23T16:17:58.193</time></trkpt><trkpt lat="55.7364921" lon="48.7579183"><time>2021-10-23T16:18:08.197</time></trkpt><trkpt lat="55.7365213" lon="48.7579793"><time>2021-10-23T16:18:35.183</time></trkpt><trkpt lat="55.7365685" lon="48.7580039"><time>2021-10-23T16:18:49.213</time></trkpt><trkpt lat="55.7365258" lon="48.7579689"><time>2021-10-23T16:20:18.197</time></trkpt><trkpt lat="55.7365754" lon="48.7579615"><time>2021-10-23T16:21:14.193</time></trkpt><trkpt lat="55.7365545" lon="48.7578826"><time>2021-10-23T16:23:06.187</time></trkpt><trkpt lat="55.7365221" lon="48.7578264"><time>2021-10-23T16:23:21.197</time></trkpt><trkpt lat="55.7364885" lon="48.7577733"><time>2021-10-23T16:23:27.193</time></trkpt><trkpt lat="55.7364401" lon="48.7577509"><time>2021-10-23T16:23:37.197</time></trkpt><trkpt lat="55.7364074" lon="48.7576936"><time>2021-10-23T16:23:44.193</time></trkpt><trkpt lat="55.7364058" lon="48.7576131"><time>2021-10-23T16:23:54.197</time></trkpt><trkpt lat="55.7364041" lon="48.7575306"><time>2021-10-23T16:24:17.197</time></trkpt><trkpt lat="55.7363934" lon="48.7574471"><time>2021-10-23T16:26:11.227</time></trkpt><trkpt lat="55.7363769" lon="48.7573707"><time>2021-10-23T16:26:50.210</time></trkpt><trkpt lat="55.7363513" lon="48.7574372"><time>2021-10-23T16:27:48.200</time></trkpt><trkpt lat="55.7363920" lon="48.7573955"><time>2021-10-23T16:28:07.197</time></trkpt><trkpt lat="55.7364104" lon="48.7573187"><time>2021-10-23T16:28:55.187</time></trkpt><trkpt lat="55.7363743" lon="48.7572705"><time>2021-10-23T16:29:11.210</time></trkpt><trkpt lat="55.7363276" lon="48.7572325"><time>2021-10-23T16:29:23.190</time></trkpt><trkpt lat="55.7362852" lon="48.7571983"><time>2021-10-23T16:29:36.177</time></trkpt><trkpt lat="55.7362724" lon="48.7571171"><time>2021-10-23T16:29:45.197</time></trkpt><trkpt lat="55.7362267" lon="48.7571024"><time>2021-10-23T16:30:18.193</time></trkpt><trkpt lat="55.7362692" lon="48.7571357"><time>2021-10-23T16:30:33.223</time></trkpt><trkpt lat="55.7362763" lon="48.7572248"><time>2021-10-23T16:30:39.220</time></trkpt><trkpt lat="55.7363215" lon="48.7572513"><time>2021-10-23T16:30:44.223</time></trkpt><trkpt lat="55.7363632" lon="48.7572929"><time>2021-10-23T16:30:57.197</time></trkpt><trkpt lat="55.7363695" lon="48.7573777"><time>2021-10-23T16:31:06.190</time></trkpt><trkpt lat="55.7363888" lon="48.7574552"><time>2021-10-23T16:31:13.203</time></trkpt><trkpt lat="55.7363705" lon="48.7575328"><time>2021-10-23T16:31:21.200</time></trkpt><trkpt lat="55.7363433" lon="48.7576012"><time>2021-10-23T16:31:36.203</time></trkpt><trkpt lat="55.7363897" lon="48.7576173"><time>2021-10-23T16:32:06.197</time></trkpt><trkpt lat="55.7364118" lon="48.7576869"><time>2021-10-23T16:32:11.213</time></trkpt><trkpt lat="55.7364225" lon="48.7577734"><time>2021-10-23T16:32:14.193</time></trkpt><trkpt lat="55.7364542" lon="48.7578327"><time>2021-10-23T16:32:21.197</time></trkpt><trkpt lat="55.7364843" lon="48.7578993"><time>2021-10-23T16:32:29.207</time></trkpt><trkpt lat="55.7365167" lon="48.7579565"><time>2021-10-23T16:32:36.200</time></trkpt><trkpt lat="55.7365104" lon="48.7580423"><time>2021-10-23T16:32:43.203</time></trkpt><trkpt lat="55.7365400" lon="48.7581161"><time>2021-10-23T16:32:50.193</time></trkpt><trkpt lat="55.7365431" lon="48.7581994"><time>2021-10-23T16:32:56.200</time></trkpt><trkpt lat="55.7365634" lon="48.7582821"><time>2021-10-23T16:33:02.193</time></trkpt><trkpt lat="55.7365633" lon="48.7583664"><time>2021-10-23T16:33:07.200</time></trkpt><trkpt lat="55.7365727" lon="48.7584474"><time>2021-10-23T16:33:14.197</time></trkpt><trkpt lat="55.7365684" lon="48.7585279"><time>2021-10-23T16:33:24.193</time></trkpt><trkpt lat="55.7366052" lon="48.7585885"><time>2021-10-23T16:33:29.193</time></trkpt><trkpt lat="55.7366224" lon="48.7586685"><time>2021-10-23T16:33:34.213</time></trkpt><trkpt lat="55.7366342" lon="48.7587530"><time>2021-10-23T16:33:39.203</time></trkpt><trkpt lat="55.7366724" lon="48.7588013"><time>2021-10-23T16:33:43.210</time></trkpt><trkpt lat="55.7367063" lon="48.7588734"><time>2021-10-23T16:33:48.183</time></trkpt><trkpt lat="55.7367356" lon="48.7589482"><time>2021-10-23T16:33:54.200</time></trkpt><trkpt lat="55.7367604" lon="48.7590272"><time>2021-10-23T16:33:59.190</time></trkpt><trkpt lat="55.7367942" lon="48.7590811"><time>2021-10-23T16:34:05.183</time></trkpt><trkpt lat="55.7368314" lon="48.7591498"><time>2021-10-23T16:34:11.190</time></trkpt><trkpt lat="55.7368703" lon="48.7591930"><time>2021-10-23T16:34:16.207</time></trkpt><trkpt lat="55.7369130" lon="48.7592532"><time>2021-10-23T16:34:21.200</time></trkpt><trkpt lat="55.7369587" lon="48.7592979"><time>2021-10-23T16:34:26.213</time></trkpt><trkpt lat="55.7369919" lon="48.7593625"><time>2021-10-23T16:34:31.217</time></trkpt><trkpt lat="55.7370381" lon="48.7594080"><time>2021-10-23T16:34:39.197</time></trkpt><trkpt lat="55.7370859" lon="48.7594399"><time>2021-10-23T16:34:44.197</time></trkpt><trkpt lat="55.7371282" lon="48.7594780"><time>2021-10-23T16:34:49.210</time></trkpt><trkpt lat="55.7371705" lon="48.7595184"><time>2021-10-23T16:34:55.210</time></trkpt><trkpt lat="55.7372024" lon="48.7595814"><time>2021-10-23T16:35:09.207</time></trkpt><trkpt lat="55.7372039" lon="48.7596666"><time>2021-10-23T16:35:20.207</time></trkpt><trkpt lat="55.7372445" lon="48.7597181"><time>2021-10-23T16:35:30.220</time></trkpt><trkpt lat="55.7372919" lon="48.7597090"><time>2021-10-23T16:35:37.197</time></trkpt><trkpt lat="55.7372941" lon="48.7597906"><time>2021-10-23T16:35:46.193</time></trkpt><trkpt lat="55.7373013" lon="48.7598752"><time>2021-10-23T16:35:56.200</time></trkpt><trkpt lat="55.7373169" lon="48.7599594"><time>2021-10-23T16:36:04.190</time></trkpt><trkpt lat="55.7373156" lon="48.7600487"><time>2021-10-23T16:36:10.197</time></trkpt><trkpt lat="55.7373213" lon="48.7601291"><time>2021-10-23T16:36:16.213</time></trkpt><trkpt lat="55.7373402" lon="48.7602034"><time>2021-10-23T16:36:21.240</time></trkpt><trkpt lat="55.7373672" lon="48.7602798"><time>2021-10-23T16:36:26.200</time></trkpt><trkpt lat="55.7374064" lon="48.7603286"><time>2021-10-23T16:36:30.200</time></trkpt><trkpt lat="55.7374417" lon="48.7603838"><time>2021-10-23T16:36:34.220</time></trkpt><trkpt lat="55.7374879" lon="48.7604386"><time>2021-10-23T16:36:39.223</time></trkpt><trkpt lat="55.7375293" lon="48.7604905"><time>2021-10-23T16:36:44.210</time></trkpt><trkpt lat="55.7375712" lon="48.7605300"><time>2021-10-23T16:36:50.227</time></trkpt><trkpt lat="55.7376162" lon="48.7605512"><time>2021-10-23T16:37:00.200</time></trkpt><trkpt lat="55.7376607" lon="48.7605668"><time>2021-10-23T16:37:06.203</time></trkpt><trkpt lat="55.7377062" lon="48.7605475"><time>2021-10-23T16:37:11.217</time></trkpt><trkpt lat="55.7377528" lon="48.7605447"><time>2021-10-23T16:37:17.213</time></trkpt><trkpt lat="55.7377913" lon="48.7605036"><time>2021-10-23T16:37:28.233</time></trkpt><trkpt lat="55.7378404" lon="48.7605254"><time>2021-10-23T16:37:39.203</time></trkpt><trkpt lat="55.7378850" lon="48.7604889"><time>2021-10-23T16:37:48.200</time></trkpt><trkpt lat="55.7378963" lon="48.7604539"><time>2021-10-23T16:37:54.250</time></trkpt><trkpt lat="55.7379362" lon="48.7604623"><time>2021-10-23T16:40:21.207</time></trkpt><trkpt lat="55.7379724" lon="48.7604003"><time>2021-10-23T16:40:28.260</time></trkpt><trkpt lat="55.7380146" lon="48.7603684"><time>2021-10-23T16:40:33.190</time></trkpt><trkpt lat="55.7380694" lon="48.7603699"><time>2021-10-23T16:40:38.193</time></trkpt><trkpt lat="55.7381217" lon="48.7603681"><time>2021-10-23T16:40:43.193</time></trkpt><trkpt lat="55.7381636" lon="48.7604036"><time>2021-10-23T16:40:47.193</time></trkpt><trkpt lat="55.7382129" lon="48.7604318"><time>2021-10-23T16:40:51.187</time></trkpt><trkpt lat="55.7382631" lon="48.7604752"><time>2021-10-23T16:40:57.193</time></trkpt><trkpt lat="55.7383102" lon="48.7604749"><time>2021-10-23T16:41:05.193</time></trkpt><trkpt lat="55.7383587" lon="48.7604622"><time>2021-10-23T16:41:11.193</time></trkpt><trkpt lat="55.7384005" lon="48.7604932"><time>2021-10-23T16:41:16.193</time></trkpt><trkpt lat="55.7384416" lon="48.7605360"><time>2021-10-23T16:41:20.187</time></trkpt><trkpt lat="55.7384834" lon="48.7605792"><time>2021-10-23T16:41:26.193</time></trkpt><trkpt lat="55.7385320" lon="48.7606037"><time>2021-10-23T16:41:34.190</time></trkpt><trkpt lat="55.7385784" lon="48.7606446"><time>2021-10-23T16:41:41.190</time></trkpt><trkpt lat="55.7386249" lon="48.7606750"><time>2021-10-23T16:41:48.190</time></trkpt><trkpt lat="55.7386755" lon="48.7607016"><time>2021-10-23T16:41:53.193</time></trkpt><trkpt lat="55.7387203" lon="48.7607121"><time>2021-10-23T16:41:58.190</time></trkpt><trkpt lat="55.7387574" lon="48.7607620"><time>2021-10-23T16:42:04.190</time></trkpt><trkpt lat="55.7387927" lon="48.7608277"><time>2021-10-23T16:42:10.190</time></trkpt><trkpt lat="55.7388436" lon="48.7608103"><time>2021-10-23T16:42:17.260</time></trkpt><trkpt lat="55.7388929" lon="48.7608489"><time>2021-10-23T16:42:24.183</time></trkpt><trkpt lat="55.7389385" lon="48.7608622"><time>2021-10-23T16:42:30.203</time></trkpt><trkpt lat="55.7389830" lon="48.7608511"><time>2021-10-23T16:42:38.197</time></trkpt><trkpt lat="55.7390287" lon="48.7608809"><time>2021-10-23T16:42:44.223</time></trkpt><trkpt lat="55.7390630" lon="48.7609332"><time>2021-10-23T16:42:53.210</time></trkpt><trkpt lat="55.7390922" lon="48.7609970"><time>2021-10-23T16:43:06.213</time></trkpt><trkpt lat="55.7391442" lon="48.7610315"><time>2021-10-23T16:43:11.203</time></trkpt><trkpt lat="55.7391912" lon="48.7610637"><time>2021-10-23T16:43:15.203</time></trkpt><trkpt lat="55.7392249" lon="48.7611197"><time>2021-10-23T16:43:20.207</time></trkpt><trkpt lat="55.7392710" lon="48.7611117"><time>2021-10-23T16:43:33.187</time></trkpt><trkpt lat="55.7393245" lon="48.7611353"><time>2021-10-23T16:43:40.197</time></trkpt><trkpt lat="55.7393479" lon="48.7610663"><time>2021-10-23T16:44:12.193</time></trkpt><trkpt lat="55.7393323" lon="48.7611461"><time>2021-10-23T16:45:26.217</time></trkpt><trkpt lat="55.7393610" lon="48.7612169"><time>2021-10-23T16:45:33.207</time></trkpt><trkpt lat="55.7393956" lon="48.7612760"><time>2021-10-23T16:45:41.207</time></trkpt><trkpt lat="55.7394362" lon="48.7613343"><time>2021-10-23T16:45:49.207</time></trkpt><trkpt lat="55.7394799" lon="48.7613700"><time>2021-10-23T16:45:55.207</time></trkpt><trkpt lat="55.7395170" lon="48.7614162"><time>2021-10-23T16:46:02.190</time></trkpt><trkpt lat="55.7395577" lon="48.7614680"><time>2021-10-23T16:46:07.197</time></trkpt><trkpt lat="55.7395978" lon="48.7615116"><time>2021-10-23T16:46:11.197</time></trkpt><trkpt lat="55.7396344" lon="48.7615670"><time>2021-10-23T16:46:16.200</time></trkpt><trkpt lat="55.7396834" lon="48.7616180"><time>2021-10-23T16:46:21.193</time></trkpt><trkpt lat="55.7397318" lon="48.7616433"><time>2021-10-23T16:46:25.217</time></trkpt><trkpt lat="55.7397757" lon="48.7616749"><time>2021-10-23T16:46:29.213</time></trkpt><trkpt lat="55.7398301" lon="48.7617035"><time>2021-10-23T16:46:34.197</time></trkpt><trkpt lat="55.7398784" lon="48.7616990"><time>2021-10-23T16:46:39.217</time></trkpt><trkpt lat="55.7399230" lon="48.7616822"><time>2021-10-23T16:46:43.210</time></trkpt><trkpt lat="55.7399694" lon="48.7616995"><time>2021-10-23T16:46:48.213</time></trkpt><trkpt lat="55.7400211" lon="48.7617052"><time>2021-10-23T16:46:54.213</time></trkpt><trkpt lat="55.7400732" lon="48.7617199"><time>2021-10-23T16:47:00.203</time></trkpt><trkpt lat="55.7401212" lon="48.7617242"><time>2021-10-23T16:47:05.193</time></trkpt><trkpt lat="55.7401716" lon="48.7617095"><time>2021-10-23T16:47:09.197</time></trkpt><trkpt lat="55.7402266" lon="48.7617024"><time>2021-10-23T16:47:14.187</time></trkpt><trkpt lat="55.7402753" lon="48.7617205"><time>2021-10-23T16:47:19.197</time></trkpt><trkpt lat="55.7403205" lon="48.7617426"><time>2021-10-23T16:47:25.187</time></trkpt><trkpt lat="55.7403457" lon="48.7618145"><time>2021-10-23T16:47:33.210</time></trkpt><trkpt lat="55.7403965" lon="48.7617942"><time>2021-10-23T16:47:41.200</time></trkpt><trkpt lat="55.7404418" lon="48.7618281"><time>2021-10-23T16:47:46.197</time></trkpt><trkpt lat="55.7404832" lon="48.7618702"><time>2021-10-23T16:48:00.187</time></trkpt><trkpt lat="55.7405288" lon="48.7618496"><time>2021-10-23T16:48:09.207</time></trkpt><trkpt lat="55.7405750" lon="48.7618745"><time>2021-10-23T16:48:22.203</time></trkpt><trkpt lat="55.7406226" lon="48.7618714"><time>2021-10-23T16:48:28.203</time></trkpt><trkpt lat="55.7406703" lon="48.7618663"><time>2021-10-23T16:48:34.213</time></trkpt><trkpt lat="55.7407132" lon="48.7619072"><time>2021-10-23T16:48:48.197</time></trkpt><trkpt lat="55.7407525" lon="48.7619498"><time>2021-10-23T16:48:54.197</time></trkpt><trkpt lat="55.7407982" lon="48.7619903"><time>2021-10-23T16:48:59.197</time></trkpt><trkpt lat="55.7408460" lon="48.7619979"><time>2021-10-23T16:49:05.200</time></trkpt><trkpt lat="55.7408968" lon="48.7619952"><time>2021-10-23T16:49:10.193</time></trkpt><trkpt lat="55.7409398" lon="48.7620209"><time>2021-10-23T16:49:16.197</time></trkpt><trkpt lat="55.7409757" lon="48.7620718"><time>2021-10-23T16:49:23.193</time></trkpt><trkpt lat="55.7410224" lon="48.7620829"><time>2021-10-23T16:49:29.180</time></trkpt><trkpt lat="55.7410707" lon="48.7621014"><time>2021-10-23T16:50:17.187</time></trkpt><trkpt lat="55.7411218" lon="48.7621249"><time>2021-10-23T16:50:22.190</time></trkpt><trkpt lat="55.7411736" lon="48.7621206"><time>2021-10-23T16:50:29.190</time></trkpt><trkpt lat="55.7412225" lon="48.7621466"><time>2021-10-23T16:50:36.273</time></trkpt><trkpt lat="55.7412723" lon="48.7621722"><time>2021-10-23T16:50:42.193</time></trkpt><trkpt lat="55.7413213" lon="48.7621730"><time>2021-10-23T16:50:48.207</time></trkpt><trkpt lat="55.7413683" lon="48.7622023"><time>2021-10-23T16:50:55.207</time></trkpt><trkpt lat="55.7414166" lon="48.7622292"><time>2021-10-23T16:51:02.200</time></trkpt><trkpt lat="55.7414508" lon="48.7622912"><time>2021-10-23T16:51:08.203</time></trkpt><trkpt lat="55.7414924" lon="48.7623352"><time>2021-10-23T16:51:14.193</time></trkpt><trkpt lat="55.7415348" lon="48.7623862"><time>2021-10-23T16:51:19.197</time></trkpt><trkpt lat="55.7415769" lon="48.7624204"><time>2021-10-23T16:51:24.203</time></trkpt><trkpt lat="55.7416277" lon="48.7624546"><time>2021-10-23T16:51:30.187</time></trkpt><trkpt lat="55.7416715" lon="48.7624891"><time>2021-10-23T16:51:36.183</time></trkpt><trkpt lat="55.7417068" lon="48.7625518"><time>2021-10-23T16:51:44.200</time></trkpt><trkpt lat="55.7417424" lon="48.7626010"><time>2021-10-23T16:51:51.170</time></trkpt><trkpt lat="55.7417942" lon="48.7626218"><time>2021-10-23T16:51:57.193</time></trkpt><trkpt lat="55.7418450" lon="48.7626357"><time>2021-10-23T16:52:02.183</time></trkpt><trkpt lat="55.7418914" lon="48.7626386"><time>2021-10-23T16:52:07.193</time></trkpt><trkpt lat="55.7419428" lon="48.7626383"><time>2021-10-23T16:52:13.193</time></trkpt><trkpt lat="55.7419795" lon="48.7626937"><time>2021-10-23T16:52:55.177</time></trkpt><trkpt lat="55.7420253" lon="48.7627010"><time>2021-10-23T16:53:01.193</time></trkpt><trkpt lat="55.7420575" lon="48.7626429"><time>2021-10-23T16:53:11.193</time></trkpt><trkpt lat="55.7420481" lon="48.7625648"><time>2021-10-23T16:53:20.187</time></trkpt><trkpt lat="55.7420399" lon="48.7624811"><time>2021-10-23T16:53:27.183</time></trkpt><trkpt lat="55.7420844" lon="48.7624681"><time>2021-10-23T16:55:40.187</time></trkpt><trkpt lat="55.7421294" lon="48.7624493"><time>2021-10-23T16:56:07.190</time></trkpt><trkpt lat="55.7421669" lon="48.7624949"><time>2021-10-23T16:56:13.197</time></trkpt><trkpt lat="55.7422147" lon="48.7625105"><time>2021-10-23T16:56:19.197</time></trkpt><trkpt lat="55.7422503" lon="48.7625684"><time>2021-10-23T16:56:25.190</time></trkpt><trkpt lat="55.7422941" lon="48.7626152"><time>2021-10-23T16:56:30.193</time></trkpt><trkpt lat="55.7423478" lon="48.7626429"><time>2021-10-23T16:56:34.190</time></trkpt><trkpt lat="55.7424027" lon="48.7626749"><time>2021-10-23T16:56:38.190</time></trkpt><trkpt lat="55.7424490" lon="48.7627136"><time>2021-10-23T16:56:42.190</time></trkpt><trkpt lat="55.7424940" lon="48.7627314"><time>2021-10-23T16:56:46.190</time></trkpt><trkpt lat="55.7425429" lon="48.7627415"><time>2021-10-23T16:56:52.173</time></trkpt><trkpt lat="55.7425930" lon="48.7627626"><time>2021-10-23T16:57:00.190</time></trkpt><trkpt lat="55.7426375" lon="48.7627997"><time>2021-10-23T16:57:04.197</time></trkpt><trkpt lat="55.7426755" lon="48.7628469"><time>2021-10-23T16:57:09.177</time></trkpt><trkpt lat="55.7427140" lon="48.7628909"><time>2021-10-23T16:57:14.213</time></trkpt><trkpt lat="55.7427598" lon="48.7629117"><time>2021-10-23T16:57:18.217</time></trkpt><trkpt lat="55.7428027" lon="48.7629498"><time>2021-10-23T16:57:22.197</time></trkpt><trkpt lat="55.7428422" lon="48.7629932"><time>2021-10-23T16:57:26.197</time></trkpt><trkpt lat="55.7428991" lon="48.7630026"><time>2021-10-23T16:57:31.197</time></trkpt><trkpt lat="55.7429378" lon="48.7630458"><time>2021-10-23T16:57:37.193</time></trkpt><trkpt lat="55.7429790" lon="48.7630845"><time>2021-10-23T16:57:54.193</time></trkpt><trkpt lat="55.7430254" lon="48.7630994"><time>2021-10-23T16:58:06.197</time></trkpt><trkpt lat="55.7430727" lon="48.7631240"><time>2021-10-23T16:58:18.190</time></trkpt><trkpt lat="55.7431156" lon="48.7631654"><time>2021-10-23T16:58:32.190</time></trkpt><trkpt lat="55.7431662" lon="48.7631710"><time>2021-10-23T16:58:50.190</time></trkpt><trkpt lat="55.7432086" lon="48.7632034"><time>2021-10-23T16:58:56.190</time></trkpt><trkpt lat="55.7432547" lon="48.7632067"><time>2021-10-23T16:59:02.177</time></trkpt><trkpt lat="55.7433005" lon="48.7631931"><time>2021-10-23T16:59:07.193</time></trkpt><trkpt lat="55.7433462" lon="48.7631889"><time>2021-10-23T16:59:13.190</time></trkpt><trkpt lat="55.7433782" lon="48.7632543"><time>2021-10-23T16:59:28.197</time></trkpt><trkpt lat="55.7434173" lon="48.7633070"><time>2021-10-23T16:59:57.200</time></trkpt><trkpt lat="55.7434620" lon="48.7633346"><time>2021-10-23T17:00:02.197</time></trkpt><trkpt lat="55.7434902" lon="48.7634106"><time>2021-10-23T17:00:10.197</time></trkpt><trkpt lat="55.7435130" lon="48.7634806"><time>2021-10-23T17:00:15.197</time></trkpt><trkpt lat="55.7435417" lon="48.7635464"><time>2021-10-23T17:00:23.187</time></trkpt><trkpt lat="55.7435750" lon="48.7636042"><time>2021-10-23T17:00:32.187</time></trkpt><trkpt lat="55.7436068" lon="48.7636722"><time>2021-10-23T17:00:39.190</time></trkpt><trkpt lat="55.7436403" lon="48.7637280"><time>2021-10-23T17:00:47.193</time></trkpt><trkpt lat="55.7436788" lon="48.7637723"><time>2021-10-23T17:00:58.190</time></trkpt><trkpt lat="55.7437191" lon="48.7638106"><time>2021-10-23T17:01:06.193</time></trkpt><trkpt lat="55.7437599" lon="48.7638453"><time>2021-10-23T17:01:22.197</time></trkpt><trkpt lat="55.7437886" lon="48.7639134"><time>2021-10-23T17:01:30.277</time></trkpt><trkpt lat="55.7438185" lon="48.7639758"><time>2021-10-23T17:01:48.213</time></trkpt><trkpt lat="55.7438483" lon="48.7640577"><time>2021-10-23T17:01:54.210</time></trkpt><trkpt lat="55.7438871" lon="48.7641151"><time>2021-10-23T17:02:01.210</time></trkpt><trkpt lat="55.7439047" lon="48.7641917"><time>2021-10-23T17:02:09.183</time></trkpt><trkpt lat="55.7439294" lon="48.7642618"><time>2021-10-23T17:02:17.203</time></trkpt><trkpt lat="55.7439709" lon="48.7642293"><time>2021-10-23T17:02:27.193</time></trkpt><trkpt lat="55.7440174" lon="48.7642146"><time>2021-10-23T17:02:36.230</time></trkpt><trkpt lat="55.7440641" lon="48.7642351"><time>2021-10-23T17:02:53.223</time></trkpt><trkpt lat="55.7441069" lon="48.7642863"><time>2021-10-23T17:03:01.197</time></trkpt><trkpt lat="55.7441255" lon="48.7643720"><time>2021-10-23T17:03:07.187</time></trkpt><trkpt lat="55.7441356" lon="48.7644515"><time>2021-10-23T17:03:13.200</time></trkpt><trkpt lat="55.7441732" lon="48.7645046"><time>2021-10-23T17:03:23.197</time></trkpt><trkpt lat="55.7442043" lon="48.7645753"><time>2021-10-23T17:03:38.193</time></trkpt><trkpt lat="55.7442251" lon="48.7646464"><time>2021-10-23T17:03:48.180</time></trkpt><trkpt lat="55.7442665" lon="48.7646864"><time>2021-10-23T17:04:07.197</time></trkpt><trkpt lat="55.7442927" lon="48.7647586"><time>2021-10-23T17:04:22.217</time></trkpt><trkpt lat="55.7443370" lon="48.7647883"><time>2021-10-23T17:04:33.187</time></trkpt><trkpt lat="55.7443851" lon="48.7648036"><time>2021-10-23T17:04:56.193</time></trkpt><trkpt lat="55.7444293" lon="48.7648250"><time>2021-10-23T17:05:11.190</time></trkpt><trkpt lat="55.7444736" lon="48.7648581"><time>2021-10-23T17:05:22.190</time></trkpt><trkpt lat="55.7445113" lon="48.7649144"><time>2021-10-23T17:06:06.190</time></trkpt><trkpt lat="55.7445395" lon="48.7649777"><time>2021-10-23T17:06:18.213</time></trkpt><trkpt lat="55.7445340" lon="48.7650580"><time>2021-10-23T17:06:39.207</time></trkpt><trkpt lat="55.7445571" lon="48.7651370"><time>2021-10-23T17:06:58.220</time></trkpt><trkpt lat="55.7445832" lon="48.7652110"><time>2021-10-23T17:07:05.220</time></trkpt><trkpt lat="55.7446229" lon="48.7652511"><time>2021-10-23T17:07:13.227</time></trkpt><trkpt lat="55.7446688" lon="48.7652593"><time>2021-10-23T17:07:28.197</time></trkpt><trkpt lat="55.7447079" lon="48.7652195"><time>2021-10-23T17:08:17.187</time></trkpt><trkpt lat="55.7447328" lon="48.7652938"><time>2021-10-23T17:08:40.203</time></trkpt><trkpt lat="55.7447042" lon="48.7653613"><time>2021-10-23T17:09:02.193</time></trkpt><trkpt lat="55.7447464" lon="48.7653966"><time>2021-10-23T17:09:24.187</time></trkpt><trkpt lat="55.7448025" lon="48.7654091"><time>2021-10-23T17:09:29.193</time></trkpt><trkpt lat="55.7448479" lon="48.7654528"><time>2021-10-23T17:09:36.197</time></trkpt><trkpt lat="55.7449011" lon="48.7654698"><time>2021-10-23T17:09:41.190</time></trkpt><trkpt lat="55.7449421" lon="48.7655196"><time>2021-10-23T17:09:47.187</time></trkpt><trkpt lat="55.7449694" lon="48.7655931"><time>2021-10-23T17:09:53.190</time></trkpt><trkpt lat="55.7449736" lon="48.7656829"><time>2021-10-23T17:10:00.190</time></trkpt><trkpt lat="55.7450203" lon="48.7656902"><time>2021-10-23T17:10:07.190</time></trkpt><trkpt lat="55.7450676" lon="48.7657213"><time>2021-10-23T17:10:13.190</time></trkpt><trkpt lat="55.7450998" lon="48.7657928"><time>2021-10-23T17:10:20.190</time></trkpt><trkpt lat="55.7451281" lon="48.7658630"><time>2021-10-23T17:10:28.213</time></trkpt><trkpt lat="55.7451721" lon="48.7659006"><time>2021-10-23T17:10:37.193</time></trkpt><trkpt lat="55.7451860" lon="48.7659772"><time>2021-10-23T17:10:52.197</time></trkpt><trkpt lat="55.7451634" lon="48.7660482"><time>2021-10-23T17:11:20.213</time></trkpt><trkpt lat="55.7452042" lon="48.7660865"><time>2021-10-23T17:11:26.217</time></trkpt><trkpt lat="55.7452367" lon="48.7661606"><time>2021-10-23T17:11:31.210</time></trkpt><trkpt lat="55.7452761" lon="48.7662120"><time>2021-10-23T17:11:36.230</time></trkpt><trkpt lat="55.7453216" lon="48.7662254"><time>2021-10-23T17:11:42.213</time></trkpt><trkpt lat="55.7453709" lon="48.7662283"><time>2021-10-23T17:11:53.207</time></trkpt><trkpt lat="55.7454125" lon="48.7661859"><time>2021-10-23T17:12:12.217</time></trkpt><trkpt lat="55.7454574" lon="48.7661944"><time>2021-10-23T17:12:21.210</time></trkpt><trkpt lat="55.7455035" lon="48.7661791"><time>2021-10-23T17:12:29.213</time></trkpt><trkpt lat="55.7455492" lon="48.7661829"><time>2021-10-23T17:12:53.207</time></trkpt><trkpt lat="55.7455921" lon="48.7662284"><time>2021-10-23T17:13:02.220</time></trkpt><trkpt lat="55.7456313" lon="48.7661756"><time>2021-10-23T17:13:31.213</time></trkpt><trkpt lat="55.7456665" lon="48.7660990"><time>2021-10-23T17:13:36.210</time></trkpt><trkpt lat="55.7456788" lon="48.7660206"><time>2021-10-23T17:13:40.210</time></trkpt><trkpt lat="55.7456782" lon="48.7659401"><time>2021-10-23T17:13:47.213</time></trkpt><trkpt lat="55.7456799" lon="48.7658438"><time>2021-10-23T17:13:52.213</time></trkpt><trkpt lat="55.7457012" lon="48.7657521"><time>2021-10-23T17:13:57.213</time></trkpt><trkpt lat="55.7457321" lon="48.7656887"><time>2021-10-23T17:14:01.227</time></trkpt><trkpt lat="55.7457515" lon="48.7656050"><time>2021-10-23T17:14:07.220</time></trkpt><trkpt lat="55.7457687" lon="48.7655180"><time>2021-10-23T17:14:12.217</time></trkpt><trkpt lat="55.7457911" lon="48.7654333"><time>2021-10-23T17:14:19.217</time></trkpt><trkpt lat="55.7458302" lon="48.7653932"><time>2021-10-23T17:15:21.193</time></trkpt><trkpt lat="55.7458609" lon="48.7653225"><time>2021-10-23T17:15:26.217</time></trkpt><trkpt lat="55.7458932" lon="48.7652596"><time>2021-10-23T17:15:34.217</time></trkpt><trkpt lat="55.7459323" lon="48.7652039"><time>2021-10-23T17:15:42.207</time></trkpt><trkpt lat="55.7459631" lon="48.7651361"><time>2021-10-23T17:15:49.213</time></trkpt><trkpt lat="55.7459964" lon="48.7650690"><time>2021-10-23T17:15:54.187</time></trkpt><trkpt lat="55.7460309" lon="48.7650071"><time>2021-10-23T17:16:00.197</time></trkpt><trkpt lat="55.7460577" lon="48.7649392"><time>2021-10-23T17:16:08.207</time></trkpt><trkpt lat="55.7461049" lon="48.7649610"><time>2021-10-23T17:16:13.193</time></trkpt><trkpt lat="55.7461527" lon="48.7649177"><time>2021-10-23T17:16:18.197</time></trkpt><trkpt lat="55.7461834" lon="48.7648456"><time>2021-10-23T17:16:23.210</time></trkpt><trkpt lat="55.7462109" lon="48.7647649"><time>2021-10-23T17:16:28.210</time></trkpt><trkpt lat="55.7462462" lon="48.7647104"><time>2021-10-23T17:16:46.197</time></trkpt><trkpt lat="55.7462802" lon="48.7646365"><time>2021-10-23T17:16:52.197</time></trkpt><trkpt lat="55.7463122" lon="48.7645799"><time>2021-10-23T17:17:03.210</time></trkpt><trkpt lat="55.7463371" lon="48.7645134"><time>2021-10-23T17:17:08.207</time></trkpt><trkpt lat="55.7463741" lon="48.7644452"><time>2021-10-23T17:17:14.197</time></trkpt><trkpt lat="55.7464038" lon="48.7643697"><time>2021-10-23T17:17:26.210</time></trkpt><trkpt lat="55.7464335" lon="48.7643086"><time>2021-10-23T17:17:31.210</time></trkpt><trkpt lat="55.7464720" lon="48.7642513"><time>2021-10-23T17:17:39.207</time></trkpt><trkpt lat="55.7464980" lon="48.7641859"><time>2021-10-23T17:17:44.203</time></trkpt><trkpt lat="55.7465327" lon="48.7641135"><time>2021-10-23T17:17:50.200</time></trkpt><trkpt lat="55.7465637" lon="48.7640478"><time>2021-10-23T17:17:56.210</time></trkpt><trkpt lat="55.7465903" lon="48.7639661"><time>2021-10-23T17:18:03.203</time></trkpt><trkpt lat="55.7466177" lon="48.7639017"><time>2021-10-23T17:18:08.217</time></trkpt><trkpt lat="55.7466452" lon="48.7638209"><time>2021-10-23T17:18:13.190</time></trkpt><trkpt lat="55.7466682" lon="48.7637499"><time>2021-10-23T17:18:18.183</time></trkpt><trkpt lat="55.7466885" lon="48.7636788"><time>2021-10-23T17:18:22.207</time></trkpt><trkpt lat="55.7467186" lon="48.7635966"><time>2021-10-23T17:18:27.197</time></trkpt><trkpt lat="55.7467456" lon="48.7635240"><time>2021-10-23T17:18:32.200</time></trkpt><trkpt lat="55.7467768" lon="48.7634519"><time>2021-10-23T17:18:37.190</time></trkpt><trkpt lat="55.7468113" lon="48.7633828"><time>2021-10-23T17:18:42.200</time></trkpt><trkpt lat="55.7468342" lon="48.7633065"><time>2021-10-23T17:18:48.200</time></trkpt><trkpt lat="55.7468639" lon="48.7632335"><time>2021-10-23T17:18:54.203</time></trkpt><trkpt lat="55.7468892" lon="48.7631565"><time>2021-10-23T17:18:59.217</time></trkpt><trkpt lat="55.7469200" lon="48.7630783"><time>2021-10-23T17:19:04.207</time></trkpt><trkpt lat="55.7469504" lon="48.7629937"><time>2021-10-23T17:19:09.197</time></trkpt><trkpt lat="55.7469749" lon="48.7629085"><time>2021-10-23T17:19:14.220</time></trkpt><trkpt lat="55.7470059" lon="48.7628280"><time>2021-10-23T17:19:19.177</time></trkpt><trkpt lat="55.7470349" lon="48.7627573"><time>2021-10-23T17:19:24.207</time></trkpt><trkpt lat="55.7470237" lon="48.7628359"><time>2021-10-23T17:19:33.200</time></trkpt><trkpt lat="55.7470740" lon="48.7628717"><time>2021-10-23T17:19:42.203</time></trkpt><trkpt lat="55.7471164" lon="48.7629051"><time>2021-10-23T17:19:46.207</time></trkpt><trkpt lat="55.7471623" lon="48.7629204"><time>2021-10-23T17:20:02.207</time></trkpt><trkpt lat="55.7472015" lon="48.7629635"><time>2021-10-23T17:20:16.193</time></trkpt><trkpt lat="55.7472443" lon="48.7629964"><time>2021-10-23T17:20:26.187</time></trkpt><trkpt lat="55.7472869" lon="48.7630388"><time>2021-10-23T17:20:36.203</time></trkpt><trkpt lat="55.7473176" lon="48.7630996"><time>2021-10-23T17:20:43.187</time></trkpt><trkpt lat="55.7473581" lon="48.7631412"><time>2021-10-23T17:20:52.193</time></trkpt><trkpt lat="55.7473954" lon="48.7631938"><time>2021-10-23T17:21:05.197</time></trkpt><trkpt lat="55.7474413" lon="48.7632016"><time>2021-10-23T17:21:39.180</time></trkpt><trkpt lat="55.7474726" lon="48.7631357"><time>2021-10-23T17:21:50.213</time></trkpt><trkpt lat="55.7475065" lon="48.7630731"><time>2021-10-23T17:21:56.193</time></trkpt><trkpt lat="55.7475294" lon="48.7629808"><time>2021-10-23T17:22:01.187</time></trkpt><trkpt lat="55.7475498" lon="48.7629010"><time>2021-10-23T17:22:05.277</time></trkpt><trkpt lat="55.7475699" lon="48.7628243"><time>2021-10-23T17:22:12.193</time></trkpt><trkpt lat="55.7475900" lon="48.7627527"><time>2021-10-23T17:22:17.210</time></trkpt><trkpt lat="55.7476065" lon="48.7626735"><time>2021-10-23T17:22:23.190</time></trkpt><trkpt lat="55.7476315" lon="48.7625983"><time>2021-10-23T17:22:30.190</time></trkpt><trkpt lat="55.7476493" lon="48.7625237"><time>2021-10-23T17:22:35.193</time></trkpt><trkpt lat="55.7476710" lon="48.7624518"><time>2021-10-23T17:22:39.203</time></trkpt><trkpt lat="55.7476943" lon="48.7623599"><time>2021-10-23T17:22:43.193</time></trkpt><trkpt lat="55.7477204" lon="48.7622895"><time>2021-10-23T17:22:48.207</time></trkpt><trkpt lat="55.7477422" lon="48.7622031"><time>2021-10-23T17:22:53.200</time></trkpt><trkpt lat="55.7477663" lon="48.7621226"><time>2021-10-23T17:22:58.207</time></trkpt><trkpt lat="55.7477889" lon="48.7620466"><time>2021-10-23T17:23:05.197</time></trkpt><trkpt lat="55.7478149" lon="48.7619667"><time>2021-10-23T17:23:10.207</time></trkpt><trkpt lat="55.7478297" lon="48.7618806"><time>2021-10-23T17:23:14.190</time></trkpt><trkpt lat="55.7478552" lon="48.7618075"><time>2021-10-23T17:23:19.213</time></trkpt><trkpt lat="55.7478813" lon="48.7617386"><time>2021-10-23T17:23:25.230</time></trkpt><trkpt lat="55.7479134" lon="48.7616763"><time>2021-10-23T17:23:31.187</time></trkpt><trkpt lat="55.7479381" lon="48.7616082"><time>2021-10-23T17:23:36.207</time></trkpt><trkpt lat="55.7479662" lon="48.7615353"><time>2021-10-23T17:23:41.210</time></trkpt><trkpt lat="55.7479883" lon="48.7614566"><time>2021-10-23T17:23:46.187</time></trkpt><trkpt lat="55.7480067" lon="48.7613807"><time>2021-10-23T17:23:51.190</time></trkpt><trkpt lat="55.7480268" lon="48.7612984"><time>2021-10-23T17:23:57.190</time></trkpt><trkpt lat="55.7480466" lon="48.7612155"><time>2021-10-23T17:24:03.190</time></trkpt><trkpt lat="55.7480647" lon="48.7611393"><time>2021-10-23T17:24:08.193</time></trkpt><trkpt lat="55.7480940" lon="48.7610574"><time>2021-10-23T17:24:13.197</time></trkpt><trkpt lat="55.7481233" lon="48.7609741"><time>2021-10-23T17:24:18.190</time></trkpt><trkpt lat="55.7481465" lon="48.7608943"><time>2021-10-23T17:24:22.193</time></trkpt><trkpt lat="55.7481758" lon="48.7608115"><time>2021-10-23T17:24:26.187</time></trkpt><trkpt lat="55.7482012" lon="48.7607361"><time>2021-10-23T17:24:30.203</time></trkpt><trkpt lat="55.7482217" lon="48.7606576"><time>2021-10-23T17:24:34.207</time></trkpt><trkpt lat="55.7482495" lon="48.7605817"><time>2021-10-23T17:24:38.180</time></trkpt><trkpt lat="55.7482744" lon="48.7605004"><time>2021-10-23T17:24:43.187</time></trkpt><trkpt lat="55.7482939" lon="48.7604044"><time>2021-10-23T17:24:48.187</time></trkpt><trkpt lat="55.7483136" lon="48.7603167"><time>2021-10-23T17:24:53.197</time></trkpt><trkpt lat="55.7483395" lon="48.7602434"><time>2021-10-23T17:24:59.190</time></trkpt><trkpt lat="55.7483671" lon="48.7601702"><time>2021-10-23T17:25:03.200</time></trkpt><trkpt lat="55.7483985" lon="48.7600948"><time>2021-10-23T17:25:08.177</time></trkpt><trkpt lat="55.7484227" lon="48.7600227"><time>2021-10-23T17:25:12.200</time></trkpt><trkpt lat="55.7484486" lon="48.7599421"><time>2021-10-23T17:25:16.193</time></trkpt><trkpt lat="55.7484588" lon="48.7598616"><time>2021-10-23T17:25:20.213</time></trkpt><trkpt lat="55.7484702" lon="48.7597789"><time>2021-10-23T17:25:24.207</time></trkpt><trkpt lat="55.7484949" lon="48.7597048"><time>2021-10-23T17:25:28.213</time></trkpt><trkpt lat="55.7485408" lon="48.7596597"><time>2021-10-23T17:25:32.227</time></trkpt><trkpt lat="55.7485737" lon="48.7595947"><time>2021-10-23T17:25:36.207</time></trkpt><trkpt lat="55.7485917" lon="48.7595125"><time>2021-10-23T17:25:41.207</time></trkpt><trkpt lat="55.7486125" lon="48.7594302"><time>2021-10-23T17:25:46.193</time></trkpt><trkpt lat="55.7486388" lon="48.7593566"><time>2021-10-23T17:25:50.203</time></trkpt><trkpt lat="55.7486632" lon="48.7592880"><time>2021-10-23T17:25:54.203</time></trkpt><trkpt lat="55.7486825" lon="48.7592042"><time>2021-10-23T17:26:00.210</time></trkpt><trkpt lat="55.7487052" lon="48.7591287"><time>2021-10-23T17:26:05.207</time></trkpt><trkpt lat="55.7487217" lon="48.7590316"><time>2021-10-23T17:26:10.213</time></trkpt><trkpt lat="55.7487549" lon="48.7589555"><time>2021-10-23T17:26:14.213</time></trkpt><trkpt lat="55.7487725" lon="48.7588721"><time>2021-10-23T17:26:20.217</time></trkpt><trkpt lat="55.7487976" lon="48.7588011"><time>2021-10-23T17:26:25.210</time></trkpt><trkpt lat="55.7488309" lon="48.7587356"><time>2021-10-23T17:26:30.210</time></trkpt><trkpt lat="55.7488545" lon="48.7586619"><time>2021-10-23T17:26:34.203</time></trkpt><trkpt lat="55.7488756" lon="48.7585742"><time>2021-10-23T17:26:38.207</time></trkpt><trkpt lat="55.7489017" lon="48.7584826"><time>2021-10-23T17:26:42.193</time></trkpt><trkpt lat="55.7489257" lon="48.7584027"><time>2021-10-23T17:26:46.193</time></trkpt><trkpt lat="55.7489629" lon="48.7583245"><time>2021-10-23T17:26:50.183</time></trkpt><trkpt lat="55.7490021" lon="48.7582535"><time>2021-10-23T17:26:54.183</time></trkpt><trkpt lat="55.7490374" lon="48.7581853"><time>2021-10-23T17:26:59.190</time></trkpt><trkpt lat="55.7490514" lon="48.7581010"><time>2021-10-23T17:27:04.207</time></trkpt><trkpt lat="55.7490630" lon="48.7580225"><time>2021-10-23T17:27:09.190</time></trkpt><trkpt lat="55.7490879" lon="48.7579358"><time>2021-10-23T17:27:14.197</time></trkpt><trkpt lat="55.7491176" lon="48.7578724"><time>2021-10-23T17:27:18.197</time></trkpt><trkpt lat="55.7491380" lon="48.7577946"><time>2021-10-23T17:27:22.200</time></trkpt><trkpt lat="55.7491616" lon="48.7577212"><time>2021-10-23T17:27:26.203</time></trkpt><trkpt lat="55.7491855" lon="48.7576480"><time>2021-10-23T17:27:30.190</time></trkpt><trkpt lat="55.7492066" lon="48.7575772"><time>2021-10-23T17:27:34.203</time></trkpt><trkpt lat="55.7492359" lon="48.7574941"><time>2021-10-23T17:27:39.210</time></trkpt><trkpt lat="55.7492614" lon="48.7574122"><time>2021-10-23T17:27:43.203</time></trkpt><trkpt lat="55.7492835" lon="48.7573334"><time>2021-10-23T17:27:47.213</time></trkpt><trkpt lat="55.7493026" lon="48.7572459"><time>2021-10-23T17:27:53.193</time></trkpt><trkpt lat="55.7493373" lon="48.7571736"><time>2021-10-23T17:27:58.210</time></trkpt><trkpt lat="55.7493602" lon="48.7571011"><time>2021-10-23T17:28:02.210</time></trkpt><trkpt lat="55.7493858" lon="48.7570299"><time>2021-10-23T17:28:06.210</time></trkpt><trkpt lat="55.7494103" lon="48.7569468"><time>2021-10-23T17:28:11.213</time></trkpt><trkpt lat="55.7494310" lon="48.7568750"><time>2021-10-23T17:28:15.227</time></trkpt><trkpt lat="55.7494559" lon="48.7567938"><time>2021-10-23T17:28:20.213</time></trkpt><trkpt lat="55.7494756" lon="48.7567027"><time>2021-10-23T17:28:25.210</time></trkpt><trkpt lat="55.7494904" lon="48.7566177"><time>2021-10-23T17:28:31.207</time></trkpt><trkpt lat="55.7495168" lon="48.7565487"><time>2021-10-23T17:28:36.210</time></trkpt><trkpt lat="55.7495332" lon="48.7564739"><time>2021-10-23T17:28:41.207</time></trkpt><trkpt lat="55.7495585" lon="48.7564049"><time>2021-10-23T17:28:46.213</time></trkpt><trkpt lat="55.7495869" lon="48.7563309"><time>2021-10-23T17:28:51.207</time></trkpt><trkpt lat="55.7496106" lon="48.7562598"><time>2021-10-23T17:28:55.193</time></trkpt><trkpt lat="55.7496279" lon="48.7561859"><time>2021-10-23T17:28:59.193</time></trkpt><trkpt lat="55.7496537" lon="48.7561109"><time>2021-10-23T17:29:03.207</time></trkpt><trkpt lat="55.7496756" lon="48.7560360"><time>2021-10-23T17:29:07.207</time></trkpt><trkpt lat="55.7497001" lon="48.7559601"><time>2021-10-23T17:29:11.210</time></trkpt><trkpt lat="55.7497304" lon="48.7558876"><time>2021-10-23T17:29:15.203</time></trkpt><trkpt lat="55.7497516" lon="48.7558134"><time>2021-10-23T17:29:19.213</time></trkpt><trkpt lat="55.7497767" lon="48.7557307"><time>2021-10-23T17:29:24.207</time></trkpt><trkpt lat="55.7498100" lon="48.7556531"><time>2021-10-23T17:29:29.213</time></trkpt><trkpt lat="55.7498299" lon="48.7555770"><time>2021-10-23T17:29:33.207</time></trkpt><trkpt lat="55.7498458" lon="48.7554858"><time>2021-10-23T17:29:38.203</time></trkpt><trkpt lat="55.7498692" lon="48.7553946"><time>2021-10-23T17:29:43.217</time></trkpt><trkpt lat="55.7498983" lon="48.7553271"><time>2021-10-23T17:29:47.210</time></trkpt><trkpt lat="55.7499220" lon="48.7552440"><time>2021-10-23T17:29:51.187</time></trkpt><trkpt lat="55.7499401" lon="48.7551658"><time>2021-10-23T17:29:55.193</time></trkpt><trkpt lat="55.7499647" lon="48.7550836"><time>2021-10-23T17:30:01.207</time></trkpt><trkpt lat="55.7499562" lon="48.7549851"><time>2021-10-23T17:30:06.203</time></trkpt><trkpt lat="55.7499329" lon="48.7548948"><time>2021-10-23T17:30:10.187</time></trkpt><trkpt lat="55.7499176" lon="48.7548164"><time>2021-10-23T17:30:14.203</time></trkpt><trkpt lat="55.7499047" lon="48.7547214"><time>2021-10-23T17:30:19.190</time></trkpt><trkpt lat="55.7498911" lon="48.7546352"><time>2021-10-23T17:30:23.220</time></trkpt><trkpt lat="55.7498859" lon="48.7545554"><time>2021-10-23T17:30:27.213</time></trkpt><trkpt lat="55.7498996" lon="48.7544596"><time>2021-10-23T17:30:32.207</time></trkpt><trkpt lat="55.7499201" lon="48.7543726"><time>2021-10-23T17:30:36.203</time></trkpt><trkpt lat="55.7499243" lon="48.7542840"><time>2021-10-23T17:30:40.207</time></trkpt><trkpt lat="55.7499211" lon="48.7541853"><time>2021-10-23T17:30:50.203</time></trkpt><trkpt lat="55.7498831" lon="48.7541284"><time>2021-10-23T17:30:53.203</time></trkpt><trkpt lat="55.7498514" lon="48.7540677"><time>2021-10-23T17:30:57.183</time></trkpt><trkpt lat="55.7498114" lon="48.7540189"><time>2021-10-23T17:31:01.187</time></trkpt><trkpt lat="55.7498126" lon="48.7539262"><time>2021-10-23T17:31:09.210</time></trkpt><trkpt lat="55.7498282" lon="48.7538373"><time>2021-10-23T17:31:14.203</time></trkpt><trkpt lat="55.7498365" lon="48.7537534"><time>2021-10-23T17:31:19.207</time></trkpt><trkpt lat="55.7498557" lon="48.7536667"><time>2021-10-23T17:31:24.203</time></trkpt><trkpt lat="55.7498472" lon="48.7535874"><time>2021-10-23T17:31:29.207</time></trkpt><trkpt lat="55.7498598" lon="48.7535014"><time>2021-10-23T17:31:33.193</time></trkpt><trkpt lat="55.7498672" lon="48.7534145"><time>2021-10-23T17:31:37.190</time></trkpt><trkpt lat="55.7498757" lon="48.7533313"><time>2021-10-23T17:31:41.210</time></trkpt><trkpt lat="55.7499098" lon="48.7532656"><time>2021-10-23T17:44:43.187</time></trkpt><trkpt lat="55.7499572" lon="48.7532112"><time>2021-10-23T17:44:48.200</time></trkpt><trkpt lat="55.7499974" lon="48.7531663"><time>2021-10-23T17:44:52.200</time></trkpt><trkpt lat="55.7500375" lon="48.7531257"><time>2021-10-23T17:44:56.200</time></trkpt><trkpt lat="55.7500773" lon="48.7530855"><time>2021-10-23T17:45:00.200</time></trkpt><trkpt lat="55.7501180" lon="48.7530380"><time>2021-10-23T17:45:05.190</time></trkpt><trkpt lat="55.7501398" lon="48.7529668"><time>2021-10-23T17:45:09.193</time></trkpt><trkpt lat="55.7501624" lon="48.7528826"><time>2021-10-23T17:45:13.193</time></trkpt><trkpt lat="55.7501857" lon="48.7527908"><time>2021-10-23T17:45:17.313</time></trkpt><trkpt lat="55.7501938" lon="48.7527000"><time>2021-10-23T17:45:21.357</time></trkpt><trkpt lat="55.7501901" lon="48.7526126"><time>2021-10-23T17:45:25.367</time></trkpt><trkpt lat="55.7502012" lon="48.7525214"><time>2021-10-23T17:45:29.373</time></trkpt><trkpt lat="55.7502182" lon="48.7524366"><time>2021-10-23T17:45:33.353</time></trkpt><trkpt lat="55.7502385" lon="48.7523465"><time>2021-10-23T17:45:38.360</time></trkpt><trkpt lat="55.7502556" lon="48.7522595"><time>2021-10-23T17:45:43.373</time></trkpt><trkpt lat="55.7502696" lon="48.7521802"><time>2021-10-23T17:45:47.363</time></trkpt><trkpt lat="55.7502902" lon="48.7520995"><time>2021-10-23T17:45:51.207</time></trkpt><trkpt lat="55.7503125" lon="48.7520192"><time>2021-10-23T17:45:55.203</time></trkpt><trkpt lat="55.7503283" lon="48.7519426"><time>2021-10-23T17:45:59.210</time></trkpt><trkpt lat="55.7503442" lon="48.7518572"><time>2021-10-23T17:46:03.183</time></trkpt><trkpt lat="55.7503596" lon="48.7517763"><time>2021-10-23T17:46:07.200</time></trkpt><trkpt lat="55.7503779" lon="48.7516810"><time>2021-10-23T17:46:12.210</time></trkpt><trkpt lat="55.7503941" lon="48.7515954"><time>2021-10-23T17:46:16.193</time></trkpt><trkpt lat="55.7504040" lon="48.7515130"><time>2021-10-23T17:46:20.207</time></trkpt><trkpt lat="55.7504180" lon="48.7514280"><time>2021-10-23T17:46:24.170</time></trkpt><trkpt lat="55.7504229" lon="48.7513424"><time>2021-10-23T17:46:28.207</time></trkpt><trkpt lat="55.7504298" lon="48.7512588"><time>2021-10-23T17:46:32.277</time></trkpt><trkpt lat="55.7504455" lon="48.7511653"><time>2021-10-23T17:46:36.317</time></trkpt><trkpt lat="55.7504550" lon="48.7510638"><time>2021-10-23T17:46:40.263</time></trkpt><trkpt lat="55.7504663" lon="48.7509722"><time>2021-10-23T17:46:44.327</time></trkpt><trkpt lat="55.7504717" lon="48.7508743"><time>2021-10-23T17:46:49.330</time></trkpt><trkpt lat="55.7504841" lon="48.7507886"><time>2021-10-23T17:46:53.333</time></trkpt><trkpt lat="55.7505081" lon="48.7507117"><time>2021-10-23T17:46:57.357</time></trkpt><trkpt lat="55.7505135" lon="48.7506265"><time>2021-10-23T17:47:01.327</time></trkpt><trkpt lat="55.7505304" lon="48.7505426"><time>2021-10-23T17:47:05.200</time></trkpt><trkpt lat="55.7505501" lon="48.7504559"><time>2021-10-23T17:47:09.360</time></trkpt><trkpt lat="55.7505724" lon="48.7503735"><time>2021-10-23T17:47:13.200</time></trkpt><trkpt lat="55.7505919" lon="48.7502896"><time>2021-10-23T17:47:17.353</time></trkpt><trkpt lat="55.7506100" lon="48.7502003"><time>2021-10-23T17:47:22.193</time></trkpt><trkpt lat="55.7506256" lon="48.7501168"><time>2021-10-23T17:47:27.187</time></trkpt><trkpt lat="55.7506402" lon="48.7500225"><time>2021-10-23T17:47:31.190</time></trkpt><trkpt lat="55.7506524" lon="48.7499274"><time>2021-10-23T17:47:35.207</time></trkpt><trkpt lat="55.7506605" lon="48.7498345"><time>2021-10-23T17:47:39.277</time></trkpt><trkpt lat="55.7506720" lon="48.7497345"><time>2021-10-23T17:47:43.257</time></trkpt><trkpt lat="55.7506856" lon="48.7496328"><time>2021-10-23T17:47:47.197</time></trkpt><trkpt lat="55.7507068" lon="48.7495390"><time>2021-10-23T17:47:51.377</time></trkpt><trkpt lat="55.7507192" lon="48.7494561"><time>2021-10-23T17:47:55.203</time></trkpt><trkpt lat="55.7507304" lon="48.7493773"><time>2021-10-23T17:47:59.197</time></trkpt><trkpt lat="55.7507463" lon="48.7492948"><time>2021-10-23T17:48:03.203</time></trkpt><trkpt lat="55.7507702" lon="48.7492047"><time>2021-10-23T17:48:08.197</time></trkpt><trkpt lat="55.7507832" lon="48.7491171"><time>2021-10-23T17:48:12.227</time></trkpt><trkpt lat="55.7508021" lon="48.7490347"><time>2021-10-23T17:48:16.223</time></trkpt><trkpt lat="55.7508289" lon="48.7489624"><time>2021-10-23T17:48:20.267</time></trkpt><trkpt lat="55.7508485" lon="48.7488697"><time>2021-10-23T17:48:24.197</time></trkpt><trkpt lat="55.7508660" lon="48.7487771"><time>2021-10-23T17:48:29.263</time></trkpt><trkpt lat="55.7508907" lon="48.7486927"><time>2021-10-23T17:48:34.200</time></trkpt><trkpt lat="55.7509073" lon="48.7486116"><time>2021-10-23T17:48:38.200</time></trkpt><trkpt lat="55.7509222" lon="48.7485227"><time>2021-10-23T17:48:42.340</time></trkpt><trkpt lat="55.7509381" lon="48.7484370"><time>2021-10-23T17:48:46.363</time></trkpt><trkpt lat="55.7509589" lon="48.7483601"><time>2021-10-23T17:48:50.353</time></trkpt><trkpt lat="55.7509809" lon="48.7482901"><time>2021-10-23T17:48:54.300</time></trkpt><trkpt lat="55.7510104" lon="48.7482202"><time>2021-10-23T17:48:58.343</time></trkpt><trkpt lat="55.7510289" lon="48.7481277"><time>2021-10-23T17:49:02.220</time></trkpt><trkpt lat="55.7510438" lon="48.7480365"><time>2021-10-23T17:49:06.200</time></trkpt><trkpt lat="55.7510636" lon="48.7479551"><time>2021-10-23T17:49:10.233</time></trkpt><trkpt lat="55.7510750" lon="48.7478700"><time>2021-10-23T17:49:14.210</time></trkpt><trkpt lat="55.7510918" lon="48.7477847"><time>2021-10-23T17:49:18.233</time></trkpt><trkpt lat="55.7511049" lon="48.7476926"><time>2021-10-23T17:49:23.230</time></trkpt><trkpt lat="55.7511237" lon="48.7476018"><time>2021-10-23T17:49:28.220</time></trkpt><trkpt lat="55.7511504" lon="48.7475280"><time>2021-10-23T17:49:32.343</time></trkpt><trkpt lat="55.7511674" lon="48.7474345"><time>2021-10-23T17:49:37.337</time></trkpt><trkpt lat="55.7511923" lon="48.7473492"><time>2021-10-23T17:49:41.293</time></trkpt><trkpt lat="55.7512143" lon="48.7472562"><time>2021-10-23T17:49:45.313</time></trkpt><trkpt lat="55.7512068" lon="48.7471724"><time>2021-10-23T17:49:49.327</time></trkpt><trkpt lat="55.7512509" lon="48.7471059"><time>2021-10-23T17:49:53.267</time></trkpt><trkpt lat="55.7512875" lon="48.7470374"><time>2021-10-23T17:49:57.327</time></trkpt><trkpt lat="55.7513053" lon="48.7469628"><time>2021-10-23T17:50:01.360</time></trkpt><trkpt lat="55.7513276" lon="48.7468823"><time>2021-10-23T17:50:06.367</time></trkpt><trkpt lat="55.7513392" lon="48.7467999"><time>2021-10-23T17:50:10.337</time></trkpt><trkpt lat="55.7513544" lon="48.7467190"><time>2021-10-23T17:50:14.300</time></trkpt><trkpt lat="55.7513657" lon="48.7466302"><time>2021-10-23T17:50:18.433</time></trkpt><trkpt lat="55.7513706" lon="48.7465483"><time>2021-10-23T17:50:22.373</time></trkpt><trkpt lat="55.7513825" lon="48.7464579"><time>2021-10-23T17:50:27.177</time></trkpt><trkpt lat="55.7514031" lon="48.7463807"><time>2021-10-23T17:50:31.207</time></trkpt><trkpt lat="55.7514238" lon="48.7462991"><time>2021-10-23T17:50:35.203</time></trkpt><trkpt lat="55.7514394" lon="48.7462215"><time>2021-10-23T17:50:39.210</time></trkpt><trkpt lat="55.7514582" lon="48.7461359"><time>2021-10-23T17:50:43.207</time></trkpt><trkpt lat="55.7514768" lon="48.7460516"><time>2021-10-23T17:50:47.207</time></trkpt><trkpt lat="55.7514956" lon="48.7459658"><time>2021-10-23T17:50:51.567</time></trkpt><trkpt lat="55.7515133" lon="48.7458842"><time>2021-10-23T17:50:55.363</time></trkpt><trkpt lat="55.7515349" lon="48.7458109"><time>2021-10-23T17:50:59.363</time></trkpt><trkpt lat="55.7515526" lon="48.7457315"><time>2021-10-23T17:51:03.357</time></trkpt><trkpt lat="55.7515695" lon="48.7456466"><time>2021-10-23T17:51:08.200</time></trkpt><trkpt lat="55.7515824" lon="48.7455545"><time>2021-10-23T17:51:13.183</time></trkpt><trkpt lat="55.7516028" lon="48.7454720"><time>2021-10-23T17:51:18.200</time></trkpt><trkpt lat="55.7516200" lon="48.7453815"><time>2021-10-23T17:51:22.200</time></trkpt><trkpt lat="55.7516108" lon="48.7452887"><time>2021-10-23T17:51:26.203</time></trkpt><trkpt lat="55.7515882" lon="48.7451972"><time>2021-10-23T17:51:30.220</time></trkpt><trkpt lat="55.7515709" lon="48.7451073"><time>2021-10-23T17:51:34.200</time></trkpt><trkpt lat="55.7515611" lon="48.7450139"><time>2021-10-23T17:51:38.207</time></trkpt><trkpt lat="55.7515413" lon="48.7449381"><time>2021-10-23T17:51:41.283</time></trkpt><trkpt lat="55.7515258" lon="48.7448430"><time>2021-10-23T17:51:45.207</time></trkpt><trkpt lat="55.7514999" lon="48.7447614"><time>2021-10-23T17:51:49.207</time></trkpt><trkpt lat="55.7514796" lon="48.7446744"><time>2021-10-23T17:51:53.283</time></trkpt><trkpt lat="55.7514649" lon="48.7445898"><time>2021-10-23T17:51:56.220</time></trkpt><trkpt lat="55.7514449" lon="48.7445143"><time>2021-10-23T17:51:59.210</time></trkpt><trkpt lat="55.7514268" lon="48.7444193"><time>2021-10-23T17:52:03.223</time></trkpt><trkpt lat="55.7513804" lon="48.7443632"><time>2021-10-23T17:52:13.200</time></trkpt><trkpt lat="55.7513291" lon="48.7443132"><time>2021-10-23T17:52:17.337</time></trkpt><trkpt lat="55.7512878" lon="48.7442707"><time>2021-10-23T17:52:20.363</time></trkpt><trkpt lat="55.7512443" lon="48.7442192"><time>2021-10-23T17:52:24.287</time></trkpt><trkpt lat="55.7512066" lon="48.7441663"><time>2021-10-23T17:52:28.363</time></trkpt><trkpt lat="55.7511644" lon="48.7441059"><time>2021-10-23T17:52:32.430</time></trkpt><trkpt lat="55.7511235" lon="48.7440385"><time>2021-10-23T17:52:37.360</time></trkpt><trkpt lat="55.7510724" lon="48.7439929"><time>2021-10-23T17:52:41.373</time></trkpt><trkpt lat="55.7510306" lon="48.7439623"><time>2021-10-23T17:52:44.320</time></trkpt><trkpt lat="55.7509833" lon="48.7439565"><time>2021-10-23T17:52:48.430</time></trkpt><trkpt lat="55.7509428" lon="48.7440175"><time>2021-10-23T17:52:52.337</time></trkpt><trkpt lat="55.7509018" lon="48.7440763"><time>2021-10-23T17:52:56.303</time></trkpt><trkpt lat="55.7508584" lon="48.7440531"><time>2021-10-23T17:53:04.190</time></trkpt><trkpt lat="55.7508972" lon="48.7441007"><time>2021-10-23T17:54:06.220</time></trkpt><trkpt lat="55.7508985" lon="48.7441940"><time>2021-10-23T17:54:11.250</time></trkpt><trkpt lat="55.7508725" lon="48.7442663"><time>2021-10-23T17:54:15.360</time></trkpt><trkpt lat="55.7508372" lon="48.7443399"><time>2021-10-23T17:54:19.203</time></trkpt><trkpt lat="55.7507997" lon="48.7443932"><time>2021-10-23T17:54:22.303</time></trkpt><trkpt lat="55.7507667" lon="48.7444687"><time>2021-10-23T17:54:26.293</time></trkpt><trkpt lat="55.7507304" lon="48.7445221"><time>2021-10-23T17:54:31.197</time></trkpt><trkpt lat="55.7507096" lon="48.7445963"><time>2021-10-23T17:54:35.193</time></trkpt><trkpt lat="55.7506939" lon="48.7446934"><time>2021-10-23T17:54:40.193</time></trkpt><trkpt lat="55.7506803" lon="48.7447756"><time>2021-10-23T17:54:44.183</time></trkpt><trkpt lat="55.7506724" lon="48.7448640"><time>2021-10-23T17:54:48.207</time></trkpt><trkpt lat="55.7506532" lon="48.7449544"><time>2021-10-23T17:54:52.193</time></trkpt><trkpt lat="55.7506336" lon="48.7450330"><time>2021-10-23T17:54:56.197</time></trkpt><trkpt lat="55.7506079" lon="48.7451044"><time>2021-10-23T17:55:00.197</time></trkpt><trkpt lat="55.7505795" lon="48.7451781"><time>2021-10-23T17:55:05.197</time></trkpt><trkpt lat="55.7505528" lon="48.7452610"><time>2021-10-23T17:55:10.267</time></trkpt><trkpt lat="55.7505306" lon="48.7453389"><time>2021-10-23T17:55:15.213</time></trkpt><trkpt lat="55.7504871" lon="48.7453678"><time>2021-10-23T17:55:21.250</time></trkpt><trkpt lat="55.7504415" lon="48.7453370"><time>2021-10-23T17:55:26.200</time></trkpt><trkpt lat="55.7503935" lon="48.7452902"><time>2021-10-23T17:55:31.210</time></trkpt><trkpt lat="55.7503496" lon="48.7452483"><time>2021-10-23T17:55:35.207</time></trkpt><trkpt lat="55.7503020" lon="48.7451997"><time>2021-10-23T17:55:39.283</time></trkpt><trkpt lat="55.7502510" lon="48.7451614"><time>2021-10-23T17:55:43.213</time></trkpt><trkpt lat="55.7502094" lon="48.7451177"><time>2021-10-23T17:55:47.213</time></trkpt><trkpt lat="55.7501648" lon="48.7450918"><time>2021-10-23T17:55:51.267</time></trkpt><trkpt lat="55.7501185" lon="48.7450723"><time>2021-10-23T17:55:55.200</time></trkpt><trkpt lat="55.7500781" lon="48.7450341"><time>2021-10-23T17:56:01.217</time></trkpt><trkpt lat="55.7500355" lon="48.7449986"><time>2021-10-23T17:56:05.213</time></trkpt><trkpt lat="55.7499871" lon="48.7449830"><time>2021-10-23T17:56:09.283</time></trkpt><trkpt lat="55.7499391" lon="48.7449779"><time>2021-10-23T17:56:15.297</time></trkpt><trkpt lat="55.7498950" lon="48.7449315"><time>2021-10-23T17:56:19.217</time></trkpt><trkpt lat="55.7498466" lon="48.7448906"><time>2021-10-23T17:56:24.193</time></trkpt><trkpt lat="55.7498034" lon="48.7448492"><time>2021-10-23T17:56:28.200</time></trkpt><trkpt lat="55.7497513" lon="48.7448158"><time>2021-10-23T17:56:33.213</time></trkpt><trkpt lat="55.7497136" lon="48.7447643"><time>2021-10-23T17:56:37.213</time></trkpt><trkpt lat="55.7496877" lon="48.7446735"><time>2021-10-23T17:56:41.217</time></trkpt><trkpt lat="55.7496562" lon="48.7446062"><time>2021-10-23T17:56:45.217</time></trkpt><trkpt lat="55.7496140" lon="48.7445723"><time>2021-10-23T17:56:49.210</time></trkpt><trkpt lat="55.7495628" lon="48.7445594"><time>2021-10-23T17:56:53.213</time></trkpt><trkpt lat="55.7495160" lon="48.7445443"><time>2021-10-23T17:56:57.217</time></trkpt><trkpt lat="55.7494673" lon="48.7445102"><time>2021-10-23T17:57:02.297</time></trkpt><trkpt lat="55.7494848" lon="48.7444155"><time>2021-10-23T17:57:19.217</time></trkpt><trkpt lat="55.7495089" lon="48.7443383"><time>2021-10-23T17:57:22.190</time></trkpt><trkpt lat="55.7495330" lon="48.7442579"><time>2021-10-23T17:57:25.203</time></trkpt><trkpt lat="55.7495706" lon="48.7441866"><time>2021-10-23T17:57:28.187</time></trkpt><trkpt lat="55.7496001" lon="48.7441027"><time>2021-10-23T17:57:31.200</time></trkpt><trkpt lat="55.7496242" lon="48.7440177"><time>2021-10-23T17:57:34.200</time></trkpt><trkpt lat="55.7496570" lon="48.7439304"><time>2021-10-23T17:57:38.197</time></trkpt><trkpt lat="55.7496942" lon="48.7438735"><time>2021-10-23T17:57:42.203</time></trkpt><trkpt lat="55.7497256" lon="48.7437983"><time>2021-10-23T17:57:46.203</time></trkpt><trkpt lat="55.7497461" lon="48.7437009"><time>2021-10-23T17:57:50.207</time></trkpt><trkpt lat="55.7497760" lon="48.7436257"><time>2021-10-23T17:57:54.213</time></trkpt><trkpt lat="55.7498076" lon="48.7435455"><time>2021-10-23T17:57:58.207</time></trkpt><trkpt lat="55.7498316" lon="48.7434498"><time>2021-10-23T17:58:02.263</time></trkpt><trkpt lat="55.7498550" lon="48.7433746"><time>2021-10-23T17:58:05.203</time></trkpt><trkpt lat="55.7498733" lon="48.7432953"><time>2021-10-23T17:58:08.260</time></trkpt><trkpt lat="55.7498250" lon="48.7432787"><time>2021-10-23T17:58:18.200</time></trkpt><trkpt lat="55.7497966" lon="48.7433436"><time>2021-10-23T17:58:38.187</time></trkpt><trkpt lat="55.7498504" lon="48.7433342"><time>2021-10-23T18:04:20.180</time></trkpt><trkpt lat="55.7498181" lon="48.7434132"><time>2021-10-23T18:05:22.190</time></trkpt><trkpt lat="55.7498260" lon="48.7434916"><time>2021-10-23T18:05:26.257</time></trkpt><trkpt lat="55.7498409" lon="48.7435742"><time>2021-10-23T18:05:30.320</time></trkpt><trkpt lat="55.7497908" lon="48.7435500"><time>2021-10-23T18:05:34.187</time></trkpt><trkpt lat="55.7497248" lon="48.7430700"><time>2021-10-23T18:06:01.340</time></trkpt><trkpt lat="55.7496815" lon="48.7431265"><time>2021-10-23T18:06:02.340</time></trkpt><trkpt lat="55.7493601" lon="48.7428468"><time>2021-10-23T18:06:03.313</time></trkpt><trkpt lat="55.7494873" lon="48.7430969"><time>2021-10-23T18:06:04.220</time></trkpt><trkpt lat="55.7495348" lon="48.7430488"><time>2021-10-23T18:06:10.350</time></trkpt><trkpt lat="55.7495829" lon="48.7430208"><time>2021-10-23T18:06:14.327</time></trkpt><trkpt lat="55.7496117" lon="48.7431051"><time>2021-10-23T18:06:17.367</time></trkpt><trkpt lat="55.7496288" lon="48.7431856"><time>2021-10-23T18:06:19.367</time></trkpt><trkpt lat="55.7496399" lon="48.7433028"><time>2021-10-23T18:06:22.257</time></trkpt><trkpt lat="55.7496393" lon="48.7433835"><time>2021-10-23T18:06:24.187</time></trkpt><trkpt lat="55.7496527" lon="48.7434722"><time>2021-10-23T18:06:27.203</time></trkpt><trkpt lat="55.7496620" lon="48.7435599"><time>2021-10-23T18:06:30.220</time></trkpt><trkpt lat="55.7496583" lon="48.7436531"><time>2021-10-23T18:06:34.353</time></trkpt><trkpt lat="55.7496271" lon="48.7437201"><time>2021-10-23T18:06:39.187</time></trkpt><trkpt lat="55.7495829" lon="48.7437690"><time>2021-10-23T18:06:45.480</time></trkpt><trkpt lat="55.7495258" lon="48.7437876"><time>2021-10-23T18:06:49.343</time></trkpt><trkpt lat="55.7494832" lon="48.7438368"><time>2021-10-23T18:06:52.317</time></trkpt><trkpt lat="55.7494479" lon="48.7438928"><time>2021-10-23T18:06:55.343</time></trkpt><trkpt lat="55.7494197" lon="48.7439574"><time>2021-10-23T18:06:58.280</time></trkpt><trkpt lat="55.7493851" lon="48.7440391"><time>2021-10-23T18:07:02.450</time></trkpt><trkpt lat="55.7493658" lon="48.7441133"><time>2021-10-23T18:07:06.193</time></trkpt><trkpt lat="55.7493477" lon="48.7442090"><time>2021-10-23T18:07:10.347</time></trkpt><trkpt lat="55.7493300" lon="48.7442892"><time>2021-10-23T18:07:15.483</time></trkpt><trkpt lat="55.7492783" lon="48.7443204"><time>2021-10-23T18:07:19.203</time></trkpt><trkpt lat="55.7492218" lon="48.7443055"><time>2021-10-23T18:07:23.340</time></trkpt><trkpt lat="55.7491786" lon="48.7442829"><time>2021-10-23T18:07:26.410</time></trkpt><trkpt lat="55.7491384" lon="48.7442057"><time>2021-10-23T18:07:29.197</time></trkpt><trkpt lat="55.7491074" lon="48.7441252"><time>2021-10-23T18:07:32.217</time></trkpt><trkpt lat="55.7490842" lon="48.7440437"><time>2021-10-23T18:07:35.190</time></trkpt><trkpt lat="55.7490722" lon="48.7439650"><time>2021-10-23T18:07:38.190</time></trkpt><trkpt lat="55.7490609" lon="48.7438743"><time>2021-10-23T18:07:42.197</time></trkpt><trkpt lat="55.7490164" lon="48.7438079"><time>2021-10-23T18:07:46.197</time></trkpt><trkpt lat="55.7489683" lon="48.7437827"><time>2021-10-23T18:07:49.317</time></trkpt><trkpt lat="55.7489209" lon="48.7437552"><time>2021-10-23T18:07:52.250</time></trkpt><trkpt lat="55.7488828" lon="48.7437053"><time>2021-10-23T18:07:55.307</time></trkpt><trkpt lat="55.7488333" lon="48.7436680"><time>2021-10-23T18:07:58.203</time></trkpt><trkpt lat="55.7487841" lon="48.7436520"><time>2021-10-23T18:08:01.303</time></trkpt><trkpt lat="55.7487361" lon="48.7436434"><time>2021-10-23T18:08:04.343</time></trkpt><trkpt lat="55.7486893" lon="48.7436159"><time>2021-10-23T18:08:09.363</time></trkpt><trkpt lat="55.7486461" lon="48.7435814"><time>2021-10-23T18:08:15.283</time></trkpt><trkpt lat="55.7486668" lon="48.7435011"><time>2021-10-23T18:13:23.197</time></trkpt><trkpt lat="55.7486772" lon="48.7434167"><time>2021-10-23T18:13:28.190</time></trkpt><trkpt lat="55.7486991" lon="48.7433251"><time>2021-10-23T18:13:33.257</time></trkpt><trkpt lat="55.7487322" lon="48.7432456"><time>2021-10-23T18:13:38.200</time></trkpt><trkpt lat="55.7487772" lon="48.7432350"><time>2021-10-23T18:13:45.257</time></trkpt><trkpt lat="55.7488249" lon="48.7432586"><time>2021-10-23T18:13:52.197</time></trkpt><trkpt lat="55.7488761" lon="48.7433008"><time>2021-10-23T18:13:58.203</time></trkpt><trkpt lat="55.7489260" lon="48.7433289"><time>2021-10-23T18:14:02.217</time></trkpt><trkpt lat="55.7489791" lon="48.7433644"><time>2021-10-23T18:14:06.200</time></trkpt><trkpt lat="55.7490093" lon="48.7434320"><time>2021-10-23T18:14:14.200</time></trkpt><trkpt lat="55.7490541" lon="48.7434605"><time>2021-10-23T18:14:18.197</time></trkpt><trkpt lat="55.7491116" lon="48.7434938"><time>2021-10-23T18:14:22.197</time></trkpt><trkpt lat="55.7491515" lon="48.7435567"><time>2021-10-23T18:14:26.200</time></trkpt><trkpt lat="55.7491985" lon="48.7435862"><time>2021-10-23T18:14:31.200</time></trkpt><trkpt lat="55.7492517" lon="48.7435767"><time>2021-10-23T18:14:34.200</time></trkpt><trkpt lat="55.7493026" lon="48.7435667"><time>2021-10-23T18:14:38.203</time></trkpt><trkpt lat="55.7493521" lon="48.7435864"><time>2021-10-23T18:14:42.197</time></trkpt><trkpt lat="55.7494048" lon="48.7436229"><time>2021-10-23T18:14:46.200</time></trkpt><trkpt lat="55.7494507" lon="48.7436710"><time>2021-10-23T18:14:50.193</time></trkpt><trkpt lat="55.7494923" lon="48.7437126"><time>2021-10-23T18:14:54.197</time></trkpt><trkpt lat="55.7495301" lon="48.7437617"><time>2021-10-23T18:14:59.193</time></trkpt><trkpt lat="55.7495805" lon="48.7437421"><time>2021-10-23T18:15:07.200</time></trkpt><trkpt lat="55.7496296" lon="48.7437033"><time>2021-10-23T18:15:14.283</time></trkpt><trkpt lat="55.7496671" lon="48.7436395"><time>2021-10-23T18:15:23.257</time></trkpt><trkpt lat="55.7497055" lon="48.7435823"><time>2021-10-23T18:15:27.207</time></trkpt><trkpt lat="55.7497521" lon="48.7435208"><time>2021-10-23T18:15:31.220</time></trkpt><trkpt lat="55.7497900" lon="48.7434495"><time>2021-10-23T18:15:35.210</time></trkpt><trkpt lat="55.7498259" lon="48.7433748"><time>2021-10-23T18:15:40.203</time></trkpt><trkpt lat="55.7498502" lon="48.7432913"><time>2021-10-23T18:15:44.210</time></trkpt><trkpt lat="55.7498737" lon="48.7432014"><time>2021-10-23T18:15:48.200</time></trkpt><trkpt lat="55.7499220" lon="48.7431519"><time>2021-10-23T18:15:52.287</time></trkpt><trkpt lat="55.7499672" lon="48.7431670"><time>2021-10-23T18:15:56.197</time></trkpt><trkpt lat="55.7500105" lon="48.7432339"><time>2021-10-23T18:16:01.330</time></trkpt><trkpt lat="55.7500417" lon="48.7433079"><time>2021-10-23T18:16:05.187</time></trkpt><trkpt lat="55.7500757" lon="48.7433766"><time>2021-10-23T18:16:10.280</time></trkpt><trkpt lat="55.7501210" lon="48.7433989"><time>2021-10-23T18:16:20.203</time></trkpt><trkpt lat="55.7501726" lon="48.7434195"><time>2021-10-23T18:16:26.187</time></trkpt><trkpt lat="55.7502216" lon="48.7434644"><time>2021-10-23T18:16:30.203</time></trkpt><trkpt lat="55.7502568" lon="48.7435158"><time>2021-10-23T18:16:33.193</time></trkpt><trkpt lat="55.7502960" lon="48.7435580"><time>2021-10-23T18:16:36.203</time></trkpt><trkpt lat="55.7503356" lon="48.7436178"><time>2021-10-23T18:16:40.177</time></trkpt><trkpt lat="55.7503826" lon="48.7436794"><time>2021-10-23T18:16:44.203</time></trkpt><trkpt lat="55.7504106" lon="48.7437433"><time>2021-10-23T18:16:47.203</time></trkpt><trkpt lat="55.7504417" lon="48.7438235"><time>2021-10-23T18:16:51.203</time></trkpt><trkpt lat="55.7504717" lon="48.7438871"><time>2021-10-23T18:16:55.200</time></trkpt><trkpt lat="55.7505162" lon="48.7439042"><time>2021-10-23T18:16:59.200</time></trkpt><trkpt lat="55.7505619" lon="48.7439297"><time>2021-10-23T18:17:03.200</time></trkpt><trkpt lat="55.7506136" lon="48.7439552"><time>2021-10-23T18:17:07.190</time></trkpt><trkpt lat="55.7506567" lon="48.7439979"><time>2021-10-23T18:17:11.203</time></trkpt><trkpt lat="55.7507018" lon="48.7440287"><time>2021-10-23T18:17:15.200</time></trkpt><trkpt lat="55.7507494" lon="48.7440602"><time>2021-10-23T18:17:20.203</time></trkpt><trkpt lat="55.7507941" lon="48.7440971"><time>2021-10-23T18:17:25.277</time></trkpt><trkpt lat="55.7508394" lon="48.7441231"><time>2021-10-23T18:17:29.203</time></trkpt><trkpt lat="55.7508855" lon="48.7441633"><time>2021-10-23T18:17:33.203</time></trkpt><trkpt lat="55.7509295" lon="48.7442081"><time>2021-10-23T18:17:38.203</time></trkpt><trkpt lat="55.7509742" lon="48.7441887"><time>2021-10-23T18:17:43.207</time></trkpt><trkpt lat="55.7510146" lon="48.7441391"><time>2021-10-23T18:17:47.203</time></trkpt><trkpt lat="55.7510598" lon="48.7441172"><time>2021-10-23T18:17:50.197</time></trkpt><trkpt lat="55.7511127" lon="48.7440995"><time>2021-10-23T18:17:54.203</time></trkpt><trkpt lat="55.7511653" lon="48.7441386"><time>2021-10-23T18:17:58.190</time></trkpt><trkpt lat="55.7512052" lon="48.7441795"><time>2021-10-23T18:18:01.200</time></trkpt><trkpt lat="55.7512449" lon="48.7442412"><time>2021-10-23T18:18:04.207</time></trkpt><trkpt lat="55.7512833" lon="48.7443045"><time>2021-10-23T18:18:07.203</time></trkpt><trkpt lat="55.7513248" lon="48.7443586"><time>2021-10-23T18:18:11.200</time></trkpt><trkpt lat="55.7513722" lon="48.7444165"><time>2021-10-23T18:18:15.253</time></trkpt><trkpt lat="55.7514128" lon="48.7444745"><time>2021-10-23T18:18:18.203</time></trkpt><trkpt lat="55.7514460" lon="48.7445355"><time>2021-10-23T18:18:21.260</time></trkpt><trkpt lat="55.7514744" lon="48.7446222"><time>2021-10-23T18:18:25.200</time></trkpt><trkpt lat="55.7515159" lon="48.7446563"><time>2021-10-23T18:18:29.207</time></trkpt><trkpt lat="55.7515605" lon="48.7446002"><time>2021-10-23T18:18:33.197</time></trkpt><trkpt lat="55.7516077" lon="48.7445856"><time>2021-10-23T18:18:37.203</time></trkpt><trkpt lat="55.7516434" lon="48.7446492"><time>2021-10-23T18:18:45.180</time></trkpt><trkpt lat="55.7516840" lon="48.7446969"><time>2021-10-23T18:18:49.207</time></trkpt><trkpt lat="55.7517251" lon="48.7447424"><time>2021-10-23T18:18:53.207</time></trkpt><trkpt lat="55.7517499" lon="48.7446685"><time>2021-10-23T18:18:58.197</time></trkpt><trkpt lat="55.7517984" lon="48.7446864"><time>2021-10-23T18:19:02.197</time></trkpt><trkpt lat="55.7517966" lon="48.7446004"><time>2021-10-23T18:19:10.187</time></trkpt><trkpt lat="55.7517916" lon="48.7445023"><time>2021-10-23T18:19:15.197</time></trkpt><trkpt lat="55.7517903" lon="48.7444075"><time>2021-10-23T18:19:21.183</time></trkpt><trkpt lat="55.7518314" lon="48.7443653"><time>2021-10-23T18:19:25.267</time></trkpt><trkpt lat="55.7519990" lon="48.7446028"><time>2021-10-23T18:19:30.200</time></trkpt><trkpt lat="55.7520296" lon="48.7446750"><time>2021-10-23T18:19:36.203</time></trkpt><trkpt lat="55.7520654" lon="48.7447394"><time>2021-10-23T18:19:40.200</time></trkpt><trkpt lat="55.7520906" lon="48.7448148"><time>2021-10-23T18:19:45.197</time></trkpt><trkpt lat="55.7521293" lon="48.7448583"><time>2021-10-23T18:19:49.273</time></trkpt><trkpt lat="55.7521684" lon="48.7447980"><time>2021-10-23T18:19:54.197</time></trkpt><trkpt lat="55.7522157" lon="48.7448292"><time>2021-10-23T18:19:59.200</time></trkpt><trkpt lat="55.7522447" lon="48.7449071"><time>2021-10-23T18:20:04.197</time></trkpt><trkpt lat="55.7522691" lon="48.7448241"><time>2021-10-23T18:20:09.197</time></trkpt><trkpt lat="55.7522613" lon="48.7447375"><time>2021-10-23T18:20:14.160</time></trkpt><trkpt lat="55.7528669" lon="48.7444293"><time>2021-10-23T18:21:18.200</time></trkpt><trkpt lat="55.7528597" lon="48.7445155"><time>2021-10-23T18:21:21.200</time></trkpt><trkpt lat="55.7528780" lon="48.7445949"><time>2021-10-23T18:21:25.193</time></trkpt><trkpt lat="55.7529202" lon="48.7446482"><time>2021-10-23T18:21:30.203</time></trkpt><trkpt lat="55.7529669" lon="48.7446828"><time>2021-10-23T18:21:35.257</time></trkpt><trkpt lat="55.7530199" lon="48.7446848"><time>2021-10-23T18:21:40.203</time></trkpt><trkpt lat="55.7530680" lon="48.7446888"><time>2021-10-23T18:21:44.220</time></trkpt><trkpt lat="55.7531125" lon="48.7447137"><time>2021-10-23T18:21:47.183</time></trkpt><trkpt lat="55.7531584" lon="48.7447328"><time>2021-10-23T18:21:50.217</time></trkpt><trkpt lat="55.7532049" lon="48.7447458"><time>2021-10-23T18:21:55.227</time></trkpt><trkpt lat="55.7532489" lon="48.7447678"><time>2021-10-23T18:22:00.203</time></trkpt><trkpt lat="55.7532997" lon="48.7447954"><time>2021-10-23T18:22:05.207</time></trkpt><trkpt lat="55.7533433" lon="48.7448173"><time>2021-10-23T18:22:09.187</time></trkpt><trkpt lat="55.7533954" lon="48.7448470"><time>2021-10-23T18:22:14.203</time></trkpt><trkpt lat="55.7534471" lon="48.7448909"><time>2021-10-23T18:22:18.180</time></trkpt><trkpt lat="55.7534965" lon="48.7449323"><time>2021-10-23T18:22:22.207</time></trkpt><trkpt lat="55.7535420" lon="48.7449482"><time>2021-10-23T18:22:26.207</time></trkpt><trkpt lat="55.7535877" lon="48.7449813"><time>2021-10-23T18:22:30.213</time></trkpt><trkpt lat="55.7536326" lon="48.7450237"><time>2021-10-23T18:22:34.187</time></trkpt><trkpt lat="55.7536789" lon="48.7450610"><time>2021-10-23T18:22:38.197</time></trkpt><trkpt lat="55.7537266" lon="48.7450848"><time>2021-10-23T18:22:42.207</time></trkpt><trkpt lat="55.7537710" lon="48.7451072"><time>2021-10-23T18:22:46.213</time></trkpt><trkpt lat="55.7538175" lon="48.7451302"><time>2021-10-23T18:22:50.207</time></trkpt><trkpt lat="55.7538655" lon="48.7451605"><time>2021-10-23T18:22:54.183</time></trkpt><trkpt lat="55.7539071" lon="48.7451951"><time>2021-10-23T18:22:58.193</time></trkpt><trkpt lat="55.7539556" lon="48.7452361"><time>2021-10-23T18:23:03.207</time></trkpt><trkpt lat="55.7540054" lon="48.7452723"><time>2021-10-23T18:23:08.177</time></trkpt><trkpt lat="55.7540474" lon="48.7453016"><time>2021-10-23T18:23:12.193</time></trkpt><trkpt lat="55.7541001" lon="48.7453285"><time>2021-10-23T18:23:17.173</time></trkpt><trkpt lat="55.7541423" lon="48.7453653"><time>2021-10-23T18:23:21.180</time></trkpt><trkpt lat="55.7541857" lon="48.7453928"><time>2021-10-23T18:23:25.203</time></trkpt><trkpt lat="55.7542299" lon="48.7454163"><time>2021-10-23T18:23:29.227</time></trkpt><trkpt lat="55.7542897" lon="48.7454436"><time>2021-10-23T18:23:33.193</time></trkpt><trkpt lat="55.7543433" lon="48.7454683"><time>2021-10-23T18:23:37.213</time></trkpt><trkpt lat="55.7543894" lon="48.7455085"><time>2021-10-23T18:23:42.190</time></trkpt><trkpt lat="55.7544373" lon="48.7455387"><time>2021-10-23T18:23:47.203</time></trkpt><trkpt lat="55.7544837" lon="48.7455626"><time>2021-10-23T18:23:51.180</time></trkpt><trkpt lat="55.7545364" lon="48.7455867"><time>2021-10-23T18:23:55.183</time></trkpt><trkpt lat="55.7545907" lon="48.7456091"><time>2021-10-23T18:23:59.207</time></trkpt><trkpt lat="55.7546401" lon="48.7456342"><time>2021-10-23T18:24:03.190</time></trkpt><trkpt lat="55.7546821" lon="48.7456652"><time>2021-10-23T18:24:07.180</time></trkpt><trkpt lat="55.7547268" lon="48.7456840"><time>2021-10-23T18:24:11.210</time></trkpt><trkpt lat="55.7547722" lon="48.7457159"><time>2021-10-23T18:24:15.207</time></trkpt><trkpt lat="55.7548242" lon="48.7457367"><time>2021-10-23T18:24:19.210</time></trkpt><trkpt lat="55.7548728" lon="48.7457604"><time>2021-10-23T18:24:23.210</time></trkpt><trkpt lat="55.7549187" lon="48.7457861"><time>2021-10-23T18:24:27.203</time></trkpt><trkpt lat="55.7549704" lon="48.7458135"><time>2021-10-23T18:24:32.190</time></trkpt><trkpt lat="55.7550174" lon="48.7458267"><time>2021-10-23T18:24:36.213</time></trkpt><trkpt lat="55.7550665" lon="48.7458446"><time>2021-10-23T18:24:40.227</time></trkpt><trkpt lat="55.7551181" lon="48.7458406"><time>2021-10-23T18:24:44.213</time></trkpt><trkpt lat="55.7551640" lon="48.7458540"><time>2021-10-23T18:24:48.213</time></trkpt><trkpt lat="55.7552139" lon="48.7458650"><time>2021-10-23T18:24:52.197</time></trkpt><trkpt lat="55.7552682" lon="48.7458833"><time>2021-10-23T18:24:57.207</time></trkpt><trkpt lat="55.7553135" lon="48.7458930"><time>2021-10-23T18:25:01.203</time></trkpt><trkpt lat="55.7553686" lon="48.7458998"><time>2021-10-23T18:25:06.213</time></trkpt><trkpt lat="55.7554253" lon="48.7459055"><time>2021-10-23T18:25:11.203</time></trkpt><trkpt lat="55.7554740" lon="48.7459108"><time>2021-10-23T18:25:15.217</time></trkpt><trkpt lat="55.7555206" lon="48.7459248"><time>2021-10-23T18:25:19.203</time></trkpt><trkpt lat="55.7555658" lon="48.7459347"><time>2021-10-23T18:25:23.210</time></trkpt><trkpt lat="55.7556147" lon="48.7459489"><time>2021-10-23T18:25:27.217</time></trkpt><trkpt lat="55.7556636" lon="48.7459569"><time>2021-10-23T18:25:31.193</time></trkpt><trkpt lat="55.7557139" lon="48.7459654"><time>2021-10-23T18:25:35.210</time></trkpt><trkpt lat="55.7557610" lon="48.7459603"><time>2021-10-23T18:25:39.213</time></trkpt><trkpt lat="55.7558149" lon="48.7459822"><time>2021-10-23T18:25:44.183</time></trkpt><trkpt lat="55.7558654" lon="48.7460072"><time>2021-10-23T18:25:49.193</time></trkpt><trkpt lat="55.7559107" lon="48.7460170"><time>2021-10-23T18:25:53.213</time></trkpt><trkpt lat="55.7559573" lon="48.7460229"><time>2021-10-23T18:25:57.210</time></trkpt><trkpt lat="55.7560044" lon="48.7460465"><time>2021-10-23T18:26:12.193</time></trkpt><trkpt lat="55.7560506" lon="48.7460487"><time>2021-10-23T18:26:15.197</time></trkpt><trkpt lat="55.7561016" lon="48.7460536"><time>2021-10-23T18:26:19.203</time></trkpt><trkpt lat="55.7561551" lon="48.7460683"><time>2021-10-23T18:26:24.213</time></trkpt><trkpt lat="55.7562082" lon="48.7460733"><time>2021-10-23T18:26:29.227</time></trkpt><trkpt lat="55.7562563" lon="48.7460875"><time>2021-10-23T18:26:34.213</time></trkpt><trkpt lat="55.7563119" lon="48.7460921"><time>2021-10-23T18:26:39.200</time></trkpt><trkpt lat="55.7563586" lon="48.7460897"><time>2021-10-23T18:26:43.200</time></trkpt><trkpt lat="55.7564038" lon="48.7460877"><time>2021-10-23T18:26:47.193</time></trkpt><trkpt lat="55.7564496" lon="48.7460830"><time>2021-10-23T18:26:51.207</time></trkpt><trkpt lat="55.7564991" lon="48.7460784"><time>2021-10-23T18:26:55.207</time></trkpt><trkpt lat="55.7565490" lon="48.7460540"><time>2021-10-23T18:27:09.190</time></trkpt><trkpt lat="55.7566000" lon="48.7460696"><time>2021-10-23T18:27:13.200</time></trkpt><trkpt lat="55.7566475" lon="48.7460639"><time>2021-10-23T18:27:17.207</time></trkpt><trkpt lat="55.7566967" lon="48.7460632"><time>2021-10-23T18:27:21.200</time></trkpt><trkpt lat="55.7567423" lon="48.7460590"><time>2021-10-23T18:27:25.197</time></trkpt><trkpt lat="55.7567906" lon="48.7460534"><time>2021-10-23T18:27:29.197</time></trkpt><trkpt lat="55.7568373" lon="48.7460401"><time>2021-10-23T18:27:33.207</time></trkpt><trkpt lat="55.7568845" lon="48.7460284"><time>2021-10-23T18:27:37.203</time></trkpt><trkpt lat="55.7569342" lon="48.7460243"><time>2021-10-23T18:27:41.203</time></trkpt><trkpt lat="55.7569869" lon="48.7460213"><time>2021-10-23T18:27:45.207</time></trkpt><trkpt lat="55.7570363" lon="48.7460493"><time>2021-10-23T18:27:49.217</time></trkpt><trkpt lat="55.7570573" lon="48.7461324"><time>2021-10-23T18:27:53.223</time></trkpt><trkpt lat="55.7570793" lon="48.7462039"><time>2021-10-23T18:27:57.203</time></trkpt><trkpt lat="55.7571164" lon="48.7462751"><time>2021-10-23T18:28:02.287</time></trkpt><trkpt lat="55.7571650" lon="48.7463017"><time>2021-10-23T18:28:06.223</time></trkpt><trkpt lat="55.7572112" lon="48.7462949"><time>2021-10-23T18:28:10.227</time></trkpt><trkpt lat="55.7572641" lon="48.7462784"><time>2021-10-23T18:28:14.220</time></trkpt><trkpt lat="55.7573066" lon="48.7462493"><time>2021-10-23T18:28:18.227</time></trkpt><trkpt lat="55.7573562" lon="48.7462197"><time>2021-10-23T18:28:23.203</time></trkpt><trkpt lat="55.7574023" lon="48.7462066"><time>2021-10-23T18:28:27.197</time></trkpt><trkpt lat="55.7574471" lon="48.7461961"><time>2021-10-23T18:28:31.227</time></trkpt><trkpt lat="55.7574979" lon="48.7461826"><time>2021-10-23T18:28:35.210</time></trkpt><trkpt lat="55.7575460" lon="48.7461676"><time>2021-10-23T18:28:39.200</time></trkpt><trkpt lat="55.7575956" lon="48.7461502"><time>2021-10-23T18:28:43.200</time></trkpt><trkpt lat="55.7576411" lon="48.7461268"><time>2021-10-23T18:28:47.267</time></trkpt><trkpt lat="55.7576848" lon="48.7461068"><time>2021-10-23T18:28:51.203</time></trkpt><trkpt lat="55.7577342" lon="48.7460851"><time>2021-10-23T18:28:55.283</time></trkpt><trkpt lat="55.7577799" lon="48.7460543"><time>2021-10-23T18:28:59.287</time></trkpt><trkpt lat="55.7578239" lon="48.7460116"><time>2021-10-23T18:29:03.197</time></trkpt><trkpt lat="55.7578586" lon="48.7459583"><time>2021-10-23T18:29:07.333</time></trkpt><trkpt lat="55.7578919" lon="48.7459019"><time>2021-10-23T18:29:11.283</time></trkpt><trkpt lat="55.7579157" lon="48.7458334"><time>2021-10-23T18:29:15.327</time></trkpt><trkpt lat="55.7579606" lon="48.7457945"><time>2021-10-23T18:29:21.330</time></trkpt><trkpt lat="55.7580106" lon="48.7457531"><time>2021-10-23T18:29:26.290</time></trkpt><trkpt lat="55.7580508" lon="48.7456959"><time>2021-10-23T18:29:30.293</time></trkpt><trkpt lat="55.7580780" lon="48.7456159"><time>2021-10-23T18:29:34.207</time></trkpt><trkpt lat="55.7580987" lon="48.7455440"><time>2021-10-23T18:29:38.453</time></trkpt><trkpt lat="55.7581114" lon="48.7454615"><time>2021-10-23T18:29:42.227</time></trkpt><trkpt lat="55.7581332" lon="48.7453854"><time>2021-10-23T18:29:46.370</time></trkpt><trkpt lat="55.7581549" lon="48.7453084"><time>2021-10-23T18:29:50.323</time></trkpt><trkpt lat="55.7581780" lon="48.7452295"><time>2021-10-23T18:29:54.230</time></trkpt><trkpt lat="55.7581961" lon="48.7451486"><time>2021-10-23T18:29:58.383</time></trkpt><trkpt lat="55.7582172" lon="48.7450642"><time>2021-10-23T18:30:03.190</time></trkpt><trkpt lat="55.7582427" lon="48.7449785"><time>2021-10-23T18:30:08.227</time></trkpt><trkpt lat="55.7582650" lon="48.7448907"><time>2021-10-23T18:30:13.343</time></trkpt><trkpt lat="55.7582842" lon="48.7448129"><time>2021-10-23T18:30:17.383</time></trkpt><trkpt lat="55.7583054" lon="48.7447397"><time>2021-10-23T18:30:21.360</time></trkpt><trkpt lat="55.7583302" lon="48.7446530"><time>2021-10-23T18:30:26.397</time></trkpt><trkpt lat="55.7583498" lon="48.7445707"><time>2021-10-23T18:30:30.923</time></trkpt><trkpt lat="55.7583609" lon="48.7444832"><time>2021-10-23T18:30:34.220</time></trkpt><trkpt lat="55.7583520" lon="48.7443916"><time>2021-10-23T18:30:38.360</time></trkpt><trkpt lat="55.7583267" lon="48.7443107"><time>2021-10-23T18:30:42.330</time></trkpt><trkpt lat="55.7582944" lon="48.7442359"><time>2021-10-23T18:30:46.453</time></trkpt><trkpt lat="55.7582632" lon="48.7441598"><time>2021-10-23T18:30:50.217</time></trkpt><trkpt lat="55.7582370" lon="48.7440882"><time>2021-10-23T18:30:54.227</time></trkpt><trkpt lat="55.7582093" lon="48.7440209"><time>2021-10-23T18:30:58.200</time></trkpt><trkpt lat="55.7581801" lon="48.7439486"><time>2021-10-23T18:31:03.197</time></trkpt><trkpt lat="55.7581487" lon="48.7438668"><time>2021-10-23T18:31:08.203</time></trkpt><trkpt lat="55.7581157" lon="48.7437903"><time>2021-10-23T18:31:13.223</time></trkpt><trkpt lat="55.7580895" lon="48.7437254"><time>2021-10-23T18:31:17.227</time></trkpt><trkpt lat="55.7580588" lon="48.7436539"><time>2021-10-23T18:31:21.230</time></trkpt><trkpt lat="55.7580288" lon="48.7435781"><time>2021-10-23T18:31:25.203</time></trkpt><trkpt lat="55.7580045" lon="48.7435027"><time>2021-10-23T18:31:29.207</time></trkpt><trkpt lat="55.7579747" lon="48.7434291"><time>2021-10-23T18:31:33.250</time></trkpt><trkpt lat="55.7579438" lon="48.7433665"><time>2021-10-23T18:31:37.200</time></trkpt><trkpt lat="55.7579090" lon="48.7432965"><time>2021-10-23T18:31:41.223</time></trkpt><trkpt lat="55.7578790" lon="48.7432212"><time>2021-10-23T18:31:45.213</time></trkpt><trkpt lat="55.7578469" lon="48.7431499"><time>2021-10-23T18:31:49.227</time></trkpt><trkpt lat="55.7578168" lon="48.7430760"><time>2021-10-23T18:31:53.207</time></trkpt><trkpt lat="55.7577856" lon="48.7430123"><time>2021-10-23T18:31:57.213</time></trkpt><trkpt lat="55.7577469" lon="48.7429610"><time>2021-10-23T18:32:01.210</time></trkpt><trkpt lat="55.7577133" lon="48.7429038"><time>2021-10-23T18:32:05.210</time></trkpt><trkpt lat="55.7576811" lon="48.7428407"><time>2021-10-23T18:32:09.207</time></trkpt><trkpt lat="55.7576525" lon="48.7427701"><time>2021-10-23T18:32:13.210</time></trkpt><trkpt lat="55.7576246" lon="48.7426974"><time>2021-10-23T18:32:17.207</time></trkpt><trkpt lat="55.7575951" lon="48.7426358"><time>2021-10-23T18:32:22.213</time></trkpt><trkpt lat="55.7575629" lon="48.7425693"><time>2021-10-23T18:32:27.327</time></trkpt><trkpt lat="55.7575369" lon="48.7424923"><time>2021-10-23T18:32:31.187</time></trkpt><trkpt lat="55.7575021" lon="48.7424172"><time>2021-10-23T18:32:35.203</time></trkpt><trkpt lat="55.7574653" lon="48.7423469"><time>2021-10-23T18:32:39.197</time></trkpt><trkpt lat="55.7574334" lon="48.7422756"><time>2021-10-23T18:32:43.390</time></trkpt><trkpt lat="55.7574051" lon="48.7421966"><time>2021-10-23T18:32:47.183</time></trkpt><trkpt lat="55.7573730" lon="48.7421141"><time>2021-10-23T18:32:51.220</time></trkpt><trkpt lat="55.7573369" lon="48.7420319"><time>2021-10-23T18:32:55.223</time></trkpt><trkpt lat="55.7573030" lon="48.7419523"><time>2021-10-23T18:32:59.220</time></trkpt><trkpt lat="55.7572759" lon="48.7418747"><time>2021-10-23T18:33:03.187</time></trkpt><trkpt lat="55.7572469" lon="48.7418009"><time>2021-10-23T18:33:08.197</time></trkpt><trkpt lat="55.7572133" lon="48.7417359"><time>2021-10-23T18:33:13.220</time></trkpt><trkpt lat="55.7571834" lon="48.7416699"><time>2021-10-23T18:33:18.277</time></trkpt><trkpt lat="55.7571518" lon="48.7416090"><time>2021-10-23T18:33:22.220</time></trkpt><trkpt lat="55.7571135" lon="48.7415447"><time>2021-10-23T18:33:27.213</time></trkpt><trkpt lat="55.7570755" lon="48.7414870"><time>2021-10-23T18:33:32.213</time></trkpt><trkpt lat="55.7570527" lon="48.7414173"><time>2021-10-23T18:33:36.203</time></trkpt><trkpt lat="55.7570217" lon="48.7413453"><time>2021-10-23T18:33:40.197</time></trkpt><trkpt lat="55.7569821" lon="48.7412797"><time>2021-10-23T18:33:44.217</time></trkpt><trkpt lat="55.7569492" lon="48.7411995"><time>2021-10-23T18:33:48.200</time></trkpt><trkpt lat="55.7569211" lon="48.7411135"><time>2021-10-23T18:33:52.283</time></trkpt><trkpt lat="55.7569219" lon="48.7410284"><time>2021-10-23T18:33:59.217</time></trkpt><trkpt lat="55.7568755" lon="48.7409998"><time>2021-10-23T18:34:03.200</time></trkpt><trkpt lat="55.7568427" lon="48.7409448"><time>2021-10-23T18:34:07.210</time></trkpt><trkpt lat="55.7567979" lon="48.7408911"><time>2021-10-23T18:34:12.227</time></trkpt><trkpt lat="55.7567614" lon="48.7408425"><time>2021-10-23T18:34:16.197</time></trkpt><trkpt lat="55.7567211" lon="48.7407733"><time>2021-10-23T18:34:21.203</time></trkpt><trkpt lat="55.7566915" lon="48.7407044"><time>2021-10-23T18:34:26.197</time></trkpt><trkpt lat="55.7566521" lon="48.7406355"><time>2021-10-23T18:34:31.207</time></trkpt><trkpt lat="55.7566169" lon="48.7405664"><time>2021-10-23T18:34:36.227</time></trkpt><trkpt lat="55.7565844" lon="48.7405012"><time>2021-10-23T18:34:40.187</time></trkpt><trkpt lat="55.7565502" lon="48.7404483"><time>2021-10-23T18:34:44.197</time></trkpt><trkpt lat="55.7565064" lon="48.7403819"><time>2021-10-23T18:34:49.197</time></trkpt><trkpt lat="55.7564642" lon="48.7403180"><time>2021-10-23T18:34:54.197</time></trkpt><trkpt lat="55.7564315" lon="48.7402625"><time>2021-10-23T18:34:58.213</time></trkpt><trkpt lat="55.7564019" lon="48.7401981"><time>2021-10-23T18:35:02.220</time></trkpt><trkpt lat="55.7563655" lon="48.7401239"><time>2021-10-23T18:35:06.193</time></trkpt><trkpt lat="55.7563164" lon="48.7400709"><time>2021-10-23T18:35:10.220</time></trkpt><trkpt lat="55.7562837" lon="48.7399879"><time>2021-10-23T18:35:14.230</time></trkpt><trkpt lat="55.7562539" lon="48.7399188"><time>2021-10-23T18:35:18.203</time></trkpt><trkpt lat="55.7562225" lon="48.7398415"><time>2021-10-23T18:35:23.203</time></trkpt><trkpt lat="55.7561858" lon="48.7397785"><time>2021-10-23T18:35:29.220</time></trkpt><trkpt lat="55.7561517" lon="48.7397238"><time>2021-10-23T18:35:33.213</time></trkpt><trkpt lat="55.7561137" lon="48.7396792"><time>2021-10-23T18:35:40.207</time></trkpt><trkpt lat="55.7560837" lon="48.7396011"><time>2021-10-23T18:35:46.203</time></trkpt><trkpt lat="55.7560508" lon="48.7395197"><time>2021-10-23T18:35:51.203</time></trkpt><trkpt lat="55.7560151" lon="48.7394629"><time>2021-10-23T18:35:55.193</time></trkpt><trkpt lat="55.7559724" lon="48.7394019"><time>2021-10-23T18:36:00.213</time></trkpt><trkpt lat="55.7559338" lon="48.7393325"><time>2021-10-23T18:36:05.240</time></trkpt><trkpt lat="55.7558985" lon="48.7392574"><time>2021-10-23T18:36:10.193</time></trkpt><trkpt lat="55.7558679" lon="48.7391933"><time>2021-10-23T18:36:15.227</time></trkpt><trkpt lat="55.7558413" lon="48.7391214"><time>2021-10-23T18:36:20.207</time></trkpt><trkpt lat="55.7558138" lon="48.7390533"><time>2021-10-23T18:36:24.200</time></trkpt><trkpt lat="55.7557860" lon="48.7389768"><time>2021-10-23T18:36:29.220</time></trkpt><trkpt lat="55.7557681" lon="48.7388967"><time>2021-10-23T18:36:33.217</time></trkpt><trkpt lat="55.7557412" lon="48.7388212"><time>2021-10-23T18:36:38.220</time></trkpt><trkpt lat="55.7557251" lon="48.7387429"><time>2021-10-23T18:36:42.223</time></trkpt><trkpt lat="55.7557087" lon="48.7386670"><time>2021-10-23T18:36:46.200</time></trkpt><trkpt lat="55.7556812" lon="48.7385874"><time>2021-10-23T18:36:50.197</time></trkpt><trkpt lat="55.7556414" lon="48.7385358"><time>2021-10-23T18:36:54.337</time></trkpt><trkpt lat="55.7556607" lon="48.7384570"><time>2021-10-23T18:37:46.200</time></trkpt><trkpt lat="55.7556323" lon="48.7383807"><time>2021-10-23T18:37:50.210</time></trkpt><trkpt lat="55.7555977" lon="48.7383191"><time>2021-10-23T18:37:54.207</time></trkpt><trkpt lat="55.7555676" lon="48.7382392"><time>2021-10-23T18:37:59.207</time></trkpt><trkpt lat="55.7555426" lon="48.7381694"><time>2021-10-23T18:38:03.207</time></trkpt><trkpt lat="55.7555215" lon="48.7380855"><time>2021-10-23T18:38:08.367</time></trkpt><trkpt lat="55.7554978" lon="48.7380144"><time>2021-10-23T18:38:13.293</time></trkpt><trkpt lat="55.7554810" lon="48.7379314"><time>2021-10-23T18:38:18.210</time></trkpt><trkpt lat="55.7554564" lon="48.7378622"><time>2021-10-23T18:38:22.277</time></trkpt><trkpt lat="55.7554171" lon="48.7377990"><time>2021-10-23T18:38:27.207</time></trkpt><trkpt lat="55.7553850" lon="48.7377378"><time>2021-10-23T18:38:31.203</time></trkpt><trkpt lat="55.7553758" lon="48.7376552"><time>2021-10-23T18:38:35.357</time></trkpt><trkpt lat="55.7553797" lon="48.7375679"><time>2021-10-23T18:38:40.390</time></trkpt><trkpt lat="55.7553707" lon="48.7374830"><time>2021-10-23T18:38:45.207</time></trkpt><trkpt lat="55.7553714" lon="48.7373834"><time>2021-10-23T18:38:51.203</time></trkpt><trkpt lat="55.7553774" lon="48.7373032"><time>2021-10-23T18:38:56.220</time></trkpt><trkpt lat="55.7553762" lon="48.7372130"><time>2021-10-23T18:39:02.203</time></trkpt><trkpt lat="55.7553545" lon="48.7371411"><time>2021-10-23T18:39:08.213</time></trkpt><trkpt lat="55.7553452" lon="48.7370527"><time>2021-10-23T18:39:14.227</time></trkpt><trkpt lat="55.7553116" lon="48.7369994"><time>2021-10-23T18:39:19.373</time></trkpt><trkpt lat="55.7552983" lon="48.7369092"><time>2021-10-23T18:39:25.363</time></trkpt><trkpt lat="55.7553201" lon="48.7368211"><time>2021-10-23T18:39:30.217</time></trkpt><trkpt lat="55.7553328" lon="48.7367376"><time>2021-10-23T18:39:35.213</time></trkpt><trkpt lat="55.7553481" lon="48.7366425"><time>2021-10-23T18:39:40.230</time></trkpt><trkpt lat="55.7553614" lon="48.7365460"><time>2021-10-23T18:39:45.217</time></trkpt><trkpt lat="55.7553753" lon="48.7364583"><time>2021-10-23T18:39:49.210</time></trkpt><trkpt lat="55.7553865" lon="48.7363799"><time>2021-10-23T18:39:53.193</time></trkpt><trkpt lat="55.7553997" lon="48.7362979"><time>2021-10-23T18:39:57.213</time></trkpt><trkpt lat="55.7554089" lon="48.7362161"><time>2021-10-23T18:40:01.327</time></trkpt><trkpt lat="55.7554087" lon="48.7361358"><time>2021-10-23T18:40:05.217</time></trkpt><trkpt lat="55.7554124" lon="48.7360376"><time>2021-10-23T18:40:10.253</time></trkpt><trkpt lat="55.7554166" lon="48.7359473"><time>2021-10-23T18:40:14.183</time></trkpt><trkpt lat="55.7554134" lon="48.7358505"><time>2021-10-23T18:40:19.207</time></trkpt><trkpt lat="55.7553957" lon="48.7357587"><time>2021-10-23T18:40:24.217</time></trkpt><trkpt lat="55.7553815" lon="48.7356801"><time>2021-10-23T18:40:28.207</time></trkpt><trkpt lat="55.7553647" lon="48.7355905"><time>2021-10-23T18:40:33.227</time></trkpt><trkpt lat="55.7553496" lon="48.7355088"><time>2021-10-23T18:40:38.203</time></trkpt><trkpt lat="55.7553574" lon="48.7354182"><time>2021-10-23T18:40:43.203</time></trkpt><trkpt lat="55.7553646" lon="48.7353248"><time>2021-10-23T18:40:48.207</time></trkpt><trkpt lat="55.7553750" lon="48.7352461"><time>2021-10-23T18:40:53.207</time></trkpt><trkpt lat="55.7553717" lon="48.7351644"><time>2021-10-23T18:40:58.207</time></trkpt><trkpt lat="55.7554046" lon="48.7351019"><time>2021-10-23T18:42:52.200</time></trkpt><trkpt lat="55.7554235" lon="48.7350275"><time>2021-10-23T18:44:04.213</time></trkpt><trkpt lat="55.7554039" lon="48.7349446"><time>2021-10-23T18:44:51.207</time></trkpt><trkpt lat="55.7553882" lon="48.7348636"><time>2021-10-23T18:45:10.370</time></trkpt><trkpt lat="55.7553923" lon="48.7347829"><time>2021-10-23T18:45:21.307</time></trkpt><trkpt lat="55.7554017" lon="48.7346973"><time>2021-10-23T18:45:29.327</time></trkpt><trkpt lat="55.7554147" lon="48.7346171"><time>2021-10-23T18:46:37.223</time></trkpt><trkpt lat="55.7554199" lon="48.7345377"><time>2021-10-23T18:46:51.203</time></trkpt><trkpt lat="55.7554211" lon="48.7344438"><time>2021-10-23T18:47:02.217</time></trkpt><trkpt lat="55.7554332" lon="48.7343572"><time>2021-10-23T18:47:08.197</time></trkpt><trkpt lat="55.7553869" lon="48.7343655"><time>2021-10-23T18:47:28.200</time></trkpt><trkpt lat="55.7553329" lon="48.7343378"><time>2021-10-23T18:47:36.257</time></trkpt><trkpt lat="55.7552895" lon="48.7343109"><time>2021-10-23T18:47:40.220</time></trkpt><trkpt lat="55.7552491" lon="48.7342562"><time>2021-10-23T18:47:45.217</time></trkpt><trkpt lat="55.7552149" lon="48.7342043"><time>2021-10-23T18:47:54.210</time></trkpt><trkpt lat="55.7551696" lon="48.7342075"><time>2021-10-23T18:50:14.367</time></trkpt><trkpt lat="55.7552048" lon="48.7341554"><time>2021-10-23T18:50:34.367</time></trkpt><trkpt lat="55.7552422" lon="48.7342161"><time>2021-10-23T18:52:08.193</time></trkpt><trkpt lat="55.7552388" lon="48.7342967"><time>2021-10-23T18:52:15.360</time></trkpt><trkpt lat="55.7552448" lon="48.7343800"><time>2021-10-23T18:52:22.367</time></trkpt><trkpt lat="55.7552201" lon="48.7344617"><time>2021-10-23T18:52:27.220</time></trkpt><trkpt lat="55.7551765" lon="48.7344999"><time>2021-10-23T18:52:34.353</time></trkpt><trkpt lat="55.7551498" lon="48.7345685"><time>2021-10-23T18:52:45.363</time></trkpt><trkpt lat="55.7551412" lon="48.7346574"><time>2021-10-23T18:52:53.323</time></trkpt><trkpt lat="55.7551459" lon="48.7347385"><time>2021-10-23T18:53:04.393</time></trkpt><trkpt lat="55.7551446" lon="48.7348292"><time>2021-10-23T18:53:15.357</time></trkpt><trkpt lat="55.7551632" lon="48.7349043"><time>2021-10-23T18:53:22.337</time></trkpt><trkpt lat="55.7551544" lon="48.7349833"><time>2021-10-23T18:53:38.307</time></trkpt><trkpt lat="55.7551829" lon="48.7350511"><time>2021-10-23T18:53:46.207</time></trkpt><trkpt lat="55.7552267" lon="48.7350736"><time>2021-10-23T18:53:55.347</time></trkpt><trkpt lat="55.7552557" lon="48.7351519"><time>2021-10-23T18:54:02.347</time></trkpt><trkpt lat="55.7552719" lon="48.7352369"><time>2021-10-23T18:54:08.207</time></trkpt><trkpt lat="55.7552817" lon="48.7353152"><time>2021-10-23T18:54:14.320</time></trkpt><trkpt lat="55.7553190" lon="48.7353689"><time>2021-10-23T18:54:25.347</time></trkpt><trkpt lat="55.7553468" lon="48.7354398"><time>2021-10-23T18:54:30.210</time></trkpt><trkpt lat="55.7553463" lon="48.7355364"><time>2021-10-23T18:54:35.357</time></trkpt><trkpt lat="55.7553455" lon="48.7356310"><time>2021-10-23T18:54:40.380</time></trkpt><trkpt lat="55.7553644" lon="48.7357066"><time>2021-10-23T18:54:44.373</time></trkpt><trkpt lat="55.7553794" lon="48.7357847"><time>2021-10-23T18:54:48.207</time></trkpt><trkpt lat="55.7553843" lon="48.7358643"><time>2021-10-23T18:54:53.307</time></trkpt><trkpt lat="55.7554004" lon="48.7359463"><time>2021-10-23T18:55:00.307</time></trkpt><trkpt lat="55.7554181" lon="48.7360268"><time>2021-10-23T18:55:09.333</time></trkpt><trkpt lat="55.7554029" lon="48.7361062"><time>2021-10-23T18:55:15.390</time></trkpt><trkpt lat="55.7554265" lon="48.7361742"><time>2021-10-23T18:55:37.603</time></trkpt><trkpt lat="55.7554206" lon="48.7362562"><time>2021-10-23T18:55:43.340</time></trkpt><trkpt lat="55.7554016" lon="48.7363354"><time>2021-10-23T18:55:50.403</time></trkpt><trkpt lat="55.7553905" lon="48.7364203"><time>2021-10-23T18:55:57.220</time></trkpt><trkpt lat="55.7553840" lon="48.7365063"><time>2021-10-23T18:56:04.383</time></trkpt><trkpt lat="55.7553652" lon="48.7365861"><time>2021-10-23T18:56:09.203</time></trkpt><trkpt lat="55.7553573" lon="48.7366688"><time>2021-10-23T18:56:15.360</time></trkpt><trkpt lat="55.7553299" lon="48.7367385"><time>2021-10-23T18:56:20.217</time></trkpt><trkpt lat="55.7553177" lon="48.7368304"><time>2021-10-23T18:56:27.347</time></trkpt><trkpt lat="55.7552982" lon="48.7369099"><time>2021-10-23T18:56:32.403</time></trkpt><trkpt lat="55.7552824" lon="48.7369870"><time>2021-10-23T18:56:36.343</time></trkpt><trkpt lat="55.7552697" lon="48.7370660"><time>2021-10-23T18:56:40.317</time></trkpt><trkpt lat="55.7552607" lon="48.7371460"><time>2021-10-23T18:56:46.373</time></trkpt><trkpt lat="55.7552350" lon="48.7372216"><time>2021-10-23T18:56:52.300</time></trkpt><trkpt lat="55.7552182" lon="48.7373066"><time>2021-10-23T18:56:58.217</time></trkpt><trkpt lat="55.7552351" lon="48.7373849"><time>2021-10-23T18:57:03.227</time></trkpt><trkpt lat="55.7552628" lon="48.7374580"><time>2021-10-23T18:57:08.317</time></trkpt><trkpt lat="55.7552881" lon="48.7375389"><time>2021-10-23T18:57:14.397</time></trkpt><trkpt lat="55.7553036" lon="48.7376199"><time>2021-10-23T18:57:19.373</time></trkpt><trkpt lat="55.7553202" lon="48.7376950"><time>2021-10-23T18:57:25.430</time></trkpt><trkpt lat="55.7553394" lon="48.7377739"><time>2021-10-23T18:57:30.227</time></trkpt><trkpt lat="55.7553656" lon="48.7378481"><time>2021-10-23T18:57:35.343</time></trkpt><trkpt lat="55.7553961" lon="48.7379178"><time>2021-10-23T18:57:41.240</time></trkpt><trkpt lat="55.7554264" lon="48.7379786"><time>2021-10-23T18:57:45.220</time></trkpt><trkpt lat="55.7554516" lon="48.7380445"><time>2021-10-23T18:57:49.297</time></trkpt><trkpt lat="55.7554789" lon="48.7381103"><time>2021-10-23T18:57:54.237</time></trkpt><trkpt lat="55.7555110" lon="48.7381850"><time>2021-10-23T18:58:00.217</time></trkpt><trkpt lat="55.7555360" lon="48.7382534"><time>2021-10-23T18:58:05.207</time></trkpt><trkpt lat="55.7555646" lon="48.7383154"><time>2021-10-23T18:58:10.307</time></trkpt><trkpt lat="55.7555884" lon="48.7383870"><time>2021-10-23T18:58:15.193</time></trkpt><trkpt lat="55.7556139" lon="48.7384720"><time>2021-10-23T18:58:20.217</time></trkpt><trkpt lat="55.7556353" lon="48.7385523"><time>2021-10-23T18:58:24.200</time></trkpt><trkpt lat="55.7556555" lon="48.7386402"><time>2021-10-23T18:58:28.223</time></trkpt><trkpt lat="55.7556748" lon="48.7387225"><time>2021-10-23T18:58:33.357</time></trkpt><trkpt lat="55.7556891" lon="48.7388137"><time>2021-10-23T18:58:38.327</time></trkpt><trkpt lat="55.7557027" lon="48.7389100"><time>2021-10-23T18:58:43.377</time></trkpt><trkpt lat="55.7556872" lon="48.7389969"><time>2021-10-23T18:58:47.327</time></trkpt><trkpt lat="55.7556687" lon="48.7390865"><time>2021-10-23T18:58:54.200</time></trkpt><trkpt lat="55.7556437" lon="48.7391607"><time>2021-10-23T18:58:58.217</time></trkpt><trkpt lat="55.7555974" lon="48.7392119"><time>2021-10-23T18:59:11.377</time></trkpt><trkpt lat="55.7555605" lon="48.7392623"><time>2021-10-23T18:59:20.340</time></trkpt><trkpt lat="55.7555170" lon="48.7393098"><time>2021-10-23T18:59:25.360</time></trkpt><trkpt lat="55.7554796" lon="48.7393559"><time>2021-10-23T18:59:30.217</time></trkpt><trkpt lat="55.7554389" lon="48.7393944"><time>2021-10-23T18:59:37.507</time></trkpt><trkpt lat="55.7553901" lon="48.7394324"><time>2021-10-23T18:59:42.387</time></trkpt><trkpt lat="55.7553475" lon="48.7394799"><time>2021-10-23T18:59:47.373</time></trkpt><trkpt lat="55.7552994" lon="48.7394968"><time>2021-10-23T18:59:53.390</time></trkpt><trkpt lat="55.7552446" lon="48.7395002"><time>2021-10-23T19:00:00.227</time></trkpt><trkpt lat="55.7551942" lon="48.7394947"><time>2021-10-23T19:00:05.233</time></trkpt><trkpt lat="55.7551388" lon="48.7394928"><time>2021-10-23T19:00:11.340</time></trkpt><trkpt lat="55.7550946" lon="48.7395275"><time>2021-10-23T19:00:17.383</time></trkpt><trkpt lat="55.7550502" lon="48.7395484"><time>2021-10-23T19:00:23.433</time></trkpt><trkpt lat="55.7550017" lon="48.7395321"><time>2021-10-23T19:00:29.387</time></trkpt><trkpt lat="55.7549555" lon="48.7394924"><time>2021-10-23T19:00:34.317</time></trkpt><trkpt lat="55.7549097" lon="48.7394553"><time>2021-10-23T19:00:40.447</time></trkpt><trkpt lat="55.7548614" lon="48.7394438"><time>2021-10-23T19:00:45.380</time></trkpt><trkpt lat="55.7548146" lon="48.7394506"><time>2021-10-23T19:00:50.377</time></trkpt><trkpt lat="55.7547644" lon="48.7394335"><time>2021-10-23T19:00:56.230</time></trkpt><trkpt lat="55.7547383" lon="48.7395013"><time>2021-10-23T19:01:02.347</time></trkpt><trkpt lat="55.7547038" lon="48.7395670"><time>2021-10-23T19:01:15.323</time></trkpt><trkpt lat="55.7546779" lon="48.7396545"><time>2021-10-23T19:01:19.400</time></trkpt><trkpt lat="55.7546497" lon="48.7397359"><time>2021-10-23T19:01:23.323</time></trkpt><trkpt lat="55.7546281" lon="48.7398174"><time>2021-10-23T19:01:30.320</time></trkpt><trkpt lat="55.7546613" lon="48.7398734"><time>2021-10-23T19:01:40.367</time></trkpt><trkpt lat="55.7546238" lon="48.7399326"><time>2021-10-23T19:02:31.210</time></trkpt><trkpt lat="55.7546045" lon="48.7400169"><time>2021-10-23T19:02:46.280</time></trkpt><trkpt lat="55.7545826" lon="48.7400957"><time>2021-10-23T19:02:52.283</time></trkpt><trkpt lat="55.7545617" lon="48.7401695"><time>2021-10-23T19:02:58.287</time></trkpt><trkpt lat="55.7545411" lon="48.7402537"><time>2021-10-23T19:03:04.263</time></trkpt><trkpt lat="55.7545256" lon="48.7403344"><time>2021-10-23T19:03:09.210</time></trkpt><trkpt lat="55.7545024" lon="48.7404038"><time>2021-10-23T19:03:14.233</time></trkpt><trkpt lat="55.7544910" lon="48.7404917"><time>2021-10-23T19:03:20.213</time></trkpt><trkpt lat="55.7544839" lon="48.7405860"><time>2021-10-23T19:03:25.223</time></trkpt><trkpt lat="55.7544370" lon="48.7405923"><time>2021-10-23T19:03:35.250</time></trkpt><trkpt lat="55.7544099" lon="48.7406607"><time>2021-10-23T19:03:40.217</time></trkpt><trkpt lat="55.7543878" lon="48.7407392"><time>2021-10-23T19:03:46.327</time></trkpt><trkpt lat="55.7543725" lon="48.7408183"><time>2021-10-23T19:03:54.220</time></trkpt><trkpt lat="55.7543432" lon="48.7409038"><time>2021-10-23T19:04:01.360</time></trkpt><trkpt lat="55.7543027" lon="48.7409778"><time>2021-10-23T19:04:04.387</time></trkpt><trkpt lat="55.7542702" lon="48.7410372"><time>2021-10-23T19:04:07.217</time></trkpt><trkpt lat="55.7542249" lon="48.7410921"><time>2021-10-23T19:04:11.360</time></trkpt><trkpt lat="55.7541813" lon="48.7411316"><time>2021-10-23T19:04:17.380</time></trkpt><trkpt lat="55.7541348" lon="48.7411042"><time>2021-10-23T19:04:22.350</time></trkpt><trkpt lat="55.7540904" lon="48.7410444"><time>2021-10-23T19:04:26.383</time></trkpt><trkpt lat="55.7540624" lon="48.7409809"><time>2021-10-23T19:04:35.387</time></trkpt><trkpt lat="55.7540113" lon="48.7409781"><time>2021-10-23T19:04:41.313</time></trkpt><trkpt lat="55.7539616" lon="48.7409762"><time>2021-10-23T19:04:47.377</time></trkpt><trkpt lat="55.7539064" lon="48.7409592"><time>2021-10-23T19:04:52.377</time></trkpt><trkpt lat="55.7538570" lon="48.7409311"><time>2021-10-23T19:04:56.230</time></trkpt><trkpt lat="55.7538030" lon="48.7408985"><time>2021-10-23T19:05:00.217</time></trkpt><trkpt lat="55.7537475" lon="48.7408846"><time>2021-10-23T19:05:04.370</time></trkpt><trkpt lat="55.7536940" lon="48.7408478"><time>2021-10-23T19:05:08.233</time></trkpt><trkpt lat="55.7536477" lon="48.7408169"><time>2021-10-23T19:05:12.230</time></trkpt><trkpt lat="55.7535975" lon="48.7408018"><time>2021-10-23T19:05:16.367</time></trkpt><trkpt lat="55.7535434" lon="48.7407785"><time>2021-10-23T19:05:21.227</time></trkpt><trkpt lat="55.7534903" lon="48.7407642"><time>2021-10-23T19:05:26.207</time></trkpt><trkpt lat="55.7534465" lon="48.7407253"><time>2021-10-23T19:05:32.290</time></trkpt><trkpt lat="55.7534001" lon="48.7406804"><time>2021-10-23T19:05:39.363</time></trkpt><trkpt lat="55.7533561" lon="48.7406237"><time>2021-10-23T19:05:44.440</time></trkpt><trkpt lat="55.7533184" lon="48.7405772"><time>2021-10-23T19:05:48.387</time></trkpt><trkpt lat="55.7532764" lon="48.7405471"><time>2021-10-23T19:05:52.343</time></trkpt><trkpt lat="55.7532329" lon="48.7405935"><time>2021-10-23T19:05:57.547</time></trkpt><trkpt lat="55.7532453" lon="48.7406920"><time>2021-10-23T19:06:02.303</time></trkpt><trkpt lat="55.7532603" lon="48.7407841"><time>2021-10-23T19:06:06.237</time></trkpt><trkpt lat="55.7532819" lon="48.7408592"><time>2021-10-23T19:06:11.203</time></trkpt><trkpt lat="55.7532507" lon="48.7407944"><time>2021-10-23T19:06:30.367</time></trkpt><trkpt lat="55.7532904" lon="48.7408331"><time>2021-10-23T19:06:39.273</time></trkpt><trkpt lat="55.7533204" lon="48.7408927"><time>2021-10-23T19:06:44.387</time></trkpt><trkpt lat="55.7533035" lon="48.7409741"><time>2021-10-23T19:06:52.353</time></trkpt><trkpt lat="55.7532596" lon="48.7409962"><time>2021-10-23T19:06:58.210</time></trkpt><trkpt lat="55.7532955" lon="48.7409354"><time>2021-10-23T19:07:15.213</time></trkpt><trkpt lat="55.7533382" lon="48.7409099"><time>2021-10-23T19:07:28.173</time></trkpt><trkpt lat="55.7533380" lon="48.7408211"><time>2021-10-23T19:07:36.177</time></trkpt><trkpt lat="55.7533421" lon="48.7407404"><time>2021-10-23T19:07:42.187</time></trkpt><trkpt lat="55.7533499" lon="48.7406489"><time>2021-10-23T19:07:49.227</time></trkpt><trkpt lat="55.7533677" lon="48.7405687"><time>2021-10-23T19:07:55.210</time></trkpt><trkpt lat="55.7534040" lon="48.7405129"><time>2021-10-23T19:08:01.207</time></trkpt><trkpt lat="55.7534548" lon="48.7404886"><time>2021-10-23T19:08:07.180</time></trkpt><trkpt lat="55.7534598" lon="48.7404048"><time>2021-10-23T19:08:15.190</time></trkpt><trkpt lat="55.7539536" lon="48.7420714"><time>2021-10-23T19:17:06.290</time></trkpt><trkpt lat="55.7539672" lon="48.7419302"><time>2021-10-23T19:17:07.297</time></trkpt><trkpt lat="55.7539653" lon="48.7417176"><time>2021-10-23T19:17:12.350</time></trkpt><trkpt lat="55.7539669" lon="48.7416028"><time>2021-10-23T19:17:17.310</time></trkpt><trkpt lat="55.7539908" lon="48.7414641"><time>2021-10-23T19:17:34.337</time></trkpt><trkpt lat="55.7540247" lon="48.7414072"><time>2021-10-23T19:17:41.277</time></trkpt><trkpt lat="55.7540367" lon="48.7413111"><time>2021-10-23T19:18:29.287</time></trkpt><trkpt lat="55.7540392" lon="48.7412188"><time>2021-10-23T19:18:35.337</time></trkpt><trkpt lat="55.7540536" lon="48.7411382"><time>2021-10-23T19:19:12.307</time></trkpt><trkpt lat="55.7540146" lon="48.7410908"><time>2021-10-23T19:32:04.203</time></trkpt><trkpt lat="55.7540000" lon="48.7409988"><time>2021-10-23T19:32:10.197</time></trkpt><trkpt lat="55.7542072" lon="48.7409700"><time>2021-10-23T19:34:30.183</time></trkpt><trkpt lat="55.7540025" lon="48.7409817"><time>2021-10-23T19:35:18.167</time></trkpt><trkpt lat="55.7540164" lon="48.7408358"><time>2021-10-23T19:36:54.200</time></trkpt><trkpt lat="55.7539984" lon="48.7410282"><time>2021-10-23T19:37:25.200</time></trkpt><trkpt lat="55.7541880" lon="48.7409561"><time>2021-10-23T19:38:15.197</time></trkpt><trkpt lat="55.7539987" lon="48.7410286"><time>2021-10-23T19:38:19.187</time></trkpt><trkpt lat="55.7539879" lon="48.7410517"><time>2021-10-23T19:58:19.883</time></trkpt><trkpt lat="55.7540282" lon="48.7409417"><time>2021-10-23T20:01:24.890</time></trkpt><trkpt lat="55.7540248" lon="48.7408490"><time>2021-10-23T20:01:36.887</time></trkpt><trkpt lat="55.7539798" lon="48.7408092"><time>2021-10-23T20:01:43.873</time></trkpt><trkpt lat="55.7540180" lon="48.7408799"><time>2021-10-23T20:02:09.870</time></trkpt><trkpt lat="55.7540627" lon="48.7408691"><time>2021-10-23T20:02:33.870</time></trkpt><trkpt lat="55.7540349" lon="48.7407893"><time>2021-10-23T20:03:34.883</time></trkpt><trkpt lat="55.7539884" lon="48.7408270"><time>2021-10-23T20:03:45.877</time></trkpt><trkpt lat="55.7540330" lon="48.7408515"><time>2021-10-23T20:04:58.890</time></trkpt><trkpt lat="55.7540617" lon="48.7409181"><time>2021-10-23T20:05:23.887</time></trkpt><trkpt lat="55.7541087" lon="48.7409306"><time>2021-10-23T20:05:49.880</time></trkpt><trkpt lat="55.7541517" lon="48.7409595"><time>2021-10-23T20:06:21.890</time></trkpt><trkpt lat="55.7542111" lon="48.7409568"><time>2021-10-23T20:06:31.877</time></trkpt><trkpt lat="55.7541632" lon="48.7409596"><time>2021-10-23T20:10:18.890</time></trkpt><trkpt lat="55.7541043" lon="48.7409454"><time>2021-10-23T20:10:20.877</time></trkpt><trkpt lat="55.7540595" lon="48.7409617"><time>2021-10-23T20:10:22.880</time></trkpt><trkpt lat="55.7539823" lon="48.7410031"><time>2021-10-23T20:10:24.897</time></trkpt><trkpt lat="55.7539367" lon="48.7409963"><time>2021-10-23T20:10:31.867</time></trkpt><trkpt lat="55.7539851" lon="48.7409729"><time>2021-10-23T20:10:36.877</time></trkpt><trkpt lat="55.7542405" lon="48.7410558"><time>2021-10-23T20:10:37.877</time></trkpt><trkpt lat="55.7541983" lon="48.7411012"><time>2021-10-23T20:10:40.887</time></trkpt><trkpt lat="55.7541549" lon="48.7411365"><time>2021-10-23T20:10:46.900</time></trkpt><trkpt lat="55.7541065" lon="48.7411851"><time>2021-10-23T20:10:49.897</time></trkpt><trkpt lat="55.7540575" lon="48.7412066"><time>2021-10-23T20:11:02.887</time></trkpt><trkpt lat="55.7540026" lon="48.7411693"><time>2021-10-23T20:11:08.870</time></trkpt><trkpt lat="55.7539590" lon="48.7411272"><time>2021-10-23T20:11:11.897</time></trkpt><trkpt lat="55.7539179" lon="48.7410878"><time>2021-10-23T20:11:14.890</time></trkpt><trkpt lat="55.7538613" lon="48.7410728"><time>2021-10-23T20:11:17.877</time></trkpt><trkpt lat="55.7538645" lon="48.7409927"><time>2021-10-23T20:11:24.877</time></trkpt><trkpt lat="55.7539137" lon="48.7409429"><time>2021-10-23T20:11:27.873</time></trkpt><trkpt lat="55.7538823" lon="48.7410624"><time>2021-10-23T20:11:34.867</time></trkpt><trkpt lat="55.7537048" lon="48.7412284"><time>2021-10-23T20:11:37.877</time></trkpt><trkpt lat="55.7537742" lon="48.7412040"><time>2021-10-23T20:11:42.853</time></trkpt><trkpt lat="55.7538348" lon="48.7411663"><time>2021-10-23T20:11:44.873</time></trkpt><trkpt lat="55.7538834" lon="48.7411410"><time>2021-10-23T20:11:49.867</time></trkpt><trkpt lat="55.7538261" lon="48.7411253"><time>2021-10-23T20:11:52.873</time></trkpt><trkpt lat="55.7537983" lon="48.7410559"><time>2021-10-23T20:11:56.927</time></trkpt><trkpt lat="55.7538371" lon="48.7410118"><time>2021-10-23T20:11:58.877</time></trkpt><trkpt lat="55.7539236" lon="48.7410073"><time>2021-10-23T20:12:00.893</time></trkpt><trkpt lat="55.7539697" lon="48.7410209"><time>2021-10-23T20:12:02.880</time></trkpt><trkpt lat="55.7540496" lon="48.7410933"><time>2021-10-23T20:12:04.877</time></trkpt><trkpt lat="55.7541010" lon="48.7411757"><time>2021-10-23T20:12:06.887</time></trkpt><trkpt lat="55.7541492" lon="48.7411361"><time>2021-10-23T20:12:12.887</time></trkpt><trkpt lat="55.7542034" lon="48.7411015"><time>2021-10-23T20:12:16.867</time></trkpt><trkpt lat="55.7541710" lon="48.7410403"><time>2021-10-23T20:12:26.897</time></trkpt><trkpt lat="55.7541445" lon="48.7411267"><time>2021-10-23T20:12:40.880</time></trkpt><trkpt lat="55.7541073" lon="48.7411720"><time>2021-10-23T20:12:45.893</time></trkpt><trkpt lat="55.7541597" lon="48.7411068"><time>2021-10-23T20:12:49.890</time></trkpt><trkpt lat="55.7540923" lon="48.7411151"><time>2021-10-23T20:12:55.877</time></trkpt><trkpt lat="55.7540498" lon="48.7410297"><time>2021-10-23T20:12:57.870</time></trkpt><trkpt lat="55.7540096" lon="48.7409630"><time>2021-10-23T20:13:00.880</time></trkpt><trkpt lat="55.7540664" lon="48.7409770"><time>2021-10-23T20:13:08.853</time></trkpt><trkpt lat="55.7541136" lon="48.7409977"><time>2021-10-23T20:13:12.877</time></trkpt><trkpt lat="55.7541584" lon="48.7409846"><time>2021-10-23T20:13:15.853</time></trkpt><trkpt lat="55.7541461" lon="48.7410704"><time>2021-10-23T20:13:24.900</time></trkpt><trkpt lat="55.7541885" lon="48.7411873"><time>2021-10-23T20:13:25.887</time></trkpt><trkpt lat="55.7542090" lon="48.7412660"><time>2021-10-23T20:13:26.880</time></trkpt><trkpt lat="55.7542142" lon="48.7413871"><time>2021-10-23T20:13:28.883</time></trkpt><trkpt lat="55.7541850" lon="48.7414608"><time>2021-10-23T20:13:30.863</time></trkpt><trkpt lat="55.7541425" lon="48.7414951"><time>2021-10-23T20:13:32.863</time></trkpt><trkpt lat="55.7541030" lon="48.7415729"><time>2021-10-23T20:13:35.877</time></trkpt><trkpt lat="55.7540488" lon="48.7417001"><time>2021-10-23T20:13:42.877</time></trkpt><trkpt lat="55.7540096" lon="48.7417958"><time>2021-10-23T20:13:44.877</time></trkpt><trkpt lat="55.7539544" lon="48.7418617"><time>2021-10-23T20:13:46.880</time></trkpt><trkpt lat="55.7538968" lon="48.7418367"><time>2021-10-23T20:13:50.880</time></trkpt><trkpt lat="55.7538929" lon="48.7417467"><time>2021-10-23T20:13:53.900</time></trkpt><trkpt lat="55.7539153" lon="48.7416262"><time>2021-10-23T20:13:55.873</time></trkpt><trkpt lat="55.7539312" lon="48.7415466"><time>2021-10-23T20:13:57.873</time></trkpt><trkpt lat="55.7539858" lon="48.7416397"><time>2021-10-23T20:14:02.893</time></trkpt><trkpt lat="55.7540422" lon="48.7416530"><time>2021-10-23T20:14:05.887</time></trkpt><trkpt lat="55.7540939" lon="48.7416046"><time>2021-10-23T20:14:09.877</time></trkpt><trkpt lat="55.7541454" lon="48.7415988"><time>2021-10-23T20:14:11.890</time></trkpt><trkpt lat="55.7541542" lon="48.7415107"><time>2021-10-23T20:14:13.873</time></trkpt><trkpt lat="55.7541159" lon="48.7414165"><time>2021-10-23T20:14:15.890</time></trkpt><trkpt lat="55.7540783" lon="48.7413561"><time>2021-10-23T20:14:17.877</time></trkpt><trkpt lat="55.7540519" lon="48.7412680"><time>2021-10-23T20:14:19.873</time></trkpt><trkpt lat="55.7541132" lon="48.7409251"><time>2021-10-23T20:16:29.887</time></trkpt><trkpt lat="55.7540564" lon="48.7412206"><time>2021-10-23T20:16:38.877</time></trkpt><trkpt lat="55.7540495" lon="48.7411888"><time>2021-10-23T20:23:20.213</time></trkpt><trkpt lat="55.7541219" lon="48.7411711"><time>2021-10-23T20:24:27.650</time></trkpt><trkpt lat="55.7541772" lon="48.7411604"><time>2021-10-23T20:24:29.633</time></trkpt><trkpt lat="55.7541721" lon="48.7410795"><time>2021-10-23T20:24:34.650</time></trkpt><trkpt lat="55.7541402" lon="48.7410131"><time>2021-10-23T20:24:49.633</time></trkpt><trkpt lat="55.7541390" lon="48.7411457"><time>2021-10-23T20:25:48.647</time></trkpt><trkpt lat="55.7540855" lon="48.7410138"><time>2021-10-23T20:28:06.640</time></trkpt><trkpt lat="55.7540451" lon="48.7410503"><time>2021-10-23T20:28:25.640</time></trkpt><trkpt lat="55.7540027" lon="48.7410819"><time>2021-10-23T20:28:31.647</time></trkpt><trkpt lat="55.7539581" lon="48.7411142"><time>2021-10-23T20:28:38.647</time></trkpt><trkpt lat="55.7539158" lon="48.7411427"><time>2021-10-23T20:28:44.643</time></trkpt><trkpt lat="55.7535738" lon="48.7410298"><time>2021-10-23T20:28:57.650</time></trkpt><trkpt lat="55.7535309" lon="48.7409885"><time>2021-10-23T20:29:01.647</time></trkpt><trkpt lat="55.7531694" lon="48.7412956"><time>2021-10-23T20:29:10.653</time></trkpt><trkpt lat="55.7531784" lon="48.7411910"><time>2021-10-23T20:29:12.643</time></trkpt><trkpt lat="55.7531457" lon="48.7411089"><time>2021-10-23T20:29:16.650</time></trkpt><trkpt lat="55.7530980" lon="48.7411463"><time>2021-10-23T20:29:25.657</time></trkpt><trkpt lat="55.7530879" lon="48.7412479"><time>2021-10-23T20:29:29.667</time></trkpt><trkpt lat="55.7531208" lon="48.7413065"><time>2021-10-23T20:29:32.643</time></trkpt><trkpt lat="55.7531696" lon="48.7413309"><time>2021-10-23T20:29:35.657</time></trkpt><trkpt lat="55.7532239" lon="48.7413643"><time>2021-10-23T20:29:38.640</time></trkpt><trkpt lat="55.7532792" lon="48.7414106"><time>2021-10-23T20:29:41.663</time></trkpt><trkpt lat="55.7533306" lon="48.7414385"><time>2021-10-23T20:29:44.653</time></trkpt><trkpt lat="55.7533510" lon="48.7413625"><time>2021-10-23T20:29:49.653</time></trkpt><trkpt lat="55.7533447" lon="48.7412836"><time>2021-10-23T20:30:12.657</time></trkpt><trkpt lat="55.7533288" lon="48.7412077"><time>2021-10-23T20:30:21.663</time></trkpt><trkpt lat="55.7532836" lon="48.7411657"><time>2021-10-23T20:30:26.657</time></trkpt><trkpt lat="55.7532388" lon="48.7411227"><time>2021-10-23T20:30:29.653</time></trkpt><trkpt lat="55.7531446" lon="48.7411075"><time>2021-10-23T20:30:31.657</time></trkpt><trkpt lat="55.7530905" lon="48.7411235"><time>2021-10-23T20:30:32.653</time></trkpt><trkpt lat="55.7530401" lon="48.7411612"><time>2021-10-23T20:30:33.657</time></trkpt><trkpt lat="55.7530057" lon="48.7412350"><time>2021-10-23T20:30:34.657</time></trkpt><trkpt lat="55.7530322" lon="48.7414864"><time>2021-10-23T20:30:35.657</time></trkpt><trkpt lat="55.7530219" lon="48.7415722"><time>2021-10-23T20:30:36.623</time></trkpt><trkpt lat="55.7530007" lon="48.7416561"><time>2021-10-23T20:30:37.650</time></trkpt><trkpt lat="55.7529634" lon="48.7417243"><time>2021-10-23T20:30:38.650</time></trkpt><trkpt lat="55.7529122" lon="48.7417734"><time>2021-10-23T20:30:39.637</time></trkpt><trkpt lat="55.7528643" lon="48.7417741"><time>2021-10-23T20:30:40.650</time></trkpt><trkpt lat="55.7528204" lon="48.7417336"><time>2021-10-23T20:30:41.637</time></trkpt><trkpt lat="55.7527476" lon="48.7417086"><time>2021-10-23T20:30:43.637</time></trkpt><trkpt lat="55.7526780" lon="48.7416982"><time>2021-10-23T20:30:45.640</time></trkpt><trkpt lat="55.7526342" lon="48.7417594"><time>2021-10-23T20:30:47.650</time></trkpt><trkpt lat="55.7525975" lon="48.7418537"><time>2021-10-23T20:30:49.643</time></trkpt><trkpt lat="55.7525766" lon="48.7419367"><time>2021-10-23T20:30:50.647</time></trkpt><trkpt lat="55.7525527" lon="48.7420228"><time>2021-10-23T20:30:51.643</time></trkpt><trkpt lat="55.7525299" lon="48.7421068"><time>2021-10-23T20:30:52.640</time></trkpt><trkpt lat="55.7525041" lon="48.7421980"><time>2021-10-23T20:30:53.650</time></trkpt><trkpt lat="55.7524822" lon="48.7422970"><time>2021-10-23T20:30:54.710</time></trkpt><trkpt lat="55.7524623" lon="48.7423940"><time>2021-10-23T20:30:55.623</time></trkpt><trkpt lat="55.7524385" lon="48.7424792"><time>2021-10-23T20:30:56.647</time></trkpt><trkpt lat="55.7524239" lon="48.7425679"><time>2021-10-23T20:30:57.643</time></trkpt><trkpt lat="55.7524031" lon="48.7426584"><time>2021-10-23T20:30:58.647</time></trkpt><trkpt lat="55.7523777" lon="48.7427545"><time>2021-10-23T20:30:59.647</time></trkpt><trkpt lat="55.7523632" lon="48.7428520"><time>2021-10-23T20:31:00.717</time></trkpt><trkpt lat="55.7523409" lon="48.7429402"><time>2021-10-23T20:31:01.650</time></trkpt><trkpt lat="55.7523183" lon="48.7430291"><time>2021-10-23T20:31:02.647</time></trkpt><trkpt lat="55.7522859" lon="48.7431377"><time>2021-10-23T20:31:03.623</time></trkpt><trkpt lat="55.7522705" lon="48.7432363"><time>2021-10-23T20:31:04.640</time></trkpt><trkpt lat="55.7522406" lon="48.7433249"><time>2021-10-23T20:31:05.647</time></trkpt><trkpt lat="55.7522263" lon="48.7434126"><time>2021-10-23T20:31:06.707</time></trkpt><trkpt lat="55.7522034" lon="48.7434899"><time>2021-10-23T20:31:07.643</time></trkpt><trkpt lat="55.7521679" lon="48.7435566"><time>2021-10-23T20:31:08.643</time></trkpt><trkpt lat="55.7521361" lon="48.7436301"><time>2021-10-23T20:31:09.630</time></trkpt><trkpt lat="55.7520947" lon="48.7436970"><time>2021-10-23T20:31:10.643</time></trkpt><trkpt lat="55.7520570" lon="48.7437460"><time>2021-10-23T20:31:11.647</time></trkpt><trkpt lat="55.7520173" lon="48.7438053"><time>2021-10-23T20:31:12.707</time></trkpt><trkpt lat="55.7519439" lon="48.7438530"><time>2021-10-23T20:31:14.630</time></trkpt><trkpt lat="55.7518924" lon="48.7438975"><time>2021-10-23T20:31:15.643</time></trkpt><trkpt lat="55.7518448" lon="48.7439445"><time>2021-10-23T20:31:16.643</time></trkpt><trkpt lat="55.7517940" lon="48.7439821"><time>2021-10-23T20:31:17.623</time></trkpt><trkpt lat="55.7517132" lon="48.7439875"><time>2021-10-23T20:31:19.640</time></trkpt><trkpt lat="55.7516618" lon="48.7439425"><time>2021-10-23T20:31:20.657</time></trkpt><trkpt lat="55.7516047" lon="48.7438761"><time>2021-10-23T20:31:21.647</time></trkpt><trkpt lat="55.7515586" lon="48.7438352"><time>2021-10-23T20:31:22.647</time></trkpt><trkpt lat="55.7515038" lon="48.7438076"><time>2021-10-23T20:31:23.650</time></trkpt><trkpt lat="55.7514474" lon="48.7437752"><time>2021-10-23T20:31:24.707</time></trkpt><trkpt lat="55.7513967" lon="48.7437357"><time>2021-10-23T20:31:25.643</time></trkpt><trkpt lat="55.7513467" lon="48.7437003"><time>2021-10-23T20:31:26.627</time></trkpt><trkpt lat="55.7512773" lon="48.7436360"><time>2021-10-23T20:31:28.640</time></trkpt><trkpt lat="55.7512092" lon="48.7435517"><time>2021-10-23T20:31:30.643</time></trkpt><trkpt lat="55.7511596" lon="48.7435390"><time>2021-10-23T20:31:31.643</time></trkpt><trkpt lat="55.7510676" lon="48.7434826"><time>2021-10-23T20:31:33.627</time></trkpt><trkpt lat="55.7509919" lon="48.7434068"><time>2021-10-23T20:31:35.717</time></trkpt><trkpt lat="55.7509474" lon="48.7433893"><time>2021-10-23T20:31:36.643</time></trkpt><trkpt lat="55.7508969" lon="48.7433713"><time>2021-10-23T20:31:37.647</time></trkpt><trkpt lat="55.7508346" lon="48.7433358"><time>2021-10-23T20:31:38.630</time></trkpt><trkpt lat="55.7507896" lon="48.7432899"><time>2021-10-23T20:31:39.627</time></trkpt><trkpt lat="55.7507422" lon="48.7432211"><time>2021-10-23T20:31:40.643</time></trkpt><trkpt lat="55.7506931" lon="48.7431518"><time>2021-10-23T20:31:41.630</time></trkpt><trkpt lat="55.7506367" lon="48.7430727"><time>2021-10-23T20:31:42.640</time></trkpt><trkpt lat="55.7505812" lon="48.7430167"><time>2021-10-23T20:31:43.630</time></trkpt><trkpt lat="55.7505286" lon="48.7430108"><time>2021-10-23T20:31:44.640</time></trkpt><trkpt lat="55.7504826" lon="48.7429672"><time>2021-10-23T20:31:45.640</time></trkpt><trkpt lat="55.7504337" lon="48.7429133"><time>2021-10-23T20:31:46.713</time></trkpt><trkpt lat="55.7503891" lon="48.7428750"><time>2021-10-23T20:31:47.637</time></trkpt><trkpt lat="55.7503369" lon="48.7428150"><time>2021-10-23T20:31:48.647</time></trkpt><trkpt lat="55.7502822" lon="48.7427553"><time>2021-10-23T20:31:49.657</time></trkpt><trkpt lat="55.7502370" lon="48.7427059"><time>2021-10-23T20:31:50.630</time></trkpt><trkpt lat="55.7501909" lon="48.7426651"><time>2021-10-23T20:31:51.647</time></trkpt><trkpt lat="55.7501421" lon="48.7426328"><time>2021-10-23T20:31:52.733</time></trkpt><trkpt lat="55.7500942" lon="48.7425800"><time>2021-10-23T20:31:53.667</time></trkpt><trkpt lat="55.7500470" lon="48.7425319"><time>2021-10-23T20:31:54.643</time></trkpt><trkpt lat="55.7499968" lon="48.7424840"><time>2021-10-23T20:31:55.623</time></trkpt><trkpt lat="55.7499466" lon="48.7424183"><time>2021-10-23T20:31:56.640</time></trkpt><trkpt lat="55.7499030" lon="48.7423725"><time>2021-10-23T20:31:57.637</time></trkpt><trkpt lat="55.7498497" lon="48.7423205"><time>2021-10-23T20:31:58.707</time></trkpt><trkpt lat="55.7497986" lon="48.7422766"><time>2021-10-23T20:31:59.637</time></trkpt><trkpt lat="55.7497495" lon="48.7422382"><time>2021-10-23T20:32:00.647</time></trkpt><trkpt lat="55.7496992" lon="48.7421918"><time>2021-10-23T20:32:01.647</time></trkpt><trkpt lat="55.7496446" lon="48.7421318"><time>2021-10-23T20:32:02.650</time></trkpt><trkpt lat="55.7495959" lon="48.7420774"><time>2021-10-23T20:32:03.650</time></trkpt><trkpt lat="55.7495508" lon="48.7420276"><time>2021-10-23T20:32:04.727</time></trkpt><trkpt lat="55.7495072" lon="48.7419681"><time>2021-10-23T20:32:05.653</time></trkpt><trkpt lat="55.7494224" lon="48.7418928"><time>2021-10-23T20:32:07.637</time></trkpt><trkpt lat="55.7493750" lon="48.7418352"><time>2021-10-23T20:32:08.637</time></trkpt><trkpt lat="55.7493211" lon="48.7417756"><time>2021-10-23T20:32:09.640</time></trkpt><trkpt lat="55.7492834" lon="48.7417311"><time>2021-10-23T20:32:10.710</time></trkpt><trkpt lat="55.7491964" lon="48.7416762"><time>2021-10-23T20:32:12.627</time></trkpt><trkpt lat="55.7491317" lon="48.7416741"><time>2021-10-23T20:32:14.633</time></trkpt><trkpt lat="55.7490972" lon="48.7417558"><time>2021-10-23T20:32:16.690</time></trkpt><trkpt lat="55.7490395" lon="48.7418660"><time>2021-10-23T20:32:18.637</time></trkpt><trkpt lat="55.7489722" lon="48.7419543"><time>2021-10-23T20:32:20.643</time></trkpt><trkpt lat="55.7489151" lon="48.7419730"><time>2021-10-23T20:32:22.723</time></trkpt><trkpt lat="55.7488494" lon="48.7418579"><time>2021-10-23T20:32:24.647</time></trkpt><trkpt lat="55.7488057" lon="48.7418089"><time>2021-10-23T20:32:25.653</time></trkpt><trkpt lat="55.7487484" lon="48.7417899"><time>2021-10-23T20:32:26.630</time></trkpt><trkpt lat="55.7486950" lon="48.7417864"><time>2021-10-23T20:32:27.647</time></trkpt><trkpt lat="55.7486503" lon="48.7418648"><time>2021-10-23T20:32:29.647</time></trkpt><trkpt lat="55.7486161" lon="48.7419815"><time>2021-10-23T20:32:31.643</time></trkpt><trkpt lat="55.7485928" lon="48.7421254"><time>2021-10-23T20:32:33.650</time></trkpt><trkpt lat="55.7485813" lon="48.7422038"><time>2021-10-23T20:32:34.643</time></trkpt><trkpt lat="55.7485537" lon="48.7423382"><time>2021-10-23T20:32:36.633</time></trkpt><trkpt lat="55.7485080" lon="48.7424753"><time>2021-10-23T20:32:38.653</time></trkpt><trkpt lat="55.7484886" lon="48.7425484"><time>2021-10-23T20:32:39.617</time></trkpt><trkpt lat="55.7484474" lon="48.7426226"><time>2021-10-23T20:32:41.640</time></trkpt><trkpt lat="55.7483807" lon="48.7426738"><time>2021-10-23T20:32:43.647</time></trkpt><trkpt lat="55.7483306" lon="48.7427020"><time>2021-10-23T20:32:44.650</time></trkpt><trkpt lat="55.7482678" lon="48.7427641"><time>2021-10-23T20:32:45.710</time></trkpt><trkpt lat="55.7482278" lon="48.7428225"><time>2021-10-23T20:32:46.647</time></trkpt><trkpt lat="55.7482096" lon="48.7429079"><time>2021-10-23T20:32:47.630</time></trkpt><trkpt lat="55.7481807" lon="48.7430386"><time>2021-10-23T20:32:48.643</time></trkpt><trkpt lat="55.7481651" lon="48.7431171"><time>2021-10-23T20:32:49.627</time></trkpt><trkpt lat="55.7482223" lon="48.7431734"><time>2021-10-23T20:32:50.650</time></trkpt><trkpt lat="55.7481964" lon="48.7433004"><time>2021-10-23T20:32:52.643</time></trkpt><trkpt lat="55.7482001" lon="48.7434194"><time>2021-10-23T20:32:54.647</time></trkpt><trkpt lat="55.7482004" lon="48.7435136"><time>2021-10-23T20:32:56.623</time></trkpt><trkpt lat="55.7482469" lon="48.7435817"><time>2021-10-23T20:33:01.643</time></trkpt><trkpt lat="55.7482668" lon="48.7436587"><time>2021-10-23T20:33:09.647</time></trkpt><trkpt lat="55.7483070" lon="48.7437100"><time>2021-10-23T20:33:24.617</time></trkpt><trkpt lat="55.7483465" lon="48.7437500"><time>2021-10-23T20:33:32.630</time></trkpt><trkpt lat="55.7483932" lon="48.7437381"><time>2021-10-23T20:33:37.657</time></trkpt><trkpt lat="55.7484141" lon="48.7436650"><time>2021-10-23T20:33:41.643</time></trkpt><trkpt lat="55.7484515" lon="48.7436017"><time>2021-10-23T20:33:46.647</time></trkpt><trkpt lat="55.7485007" lon="48.7436257"><time>2021-10-23T20:33:52.677</time></trkpt><trkpt lat="55.7485410" lon="48.7436679"><time>2021-10-23T20:33:56.680</time></trkpt><trkpt lat="55.7485785" lon="48.7437167"><time>2021-10-23T20:34:01.663</time></trkpt><trkpt lat="55.7486234" lon="48.7437724"><time>2021-10-23T20:34:07.653</time></trkpt><trkpt lat="55.7486650" lon="48.7438028"><time>2021-10-23T20:34:11.650</time></trkpt><trkpt lat="55.7487186" lon="48.7438329"><time>2021-10-23T20:34:15.650</time></trkpt><trkpt lat="55.7487710" lon="48.7438594"><time>2021-10-23T20:34:19.657</time></trkpt><trkpt lat="55.7488141" lon="48.7438938"><time>2021-10-23T20:34:23.647</time></trkpt><trkpt lat="55.7488584" lon="48.7439463"><time>2021-10-23T20:34:28.650</time></trkpt><trkpt lat="55.7489020" lon="48.7439791"><time>2021-10-23T20:34:32.677</time></trkpt><trkpt lat="55.7489498" lon="48.7440127"><time>2021-10-23T20:34:36.660</time></trkpt><trkpt lat="55.7490028" lon="48.7440533"><time>2021-10-23T20:34:40.657</time></trkpt><trkpt lat="55.7490532" lon="48.7440728"><time>2021-10-23T20:34:44.660</time></trkpt><trkpt lat="55.7491005" lon="48.7441143"><time>2021-10-23T20:34:48.653</time></trkpt><trkpt lat="55.7491506" lon="48.7441507"><time>2021-10-23T20:34:52.657</time></trkpt><trkpt lat="55.7491901" lon="48.7441946"><time>2021-10-23T20:34:56.680</time></trkpt><trkpt lat="55.7492319" lon="48.7442423"><time>2021-10-23T20:35:00.677</time></trkpt><trkpt lat="55.7492755" lon="48.7442839"><time>2021-10-23T20:35:04.660</time></trkpt><trkpt lat="55.7493058" lon="48.7443497"><time>2021-10-23T20:35:08.667</time></trkpt><trkpt lat="55.7493403" lon="48.7444097"><time>2021-10-23T20:35:13.653</time></trkpt><trkpt lat="55.7493891" lon="48.7444229"><time>2021-10-23T20:35:18.670</time></trkpt><trkpt lat="55.7494258" lon="48.7443567"><time>2021-10-23T20:35:22.697</time></trkpt><trkpt lat="55.7494543" lon="48.7442866"><time>2021-10-23T20:35:26.653</time></trkpt><trkpt lat="55.7494763" lon="48.7442136"><time>2021-10-23T20:35:30.667</time></trkpt><trkpt lat="55.7495106" lon="48.7441598"><time>2021-10-23T20:35:34.657</time></trkpt><trkpt lat="55.7495227" lon="48.7440822"><time>2021-10-23T20:35:38.657</time></trkpt><trkpt lat="55.7495471" lon="48.7439927"><time>2021-10-23T20:35:44.667</time></trkpt><trkpt lat="55.7495820" lon="48.7439281"><time>2021-10-23T20:35:48.663</time></trkpt><trkpt lat="55.7496250" lon="48.7438693"><time>2021-10-23T20:35:52.680</time></trkpt><trkpt lat="55.7496624" lon="48.7437935"><time>2021-10-23T20:35:56.720</time></trkpt><trkpt lat="55.7496918" lon="48.7437296"><time>2021-10-23T20:35:59.657</time></trkpt><trkpt lat="55.7497295" lon="48.7436807"><time>2021-10-23T20:36:02.677</time></trkpt><trkpt lat="55.7497591" lon="48.7436105"><time>2021-10-23T20:36:06.657</time></trkpt><trkpt lat="55.7497967" lon="48.7435593"><time>2021-10-23T20:36:10.660</time></trkpt><trkpt lat="55.7498309" lon="48.7434927"><time>2021-10-23T20:36:14.657</time></trkpt><trkpt lat="55.7498589" lon="48.7434177"><time>2021-10-23T20:36:18.653</time></trkpt><trkpt lat="55.7498674" lon="48.7433319"><time>2021-10-23T20:36:26.657</time></trkpt><trkpt lat="55.7498184" lon="48.7433077"><time>2021-10-23T20:36:37.677</time></trkpt><trkpt lat="55.7497740" lon="48.7432955"><time>2021-10-23T20:36:54.653</time></trkpt><trkpt lat="55.7497253" lon="48.7432707"><time>2021-10-23T20:38:22.647</time></trkpt><trkpt lat="55.7496737" lon="48.7431516"><time>2021-10-23T20:39:07.633</time></trkpt><trkpt lat="55.7495018" lon="48.7429278"><time>2021-10-23T20:39:08.657</time></trkpt><trkpt lat="55.7495702" lon="48.7429126"><time>2021-10-23T20:39:47.653</time></trkpt><trkpt lat="55.7496144" lon="48.7429406"><time>2021-10-23T20:39:58.653</time></trkpt><trkpt lat="55.7496595" lon="48.7429699"><time>2021-10-23T20:40:03.657</time></trkpt><trkpt lat="55.7497053" lon="48.7429765"><time>2021-10-23T20:40:41.630</time></trkpt><trkpt lat="55.7497105" lon="48.7430628"><time>2021-10-23T20:41:42.657</time></trkpt><trkpt lat="55.7496656" lon="48.7430519"><time>2021-10-23T20:42:05.657</time></trkpt><trkpt lat="55.7496298" lon="48.7430026"><time>2021-10-23T20:42:20.653</time></trkpt><trkpt lat="55.7495837" lon="48.7429700"><time>2021-10-23T20:46:00.647</time></trkpt><trkpt lat="55.7495692" lon="48.7428839"><time>2021-10-23T20:46:02.660</time></trkpt><trkpt lat="55.7496108" lon="48.7428121"><time>2021-10-23T20:46:03.647</time></trkpt><trkpt lat="55.7496612" lon="48.7428392"><time>2021-10-23T20:46:05.663</time></trkpt><trkpt lat="55.7496661" lon="48.7429278"><time>2021-10-23T20:46:09.647</time></trkpt><trkpt lat="55.7498030" lon="48.7431872"><time>2021-10-23T20:48:59.643</time></trkpt><trkpt lat="55.7497929" lon="48.7432683"><time>2021-10-23T20:55:01.657</time></trkpt><trkpt lat="55.7497402" lon="48.7433001"><time>2021-10-23T20:55:07.640</time></trkpt><trkpt lat="55.7497295" lon="48.7432090"><time>2021-10-23T20:55:25.657</time></trkpt><trkpt lat="55.7497810" lon="48.7431435"><time>2021-10-23T20:56:27.647</time></trkpt><trkpt lat="55.7498243" lon="48.7431111"><time>2021-10-23T20:56:28.643</time></trkpt><trkpt lat="55.7498763" lon="48.7431123"><time>2021-10-23T20:56:34.727</time></trkpt><trkpt lat="55.7498277" lon="48.7431056"><time>2021-10-23T20:56:54.653</time></trkpt><trkpt lat="55.7498293" lon="48.7431872"><time>2021-10-23T20:56:59.727</time></trkpt><trkpt lat="55.7498147" lon="48.7431039"><time>2021-10-23T20:57:11.710</time></trkpt><trkpt lat="55.7497848" lon="48.7430427"><time>2021-10-23T20:57:27.653</time></trkpt><trkpt lat="55.7497145" lon="48.7430101"><time>2021-10-23T20:57:37.643</time></trkpt><trkpt lat="55.7496948" lon="48.7430965"><time>2021-10-23T20:57:40.647</time></trkpt><trkpt lat="55.7496504" lon="48.7430684"><time>2021-10-23T20:57:46.640</time></trkpt><trkpt lat="55.7496574" lon="48.7429870"><time>2021-10-23T20:57:59.640</time></trkpt><trkpt lat="55.7497037" lon="48.7429620"><time>2021-10-23T20:58:09.660</time></trkpt><trkpt lat="55.7496611" lon="48.7429909"><time>2021-10-23T20:58:18.647</time></trkpt><trkpt lat="55.7497040" lon="48.7429615"><time>2021-10-23T20:58:48.653</time></trkpt><trkpt lat="55.7497317" lon="48.7430266"><time>2021-10-23T20:59:52.653</time></trkpt><trkpt lat="55.7497674" lon="48.7430922"><time>2021-10-23T21:01:04.673</time></trkpt><trkpt lat="55.7497917" lon="48.7429042"><time>2021-10-23T21:01:58.660</time></trkpt><trkpt lat="55.7497557" lon="48.7428539"><time>2021-10-23T21:02:24.673</time></trkpt><trkpt lat="55.7497623" lon="48.7427681"><time>2021-10-23T21:07:56.660</time></trkpt><trkpt lat="55.7497213" lon="48.7428023"><time>2021-10-23T21:08:25.650</time></trkpt><trkpt lat="55.7497310" lon="48.7429000"><time>2021-10-23T21:09:21.790</time></trkpt><trkpt lat="55.7496742" lon="48.7429600"><time>2021-10-23T21:10:14.867</time></trkpt><trkpt lat="55.7495966" lon="48.7430007"><time>2021-10-23T21:10:17.657</time></trkpt><trkpt lat="55.7496003" lon="48.7428908"><time>2021-10-23T21:10:22.650</time></trkpt><trkpt lat="55.7496368" lon="48.7427851"><time>2021-10-23T21:10:24.643</time></trkpt><trkpt lat="55.7496917" lon="48.7426723"><time>2021-10-23T21:10:27.647</time></trkpt><trkpt lat="55.7497278" lon="48.7426107"><time>2021-10-23T21:10:31.640</time></trkpt><trkpt lat="55.7497753" lon="48.7425441"><time>2021-10-23T21:10:45.657</time></trkpt><trkpt lat="55.7497789" lon="48.7426241"><time>2021-10-23T21:13:25.647</time></trkpt><trkpt lat="55.7497659" lon="48.7427059"><time>2021-10-23T21:36:29.640</time></trkpt><trkpt lat="55.7497906" lon="48.7427841"><time>2021-10-23T21:36:51.657</time></trkpt><trkpt lat="55.7497624" lon="48.7428465"><time>2021-10-23T21:41:41.807</time></trkpt><trkpt lat="55.7498009" lon="48.7428003"><time>2021-10-23T21:46:14.650</time></trkpt><trkpt lat="55.7497124" lon="48.7428836"><time>2021-10-23T21:48:32.637</time></trkpt><trkpt lat="55.7497001" lon="48.7429695"><time>2021-10-23T21:50:10.647</time></trkpt><trkpt lat="55.7497365" lon="48.7430513"><time>2021-10-23T21:51:28.643</time></trkpt><trkpt lat="55.7497764" lon="48.7431024"><time>2021-10-23T21:51:29.633</time></trkpt><trkpt lat="55.7498209" lon="48.7431683"><time>2021-10-23T21:51:31.637</time></trkpt><trkpt lat="55.7498626" lon="48.7432222"><time>2021-10-23T21:51:33.650</time></trkpt><trkpt lat="55.7497537" lon="48.7432514"><time>2021-10-23T22:05:07.657</time></trkpt><trkpt lat="55.7498551" lon="48.7432534"><time>2021-10-23T22:05:13.800</time></trkpt><trkpt lat="55.7498411" lon="48.7436081"><time>2021-10-23T22:06:48.650</time></trkpt><trkpt lat="55.7498455" lon="48.7432485"><time>2021-10-23T22:06:49.640</time></trkpt><trkpt lat="55.7497998" lon="48.7433012"><time>2021-10-23T22:07:12.643</time></trkpt><trkpt lat="55.7498438" lon="48.7432503"><time>2021-10-23T22:07:21.807</time></trkpt><trkpt lat="55.7498021" lon="48.7433153"><time>2021-10-23T22:07:23.793</time></trkpt><trkpt lat="55.7498433" lon="48.7432505"><time>2021-10-23T22:07:24.797</time></trkpt><trkpt lat="55.7498526" lon="48.7430683"><time>2021-10-23T22:13:25.643</time></trkpt><trkpt lat="55.7498308" lon="48.7432372"><time>2021-10-23T22:13:26.643</time></trkpt><trkpt lat="55.7498403" lon="48.7430694"><time>2021-10-23T22:13:27.653</time></trkpt><trkpt lat="55.7498296" lon="48.7432368"><time>2021-10-23T22:17:27.667</time></trkpt><trkpt lat="55.7497822" lon="48.7432716"><time>2021-10-23T22:18:06.650</time></trkpt><trkpt lat="55.7498282" lon="48.7432371"><time>2021-10-23T22:18:10.647</time></trkpt><trkpt lat="55.7497663" lon="48.7432832"><time>2021-10-23T22:21:30.657</time></trkpt><trkpt lat="55.7498208" lon="48.7432422"><time>2021-10-23T22:21:32.647</time></trkpt><trkpt lat="55.7498472" lon="48.7433197"><time>2021-10-23T22:35:20.630</time></trkpt><trkpt lat="55.7500127" lon="48.7442461"><time>2021-10-23T22:54:56.733</time></trkpt><trkpt lat="55.7500102" lon="48.7443362"><time>2021-10-23T22:54:58.897</time></trkpt><trkpt lat="55.7499386" lon="48.7443018"><time>2021-10-23T22:55:00.783</time></trkpt><trkpt lat="55.7498870" lon="48.7443215"><time>2021-10-23T22:55:07.820</time></trkpt><trkpt lat="55.7498653" lon="48.7442365"><time>2021-10-23T22:55:13.677</time></trkpt><trkpt lat="55.7498258" lon="48.7441685"><time>2021-10-23T22:55:16.653</time></trkpt><trkpt lat="55.7497739" lon="48.7441202"><time>2021-10-23T22:55:19.730</time></trkpt><trkpt lat="55.7497338" lon="48.7440485"><time>2021-10-23T22:55:22.660</time></trkpt><trkpt lat="55.7497057" lon="48.7439526"><time>2021-10-23T22:55:25.723</time></trkpt><trkpt lat="55.7496769" lon="48.7438770"><time>2021-10-23T22:55:28.680</time></trkpt><trkpt lat="55.7496686" lon="48.7437819"><time>2021-10-23T22:55:31.747</time></trkpt><trkpt lat="55.7496977" lon="48.7436775"><time>2021-10-23T22:55:34.673</time></trkpt><trkpt lat="55.7497347" lon="48.7435854"><time>2021-10-23T22:55:37.883</time></trkpt><trkpt lat="55.7497722" lon="48.7435036"><time>2021-10-23T22:55:40.817</time></trkpt><trkpt lat="55.7498142" lon="48.7434310"><time>2021-10-23T22:55:43.817</time></trkpt><trkpt lat="55.7498519" lon="48.7433564"><time>2021-10-23T22:55:46.870</time></trkpt><trkpt lat="55.7498925" lon="48.7433940"><time>2021-10-23T22:55:56.743</time></trkpt><trkpt lat="55.7498478" lon="48.7434067"><time>2021-10-23T22:56:19.877</time></trkpt><trkpt lat="55.7498066" lon="48.7434509"><time>2021-10-23T22:56:24.807</time></trkpt><trkpt lat="55.7497861" lon="48.7435426"><time>2021-10-23T22:56:29.660</time></trkpt><trkpt lat="55.7497421" lon="48.7435736"><time>2021-10-23T22:56:34.770</time></trkpt><trkpt lat="55.7497055" lon="48.7436304"><time>2021-10-23T22:56:39.827</time></trkpt><trkpt lat="55.7496840" lon="48.7437047"><time>2021-10-23T22:56:43.793</time></trkpt><trkpt lat="55.7496527" lon="48.7437870"><time>2021-10-23T22:56:50.790</time></trkpt><trkpt lat="55.7496415" lon="48.7438644"><time>2021-10-23T22:56:56.673</time></trkpt><trkpt lat="55.7496131" lon="48.7439406"><time>2021-10-23T22:57:02.813</time></trkpt><trkpt lat="55.7496554" lon="48.7439128"><time>2021-10-23T22:57:45.793</time></trkpt><trkpt lat="55.7496690" lon="48.7438306"><time>2021-10-23T22:58:49.653</time></trkpt><trkpt lat="55.7497010" lon="48.7437607"><time>2021-10-23T22:58:52.747</time></trkpt><trkpt lat="55.7497240" lon="48.7436791"><time>2021-10-23T22:58:59.740</time></trkpt><trkpt lat="55.7497506" lon="48.7436039"><time>2021-10-23T22:59:04.647</time></trkpt><trkpt lat="55.7497670" lon="48.7435104"><time>2021-10-23T22:59:09.643</time></trkpt><trkpt lat="55.7497869" lon="48.7434252"><time>2021-10-23T22:59:14.657</time></trkpt><trkpt lat="55.7498175" lon="48.7433652"><time>2021-10-23T22:59:19.653</time></trkpt><trkpt lat="55.7498342" lon="48.7432864"><time>2021-10-23T22:59:26.657</time></trkpt><trkpt lat="55.7498483" lon="48.7432016"><time>2021-10-23T22:59:36.663</time></trkpt><trkpt lat="55.7498782" lon="48.7431200"><time>2021-10-23T22:59:41.663</time></trkpt><trkpt lat="55.7499300" lon="48.7431096"><time>2021-10-23T22:59:45.783</time></trkpt><trkpt lat="55.7499779" lon="48.7431441"><time>2021-10-23T22:59:48.660</time></trkpt><trkpt lat="55.7500186" lon="48.7432001"><time>2021-10-23T22:59:51.773</time></trkpt><trkpt lat="55.7500573" lon="48.7432595"><time>2021-10-23T22:59:55.507</time></trkpt><trkpt lat="55.7501038" lon="48.7433083"><time>2021-10-23T22:59:57.783</time></trkpt><trkpt lat="55.7501503" lon="48.7433559"><time>2021-10-23T23:00:00.667</time></trkpt><trkpt lat="55.7502070" lon="48.7433876"><time>2021-10-23T23:00:03.693</time></trkpt><trkpt lat="55.7502442" lon="48.7434379"><time>2021-10-23T23:00:06.663</time></trkpt><trkpt lat="55.7502913" lon="48.7434846"><time>2021-10-23T23:00:10.823</time></trkpt><trkpt lat="55.7503431" lon="48.7435296"><time>2021-10-23T23:00:14.663</time></trkpt><trkpt lat="55.7503852" lon="48.7435798"><time>2021-10-23T23:00:19.830</time></trkpt><trkpt lat="55.7504288" lon="48.7436230"><time>2021-10-23T23:00:23.713</time></trkpt><trkpt lat="55.7504858" lon="48.7436553"><time>2021-10-23T23:00:27.667</time></trkpt><trkpt lat="55.7505363" lon="48.7436877"><time>2021-10-23T23:00:30.640</time></trkpt><trkpt lat="55.7505769" lon="48.7437519"><time>2021-10-23T23:00:33.640</time></trkpt><trkpt lat="55.7506097" lon="48.7438265"><time>2021-10-23T23:00:36.663</time></trkpt><trkpt lat="55.7506537" lon="48.7438816"><time>2021-10-23T23:00:39.663</time></trkpt><trkpt lat="55.7507004" lon="48.7439397"><time>2021-10-23T23:00:42.653</time></trkpt><trkpt lat="55.7507353" lon="48.7439950"><time>2021-10-23T23:00:45.657</time></trkpt><trkpt lat="55.7507798" lon="48.7440333"><time>2021-10-23T23:00:48.650</time></trkpt><trkpt lat="55.7508305" lon="48.7440765"><time>2021-10-23T23:00:51.667</time></trkpt><trkpt lat="55.7508784" lon="48.7441034"><time>2021-10-23T23:00:54.663</time></trkpt><trkpt lat="55.7509308" lon="48.7440771"><time>2021-10-23T23:00:58.760</time></trkpt><trkpt lat="55.7509638" lon="48.7440127"><time>2021-10-23T23:01:02.667</time></trkpt><trkpt lat="55.7509785" lon="48.7439129"><time>2021-10-23T23:01:06.810</time></trkpt><trkpt lat="55.7509636" lon="48.7438163"><time>2021-10-23T23:01:09.653</time></trkpt><trkpt lat="55.7509515" lon="48.7437285"><time>2021-10-23T23:01:12.663</time></trkpt><trkpt lat="55.7509541" lon="48.7436415"><time>2021-10-23T23:01:15.750</time></trkpt><trkpt lat="55.7509781" lon="48.7435395"><time>2021-10-23T23:01:18.657</time></trkpt><trkpt lat="55.7510004" lon="48.7434681"><time>2021-10-23T23:01:20.797</time></trkpt><trkpt lat="55.7510264" lon="48.7433970"><time>2021-10-23T23:01:22.823</time></trkpt><trkpt lat="55.7510546" lon="48.7433023"><time>2021-10-23T23:01:25.660</time></trkpt><trkpt lat="55.7510779" lon="48.7432298"><time>2021-10-23T23:01:29.737</time></trkpt><trkpt lat="55.7511243" lon="48.7432419"><time>2021-10-23T23:01:32.807</time></trkpt><trkpt lat="55.7511684" lon="48.7432754"><time>2021-10-23T23:01:34.693</time></trkpt><trkpt lat="55.7512106" lon="48.7433022"><time>2021-10-23T23:01:36.653</time></trkpt><trkpt lat="55.7512669" lon="48.7433326"><time>2021-10-23T23:01:39.713</time></trkpt><trkpt lat="55.7513164" lon="48.7433625"><time>2021-10-23T23:01:42.813</time></trkpt><trkpt lat="55.7513710" lon="48.7433934"><time>2021-10-23T23:01:45.767</time></trkpt><trkpt lat="55.7514226" lon="48.7434221"><time>2021-10-23T23:01:48.817</time></trkpt><trkpt lat="55.7514721" lon="48.7434501"><time>2021-10-23T23:01:51.790</time></trkpt><trkpt lat="55.7515284" lon="48.7434795"><time>2021-10-23T23:01:55.680</time></trkpt><trkpt lat="55.7515770" lon="48.7435096"><time>2021-10-23T23:01:59.910</time></trkpt><trkpt lat="55.7516216" lon="48.7435385"><time>2021-10-23T23:02:02.657</time></trkpt><trkpt lat="55.7516706" lon="48.7435708"><time>2021-10-23T23:02:05.657</time></trkpt><trkpt lat="55.7517201" lon="48.7435885"><time>2021-10-23T23:02:08.887</time></trkpt><trkpt lat="55.7517537" lon="48.7435352"><time>2021-10-23T23:02:12.827</time></trkpt><trkpt lat="55.7518057" lon="48.7435171"><time>2021-10-23T23:02:17.660</time></trkpt><trkpt lat="55.7518394" lon="48.7434479"><time>2021-10-23T23:02:22.673</time></trkpt><trkpt lat="55.7518744" lon="48.7433971"><time>2021-10-23T23:02:25.660</time></trkpt><trkpt lat="55.7519213" lon="48.7433523"><time>2021-10-23T23:02:28.703</time></trkpt><trkpt lat="55.7519704" lon="48.7433275"><time>2021-10-23T23:02:31.660</time></trkpt><trkpt lat="55.7520133" lon="48.7432977"><time>2021-10-23T23:02:34.703</time></trkpt><trkpt lat="55.7520605" lon="48.7432822"><time>2021-10-23T23:02:37.957</time></trkpt><trkpt lat="55.7521053" lon="48.7432550"><time>2021-10-23T23:02:40.810</time></trkpt><trkpt lat="55.7521318" lon="48.7431839"><time>2021-10-23T23:02:44.667</time></trkpt><trkpt lat="55.7521543" lon="48.7431081"><time>2021-10-23T23:02:48.890</time></trkpt><trkpt lat="55.7521717" lon="48.7430192"><time>2021-10-23T23:02:52.673</time></trkpt><trkpt lat="55.7521920" lon="48.7429432"><time>2021-10-23T23:02:55.670</time></trkpt><trkpt lat="55.7522222" lon="48.7428729"><time>2021-10-23T23:02:58.723</time></trkpt><trkpt lat="55.7522477" lon="48.7427958"><time>2021-10-23T23:03:01.703</time></trkpt><trkpt lat="55.7522734" lon="48.7427196"><time>2021-10-23T23:03:04.737</time></trkpt><trkpt lat="55.7522877" lon="48.7426244"><time>2021-10-23T23:03:08.770</time></trkpt><trkpt lat="55.7522968" lon="48.7425408"><time>2021-10-23T23:03:11.783</time></trkpt><trkpt lat="55.7523100" lon="48.7424538"><time>2021-10-23T23:03:14.890</time></trkpt><trkpt lat="55.7523286" lon="48.7423721"><time>2021-10-23T23:03:17.700</time></trkpt><trkpt lat="55.7523470" lon="48.7422879"><time>2021-10-23T23:03:20.757</time></trkpt><trkpt lat="55.7523724" lon="48.7421943"><time>2021-10-23T23:03:24.673</time></trkpt><trkpt lat="55.7523927" lon="48.7421215"><time>2021-10-23T23:03:27.650</time></trkpt><trkpt lat="55.7524110" lon="48.7420460"><time>2021-10-23T23:03:30.673</time></trkpt><trkpt lat="55.7524273" lon="48.7419623"><time>2021-10-23T23:03:33.673</time></trkpt><trkpt lat="55.7524420" lon="48.7418798"><time>2021-10-23T23:03:36.750</time></trkpt><trkpt lat="55.7524528" lon="48.7417931"><time>2021-10-23T23:03:39.740</time></trkpt><trkpt lat="55.7524554" lon="48.7417070"><time>2021-10-23T23:03:42.780</time></trkpt><trkpt lat="55.7524714" lon="48.7416278"><time>2021-10-23T23:03:45.967</time></trkpt><trkpt lat="55.7524890" lon="48.7415539"><time>2021-10-23T23:03:48.803</time></trkpt><trkpt lat="55.7525005" lon="48.7414739"><time>2021-10-23T23:03:51.697</time></trkpt><trkpt lat="55.7525531" lon="48.7414431"><time>2021-10-23T23:03:55.810</time></trkpt><trkpt lat="55.7526027" lon="48.7414224"><time>2021-10-23T23:03:58.810</time></trkpt><trkpt lat="55.7526563" lon="48.7414053"><time>2021-10-23T23:04:01.807</time></trkpt><trkpt lat="55.7527063" lon="48.7413911"><time>2021-10-23T23:04:04.817</time></trkpt><trkpt lat="55.7527567" lon="48.7413560"><time>2021-10-23T23:04:07.840</time></trkpt><trkpt lat="55.7528027" lon="48.7413117"><time>2021-10-23T23:04:10.757</time></trkpt><trkpt lat="55.7528489" lon="48.7412890"><time>2021-10-23T23:04:13.840</time></trkpt><trkpt lat="55.7528940" lon="48.7412884"><time>2021-10-23T23:04:16.670</time></trkpt><trkpt lat="55.7529426" lon="48.7413059"><time>2021-10-23T23:04:19.760</time></trkpt><trkpt lat="55.7529914" lon="48.7413362"><time>2021-10-23T23:04:22.747</time></trkpt><trkpt lat="55.7530420" lon="48.7413410"><time>2021-10-23T23:04:25.850</time></trkpt><trkpt lat="55.7530823" lon="48.7412885"><time>2021-10-23T23:04:28.857</time></trkpt><trkpt lat="55.7531362" lon="48.7412534"><time>2021-10-23T23:04:31.677</time></trkpt><trkpt lat="55.7531760" lon="48.7411813"><time>2021-10-23T23:04:35.770</time></trkpt><trkpt lat="55.7531959" lon="48.7410853"><time>2021-10-23T23:04:39.763</time></trkpt><trkpt lat="55.7532221" lon="48.7410011"><time>2021-10-23T23:04:42.677</time></trkpt><trkpt lat="55.7532714" lon="48.7409990"><time>2021-10-23T23:04:47.650</time></trkpt><trkpt lat="55.7532222" lon="48.7410143"><time>2021-10-23T23:04:54.827</time></trkpt><trkpt lat="55.7532748" lon="48.7409752"><time>2021-10-23T23:05:29.643</time></trkpt><trkpt lat="55.7533223" lon="48.7409173"><time>2021-10-23T23:05:33.737</time></trkpt><trkpt lat="55.7533699" lon="48.7408607"><time>2021-10-23T23:05:37.773</time></trkpt><trkpt lat="55.7533297" lon="48.7409008"><time>2021-10-23T23:05:45.653</time></trkpt><trkpt lat="55.7532811" lon="48.7409336"><time>2021-10-23T23:05:49.813</time></trkpt><trkpt lat="55.7532292" lon="48.7409587"><time>2021-10-23T23:05:53.733</time></trkpt><trkpt lat="55.7532350" lon="48.7408707"><time>2021-10-23T23:08:52.657</time></trkpt><trkpt lat="55.7532903" lon="48.7408189"><time>2021-10-23T23:08:54.633</time></trkpt><trkpt lat="55.7533664" lon="48.7407597"><time>2021-10-23T23:08:56.820</time></trkpt><trkpt lat="55.7533693" lon="48.7406800"><time>2021-10-23T23:10:36.663</time></trkpt><trkpt lat="55.7534204" lon="48.7406201"><time>2021-10-23T23:13:44.650</time></trkpt><trkpt lat="55.7534653" lon="48.7405969"><time>2021-10-23T23:13:51.640</time></trkpt><trkpt lat="55.7535125" lon="48.7405750"><time>2021-10-23T23:13:57.637</time></trkpt><trkpt lat="55.7535595" lon="48.7405874"><time>2021-10-23T23:19:00.647</time></trkpt><trkpt lat="55.7536049" lon="48.7405976"><time>2021-10-23T23:19:27.630</time></trkpt><trkpt lat="55.7536482" lon="48.7406198"><time>2021-10-23T23:19:38.640</time></trkpt><trkpt lat="55.7536946" lon="48.7406230"><time>2021-10-23T23:19:54.657</time></trkpt><trkpt lat="55.7537478" lon="48.7407067"><time>2021-10-23T23:20:07.637</time></trkpt><trkpt lat="55.7537814" lon="48.7407730"><time>2021-10-23T23:20:08.647</time></trkpt><trkpt lat="55.7538111" lon="48.7408351"><time>2021-10-23T23:20:12.707</time></trkpt><trkpt lat="55.7538534" lon="48.7408630"><time>2021-10-23T23:29:20.650</time></trkpt><trkpt lat="55.7538981" lon="48.7408711"><time>2021-10-23T23:50:04.647</time></trkpt><trkpt lat="55.7539392" lon="48.7408377"><time>2021-10-24T00:15:57.640</time></trkpt><trkpt lat="55.7539839" lon="48.7408456"><time>2021-10-24T00:32:21.647</time></trkpt><trkpt lat="55.7540568" lon="48.7416371"><time>2021-10-24T01:36:44.640</time></trkpt><trkpt lat="55.7539887" lon="48.7415343"><time>2021-10-24T01:36:47.610</time></trkpt><trkpt lat="55.7539845" lon="48.7414097"><time>2021-10-24T01:36:49.613</time></trkpt><trkpt lat="55.7539918" lon="48.7414903"><time>2021-10-24T01:36:50.627</time></trkpt><trkpt lat="55.7540130" lon="48.7415848"><time>2021-10-24T01:36:52.607</time></trkpt><trkpt lat="55.7540223" lon="48.7416647"><time>2021-10-24T01:36:54.607</time></trkpt><trkpt lat="55.7540656" lon="48.7417041"><time>2021-10-24T01:36:57.620</time></trkpt><trkpt lat="55.7540462" lon="48.7417983"><time>2021-10-24T01:37:04.610</time></trkpt><trkpt lat="55.7540825" lon="48.7418981"><time>2021-10-24T01:37:05.617</time></trkpt><trkpt lat="55.7540301" lon="48.7418040"><time>2021-10-24T01:37:09.627</time></trkpt><trkpt lat="55.7540095" lon="48.7415610"><time>2021-10-24T01:37:12.603</time></trkpt><trkpt lat="55.7540572" lon="48.7415759"><time>2021-10-24T01:37:15.610</time></trkpt><trkpt lat="55.7540878" lon="48.7416499"><time>2021-10-24T01:37:18.603</time></trkpt><trkpt lat="55.7540723" lon="48.7415503"><time>2021-10-24T01:37:19.613</time></trkpt><trkpt lat="55.7540227" lon="48.7412260"><time>2021-10-24T01:37:20.610</time></trkpt><trkpt lat="55.7539961" lon="48.7411600"><time>2021-10-24T01:37:23.627</time></trkpt><trkpt lat="55.7539523" lon="48.7410800"><time>2021-10-24T01:37:27.607</time></trkpt><trkpt lat="55.7539476" lon="48.7409894"><time>2021-10-24T01:37:36.613</time></trkpt><trkpt lat="55.7539263" lon="48.7409152"><time>2021-10-24T01:37:40.627</time></trkpt><trkpt lat="55.7539879" lon="48.7409544"><time>2021-10-24T01:37:44.607</time></trkpt><trkpt lat="55.7540461" lon="48.7410177"><time>2021-10-24T01:38:07.613</time></trkpt><trkpt lat="55.7540579" lon="48.7411168"><time>2021-10-24T01:38:12.627</time></trkpt><trkpt lat="55.7540274" lon="48.7410477"><time>2021-10-24T01:38:18.627</time></trkpt><trkpt lat="55.7540974" lon="48.7411095"><time>2021-10-24T01:38:26.607</time></trkpt><trkpt lat="55.7541313" lon="48.7411893"><time>2021-10-24T01:38:28.613</time></trkpt><trkpt lat="55.7541050" lon="48.7410990"><time>2021-10-24T01:38:42.630</time></trkpt><trkpt lat="55.7540810" lon="48.7410314"><time>2021-10-24T01:38:49.613</time></trkpt><trkpt lat="55.7540359" lon="48.7410580"><time>2021-10-24T01:38:58.607</time></trkpt><trkpt lat="55.7540604" lon="48.7411478"><time>2021-10-24T01:39:05.617</time></trkpt><trkpt lat="55.7540858" lon="48.7412290"><time>2021-10-24T01:39:09.627</time></trkpt><trkpt lat="55.7541178" lon="48.7413314"><time>2021-10-24T01:39:12.617</time></trkpt><trkpt lat="55.7541480" lon="48.7414484"><time>2021-10-24T01:39:15.613</time></trkpt><trkpt lat="55.7541089" lon="48.7413664"><time>2021-10-24T01:39:19.607</time></trkpt><trkpt lat="55.7541010" lon="48.7412720"><time>2021-10-24T01:39:21.623</time></trkpt><trkpt lat="55.7541470" lon="48.7412799"><time>2021-10-24T01:39:27.617</time></trkpt><trkpt lat="55.7542023" lon="48.7413125"><time>2021-10-24T01:39:30.617</time></trkpt><trkpt lat="55.7541548" lon="48.7413059"><time>2021-10-24T01:39:34.613</time></trkpt><trkpt lat="55.7541498" lon="48.7412113"><time>2021-10-24T01:39:37.613</time></trkpt><trkpt lat="55.7541442" lon="48.7411253"><time>2021-10-24T01:39:40.627</time></trkpt><trkpt lat="55.7541516" lon="48.7410266"><time>2021-10-24T01:39:52.617</time></trkpt><trkpt lat="55.7541783" lon="48.7411823"><time>2021-10-24T01:39:56.627</time></trkpt><trkpt lat="55.7541977" lon="48.7412736"><time>2021-10-24T01:39:57.613</time></trkpt><trkpt lat="55.7541540" lon="48.7412542"><time>2021-10-24T01:40:03.627</time></trkpt><trkpt lat="55.7542033" lon="48.7412921"><time>2021-10-24T01:40:09.650</time></trkpt><trkpt lat="55.7541746" lon="48.7412164"><time>2021-10-24T01:40:15.617</time></trkpt><trkpt lat="55.7541754" lon="48.7411269"><time>2021-10-24T01:40:17.623</time></trkpt><trkpt lat="55.7541593" lon="48.7412348"><time>2021-10-24T01:40:27.610</time></trkpt><trkpt lat="55.7541718" lon="48.7411506"><time>2021-10-24T01:40:34.617</time></trkpt><trkpt lat="55.7541819" lon="48.7412573"><time>2021-10-24T01:40:35.613</time></trkpt><trkpt lat="55.7542263" lon="48.7411519"><time>2021-10-24T01:40:49.623</time></trkpt><trkpt lat="55.7542366" lon="48.7410576"><time>2021-10-24T01:40:51.607</time></trkpt><trkpt lat="55.7542428" lon="48.7411429"><time>2021-10-24T01:40:59.613</time></trkpt><trkpt lat="55.7542553" lon="48.7412732"><time>2021-10-24T01:41:06.627</time></trkpt><trkpt lat="55.7543011" lon="48.7413946"><time>2021-10-24T01:41:08.617</time></trkpt><trkpt lat="55.7542474" lon="48.7414317"><time>2021-10-24T01:41:11.617</time></trkpt><trkpt lat="55.7542041" lon="48.7414682"><time>2021-10-24T01:41:16.613</time></trkpt><trkpt lat="55.7542007" lon="48.7413630"><time>2021-10-24T01:41:18.627</time></trkpt><trkpt lat="55.7541851" lon="48.7412765"><time>2021-10-24T01:41:22.613</time></trkpt><trkpt lat="55.7541511" lon="48.7412089"><time>2021-10-24T01:41:26.613</time></trkpt><trkpt lat="55.7540876" lon="48.7412035"><time>2021-10-24T01:41:33.617</time></trkpt><trkpt lat="55.7540134" lon="48.7412257"><time>2021-10-24T01:41:39.613</time></trkpt><trkpt lat="55.7539485" lon="48.7412125"><time>2021-10-24T01:41:40.613</time></trkpt><trkpt lat="55.7539409" lon="48.7411277"><time>2021-10-24T01:41:47.610</time></trkpt><trkpt lat="55.7538820" lon="48.7411343"><time>2021-10-24T01:41:52.627</time></trkpt><trkpt lat="55.7539276" lon="48.7411071"><time>2021-10-24T01:42:01.630</time></trkpt><trkpt lat="55.7538830" lon="48.7410956"><time>2021-10-24T01:42:06.627</time></trkpt><trkpt lat="55.7539154" lon="48.7411634"><time>2021-10-24T01:42:12.613</time></trkpt><trkpt lat="55.7539731" lon="48.7412034"><time>2021-10-24T01:42:15.627</time></trkpt><trkpt lat="55.7540153" lon="48.7412710"><time>2021-10-24T01:42:24.610</time></trkpt><trkpt lat="55.7539619" lon="48.7412156"><time>2021-10-24T01:42:32.603</time></trkpt><trkpt lat="55.7539331" lon="48.7411401"><time>2021-10-24T01:42:39.613</time></trkpt><trkpt lat="55.7538962" lon="48.7410921"><time>2021-10-24T01:42:44.623</time></trkpt><trkpt lat="55.7538626" lon="48.7410263"><time>2021-10-24T01:42:47.617</time></trkpt><trkpt lat="55.7539324" lon="48.7410564"><time>2021-10-24T01:42:53.623</time></trkpt><trkpt lat="55.7539873" lon="48.7410764"><time>2021-10-24T01:42:56.617</time></trkpt><trkpt lat="55.7540310" lon="48.7411374"><time>2021-10-24T01:43:00.613</time></trkpt><trkpt lat="55.7540733" lon="48.7411887"><time>2021-10-24T01:43:02.617</time></trkpt><trkpt lat="55.7541094" lon="48.7412483"><time>2021-10-24T01:43:04.617</time></trkpt><trkpt lat="55.7539947" lon="48.7411306"><time>2021-10-24T01:43:09.627</time></trkpt><trkpt lat="55.7539717" lon="48.7410580"><time>2021-10-24T01:43:16.613</time></trkpt><trkpt lat="55.7539490" lon="48.7409885"><time>2021-10-24T01:43:21.613</time></trkpt><trkpt lat="55.7539132" lon="48.7409317"><time>2021-10-24T01:43:32.610</time></trkpt><trkpt lat="55.7538585" lon="48.7409138"><time>2021-10-24T01:43:42.627</time></trkpt><trkpt lat="55.7538624" lon="48.7409998"><time>2021-10-24T01:43:52.613</time></trkpt><trkpt lat="55.7539188" lon="48.7410251"><time>2021-10-24T01:43:55.610</time></trkpt><trkpt lat="55.7539662" lon="48.7410473"><time>2021-10-24T01:44:07.613</time></trkpt><trkpt lat="55.7540234" lon="48.7409902"><time>2021-10-24T01:44:19.597</time></trkpt><trkpt lat="55.7540698" lon="48.7409499"><time>2021-10-24T01:44:21.603</time></trkpt><trkpt lat="55.7540108" lon="48.7409793"><time>2021-10-24T01:44:26.620</time></trkpt><trkpt lat="55.7539638" lon="48.7409574"><time>2021-10-24T01:44:33.610</time></trkpt><trkpt lat="55.7540223" lon="48.7409428"><time>2021-10-24T01:44:44.627</time></trkpt><trkpt lat="55.7540056" lon="48.7410427"><time>2021-10-24T01:45:14.607</time></trkpt><trkpt lat="55.7540197" lon="48.7411294"><time>2021-10-24T01:45:18.607</time></trkpt><trkpt lat="55.7540517" lon="48.7410722"><time>2021-10-24T01:45:22.617</time></trkpt><trkpt lat="55.7540074" lon="48.7409818"><time>2021-10-24T01:45:24.627</time></trkpt><trkpt lat="55.7540638" lon="48.7409679"><time>2021-10-24T01:45:51.617</time></trkpt><trkpt lat="55.7541219" lon="48.7409531"><time>2021-10-24T01:45:54.617</time></trkpt><trkpt lat="55.7541572" lon="48.7410258"><time>2021-10-24T01:45:57.617</time></trkpt><trkpt lat="55.7541794" lon="48.7411176"><time>2021-10-24T01:45:59.617</time></trkpt><trkpt lat="55.7541330" lon="48.7410538"><time>2021-10-24T01:46:08.613</time></trkpt><trkpt lat="55.7541091" lon="48.7411308"><time>2021-10-24T01:46:11.660</time></trkpt><trkpt lat="55.7541275" lon="48.7412222"><time>2021-10-24T01:46:14.627</time></trkpt><trkpt lat="55.7541032" lon="48.7411473"><time>2021-10-24T01:46:21.617</time></trkpt><trkpt lat="55.7540979" lon="48.7410513"><time>2021-10-24T01:46:27.617</time></trkpt><trkpt lat="55.7540656" lon="48.7409738"><time>2021-10-24T01:46:36.617</time></trkpt><trkpt lat="55.7540448" lon="48.7408971"><time>2021-10-24T01:47:10.607</time></trkpt><trkpt lat="55.7540401" lon="48.7409799"><time>2021-10-24T01:47:21.627</time></trkpt><trkpt lat="55.7540047" lon="48.7409195"><time>2021-10-24T01:47:47.613</time></trkpt><trkpt lat="55.7539966" lon="48.7408402"><time>2021-10-24T01:48:00.617</time></trkpt><trkpt lat="55.7539637" lon="48.7408950"><time>2021-10-24T01:48:54.617</time></trkpt><trkpt lat="55.7539570" lon="48.7408155"><time>2021-10-24T01:50:23.613</time></trkpt><trkpt lat="55.7539938" lon="48.7407679"><time>2021-10-24T01:51:03.610</time></trkpt><trkpt lat="55.7540064" lon="48.7408564"><time>2021-10-24T01:51:22.607</time></trkpt><trkpt lat="55.7539835" lon="48.7407817"><time>2021-10-24T01:51:49.607</time></trkpt><trkpt lat="55.7539939" lon="48.7408702"><time>2021-10-24T01:52:00.603</time></trkpt><trkpt lat="55.7539512" lon="48.7408427"><time>2021-10-24T01:52:34.627</time></trkpt><trkpt lat="55.7540087" lon="48.7408568"><time>2021-10-24T01:53:01.613</time></trkpt><trkpt lat="55.7540545" lon="48.7408490"><time>2021-10-24T01:53:11.610</time></trkpt><trkpt lat="55.7540859" lon="48.7409190"><time>2021-10-24T01:53:51.613</time></trkpt><trkpt lat="55.7541214" lon="48.7408669"><time>2021-10-24T01:54:02.610</time></trkpt><trkpt lat="55.7540916" lon="48.7409292"><time>2021-10-24T01:54:13.607</time></trkpt><trkpt lat="55.7541422" lon="48.7409181"><time>2021-10-24T01:54:38.613</time></trkpt><trkpt lat="55.7540915" lon="48.7409128"><time>2021-10-24T01:55:15.607</time></trkpt><trkpt lat="55.7540440" lon="48.7409500"><time>2021-10-24T01:55:25.607</time></trkpt><trkpt lat="55.7540054" lon="48.7409012"><time>2021-10-24T01:55:35.607</time></trkpt><trkpt lat="55.7540517" lon="48.7409167"><time>2021-10-24T01:55:58.607</time></trkpt><trkpt lat="55.7540970" lon="48.7409242"><time>2021-10-24T02:02:04.617</time></trkpt><trkpt lat="55.7541398" lon="48.7409576"><time>2021-10-24T02:02:07.613</time></trkpt><trkpt lat="55.7541285" lon="48.7408796"><time>2021-10-24T02:02:24.617</time></trkpt><trkpt lat="55.7541169" lon="48.7409569"><time>2021-10-24T02:03:09.607</time></trkpt><trkpt lat="55.7540730" lon="48.7409254"><time>2021-10-24T02:03:50.613</time></trkpt><trkpt lat="55.7540358" lon="48.7408715"><time>2021-10-24T02:05:18.617</time></trkpt><trkpt lat="55.7539911" lon="48.7408444"><time>2021-10-24T03:20:05.610</time></trkpt><trkpt lat="55.7539393" lon="48.7408805"><time>2021-10-24T03:20:14.617</time></trkpt><trkpt lat="55.7538948" lon="48.7409086"><time>2021-10-24T03:20:18.613</time></trkpt><trkpt lat="55.7539378" lon="48.7408853"><time>2021-10-24T03:57:20.610</time></trkpt><trkpt lat="55.7539863" lon="48.7408941"><time>2021-10-24T03:59:19.603</time></trkpt><trkpt lat="55.7540354" lon="48.7408912"><time>2021-10-24T03:59:21.613</time></trkpt><trkpt lat="55.7540929" lon="48.7408825"><time>2021-10-24T03:59:25.610</time></trkpt><trkpt lat="55.7541533" lon="48.7408771"><time>2021-10-24T03:59:28.603</time></trkpt><trkpt lat="55.7542088" lon="48.7408888"><time>2021-10-24T03:59:30.600</time></trkpt><trkpt lat="55.7542566" lon="48.7409021"><time>2021-10-24T03:59:34.600</time></trkpt><trkpt lat="55.7542284" lon="48.7408396"><time>2021-10-24T03:59:42.610</time></trkpt><trkpt lat="55.7541750" lon="48.7408446"><time>2021-10-24T03:59:49.610</time></trkpt><trkpt lat="55.7542349" lon="48.7408824"><time>2021-10-24T04:00:00.610</time></trkpt><trkpt lat="55.7541902" lon="48.7408952"><time>2021-10-24T04:02:30.607</time></trkpt><trkpt lat="55.7541458" lon="48.7408615"><time>2021-10-24T04:02:39.613</time></trkpt><trkpt lat="55.7541043" lon="48.7408239"><time>2021-10-24T04:03:02.610</time></trkpt><trkpt lat="55.7541492" lon="48.7408298"><time>2021-10-24T04:03:32.610</time></trkpt><trkpt lat="55.7541119" lon="48.7407492"><time>2021-10-24T04:04:54.610</time></trkpt><trkpt lat="55.7540699" lon="48.7407025"><time>2021-10-24T04:04:57.613</time></trkpt><trkpt lat="55.7540293" lon="48.7406647"><time>2021-10-24T04:05:02.617</time></trkpt><trkpt lat="55.7540761" lon="48.7406844"><time>2021-10-24T04:05:09.607</time></trkpt><trkpt lat="55.7540287" lon="48.7406739"><time>2021-10-24T04:05:25.613</time></trkpt><trkpt lat="55.7540685" lon="48.7407189"><time>2021-10-24T04:05:37.613</time></trkpt><trkpt lat="55.7541131" lon="48.7407560"><time>2021-10-24T04:05:50.610</time></trkpt><trkpt lat="55.7541564" lon="48.7407999"><time>2021-10-24T04:05:55.590</time></trkpt><trkpt lat="55.7542184" lon="48.7408725"><time>2021-10-24T04:06:03.603</time></trkpt><trkpt lat="55.7542734" lon="48.7409106"><time>2021-10-24T04:06:05.610</time></trkpt><trkpt lat="55.7542310" lon="48.7408826"><time>2021-10-24T04:06:08.607</time></trkpt><trkpt lat="55.7541932" lon="48.7408357"><time>2021-10-24T04:06:11.617</time></trkpt><trkpt lat="55.7542409" lon="48.7408549"><time>2021-10-24T04:06:19.613</time></trkpt><trkpt lat="55.7542892" lon="48.7409109"><time>2021-10-24T04:06:26.613</time></trkpt><trkpt lat="55.7543374" lon="48.7409469"><time>2021-10-24T04:06:36.610</time></trkpt><trkpt lat="55.7542923" lon="48.7409146"><time>2021-10-24T04:06:48.610</time></trkpt><trkpt lat="55.7543108" lon="48.7409879"><time>2021-10-24T04:06:58.607</time></trkpt><trkpt lat="55.7542628" lon="48.7409468"><time>2021-10-24T04:07:08.610</time></trkpt><trkpt lat="55.7542231" lon="48.7408739"><time>2021-10-24T04:07:13.610</time></trkpt><trkpt lat="55.7541901" lon="48.7408103"><time>2021-10-24T04:07:16.610</time></trkpt><trkpt lat="55.7541451" lon="48.7407760"><time>2021-10-24T04:07:21.613</time></trkpt><trkpt lat="55.7541219" lon="48.7408490"><time>2021-10-24T04:07:45.610</time></trkpt><trkpt lat="55.7540861" lon="48.7407772"><time>2021-10-24T04:07:56.613</time></trkpt><trkpt lat="55.7541120" lon="48.7408463"><time>2021-10-24T04:08:15.610</time></trkpt><trkpt lat="55.7541623" lon="48.7408786"><time>2021-10-24T04:08:24.603</time></trkpt><trkpt lat="55.7542045" lon="48.7409401"><time>2021-10-24T04:08:34.613</time></trkpt><trkpt lat="55.7542092" lon="48.7410259"><time>2021-10-24T04:08:55.613</time></trkpt><trkpt lat="55.7541818" lon="48.7409484"><time>2021-10-24T04:09:16.610</time></trkpt><trkpt lat="55.7541356" lon="48.7409405"><time>2021-10-24T04:09:23.613</time></trkpt><trkpt lat="55.7540946" lon="48.7408597"><time>2021-10-24T04:14:17.607</time></trkpt><trkpt lat="55.7540470" lon="48.7408287"><time>2021-10-24T04:14:26.607</time></trkpt><trkpt lat="55.7540977" lon="48.7408529"><time>2021-10-24T04:14:45.617</time></trkpt><trkpt lat="55.7540747" lon="48.7407738"><time>2021-10-24T04:15:03.603</time></trkpt><trkpt lat="55.7541180" lon="48.7408071"><time>2021-10-24T04:15:13.607</time></trkpt><trkpt lat="55.7541804" lon="48.7408403"><time>2021-10-24T04:15:16.603</time></trkpt><trkpt lat="55.7542248" lon="48.7408771"><time>2021-10-24T04:15:26.607</time></trkpt><trkpt lat="55.7542713" lon="48.7408985"><time>2021-10-24T04:15:27.610</time></trkpt><trkpt lat="55.7543335" lon="48.7409304"><time>2021-10-24T04:15:29.613</time></trkpt><trkpt lat="55.7542795" lon="48.7409249"><time>2021-10-24T04:15:33.607</time></trkpt><trkpt lat="55.7542267" lon="48.7409027"><time>2021-10-24T04:15:38.607</time></trkpt><trkpt lat="55.7542535" lon="48.7409769"><time>2021-10-24T04:15:57.593</time></trkpt><trkpt lat="55.7543087" lon="48.7410182"><time>2021-10-24T04:16:00.610</time></trkpt><trkpt lat="55.7543687" lon="48.7410643"><time>2021-10-24T04:16:19.600</time></trkpt><trkpt lat="55.7543174" lon="48.7410634"><time>2021-10-24T04:16:25.603</time></trkpt><trkpt lat="55.7542715" lon="48.7410178"><time>2021-10-24T04:16:37.603</time></trkpt><trkpt lat="55.7542282" lon="48.7409870"><time>2021-10-24T04:16:42.603</time></trkpt><trkpt lat="55.7542599" lon="48.7410572"><time>2021-10-24T04:16:50.610</time></trkpt><trkpt lat="55.7543081" lon="48.7411011"><time>2021-10-24T04:16:59.620</time></trkpt><trkpt lat="55.7543572" lon="48.7411270"><time>2021-10-24T04:17:01.677</time></trkpt><trkpt lat="55.7543795" lon="48.7410530"><time>2021-10-24T04:17:17.610</time></trkpt><trkpt lat="55.7543916" lon="48.7411376"><time>2021-10-24T04:17:38.590</time></trkpt><trkpt lat="55.7544293" lon="48.7412058"><time>2021-10-24T04:17:39.607</time></trkpt><trkpt lat="55.7544737" lon="48.7412533"><time>2021-10-24T04:17:41.607</time></trkpt><trkpt lat="55.7545095" lon="48.7413141"><time>2021-10-24T04:17:50.607</time></trkpt><trkpt lat="55.7544940" lon="48.7412316"><time>2021-10-24T04:18:00.610</time></trkpt><trkpt lat="55.7545377" lon="48.7412698"><time>2021-10-24T04:18:05.607</time></trkpt><trkpt lat="55.7544809" lon="48.7412292"><time>2021-10-24T04:18:09.610</time></trkpt><trkpt lat="55.7544515" lon="48.7411568"><time>2021-10-24T04:18:12.613</time></trkpt><trkpt lat="55.7543767" lon="48.7411332"><time>2021-10-24T04:18:14.603</time></trkpt><trkpt lat="55.7543233" lon="48.7411365"><time>2021-10-24T04:18:16.613</time></trkpt><trkpt lat="55.7542593" lon="48.7411128"><time>2021-10-24T04:18:18.617</time></trkpt><trkpt lat="55.7542165" lon="48.7410858"><time>2021-10-24T04:18:19.613</time></trkpt><trkpt lat="55.7541499" lon="48.7410377"><time>2021-10-24T04:18:21.603</time></trkpt><trkpt lat="55.7541115" lon="48.7409923"><time>2021-10-24T04:18:24.610</time></trkpt><trkpt lat="55.7541672" lon="48.7409776"><time>2021-10-24T04:18:36.607</time></trkpt><trkpt lat="55.7541144" lon="48.7409449"><time>2021-10-24T04:18:41.613</time></trkpt><trkpt lat="55.7540713" lon="48.7409158"><time>2021-10-24T04:18:49.600</time></trkpt><trkpt lat="55.7541229" lon="48.7409075"><time>2021-10-24T04:19:05.613</time></trkpt><trkpt lat="55.7540761" lon="48.7409041"><time>2021-10-24T04:19:16.607</time></trkpt><trkpt lat="55.7541237" lon="48.7408877"><time>2021-10-24T04:19:29.607</time></trkpt><trkpt lat="55.7540730" lon="48.7408802"><time>2021-10-24T04:19:36.603</time></trkpt><trkpt lat="55.7540240" lon="48.7408897"><time>2021-10-24T04:20:09.617</time></trkpt><trkpt lat="55.7539639" lon="48.7408392"><time>2021-10-24T04:20:12.623</time></trkpt><trkpt lat="55.7539978" lon="48.7407799"><time>2021-10-24T04:20:24.607</time></trkpt><trkpt lat="55.7540470" lon="48.7408029"><time>2021-10-24T04:20:26.603</time></trkpt><trkpt lat="55.7540985" lon="48.7408412"><time>2021-10-24T04:20:29.633</time></trkpt><trkpt lat="55.7540538" lon="48.7408010"><time>2021-10-24T04:20:52.623</time></trkpt><trkpt lat="55.7541176" lon="48.7407880"><time>2021-10-24T04:21:01.633</time></trkpt><trkpt lat="55.7540762" lon="48.7407540"><time>2021-10-24T04:21:05.620</time></trkpt><trkpt lat="55.7540372" lon="48.7408083"><time>2021-10-24T04:21:18.627</time></trkpt><trkpt lat="55.7540940" lon="48.7408102"><time>2021-10-24T04:21:24.637</time></trkpt><trkpt lat="55.7540359" lon="48.7407918"><time>2021-10-24T04:21:30.630</time></trkpt><trkpt lat="55.7540837" lon="48.7407947"><time>2021-10-24T04:21:41.627</time></trkpt><trkpt lat="55.7541307" lon="48.7408195"><time>2021-10-24T04:21:43.627</time></trkpt><trkpt lat="55.7540689" lon="48.7408297"><time>2021-10-24T04:21:52.627</time></trkpt><trkpt lat="55.7541262" lon="48.7408135"><time>2021-10-24T04:21:59.627</time></trkpt><trkpt lat="55.7540752" lon="48.7408146"><time>2021-10-24T04:22:08.630</time></trkpt><trkpt lat="55.7540349" lon="48.7407648"><time>2021-10-24T04:22:12.627</time></trkpt><trkpt lat="55.7539874" lon="48.7407553"><time>2021-10-24T04:22:17.627</time></trkpt><trkpt lat="55.7540369" lon="48.7407829"><time>2021-10-24T04:22:24.630</time></trkpt><trkpt lat="55.7540677" lon="48.7408541"><time>2021-10-24T04:22:36.627</time></trkpt><trkpt lat="55.7541006" lon="48.7409183"><time>2021-10-24T04:22:44.630</time></trkpt><trkpt lat="55.7541562" lon="48.7409393"><time>2021-10-24T04:23:05.623</time></trkpt><trkpt lat="55.7542030" lon="48.7409423"><time>2021-10-24T04:23:17.633</time></trkpt><trkpt lat="55.7542488" lon="48.7409606"><time>2021-10-24T04:23:36.627</time></trkpt><trkpt lat="55.7542193" lon="48.7410385"><time>2021-10-24T04:23:49.617</time></trkpt><trkpt lat="55.7541699" lon="48.7410216"><time>2021-10-24T04:24:24.653</time></trkpt><trkpt lat="55.7541303" lon="48.7409744"><time>2021-10-24T04:24:33.627</time></trkpt><trkpt lat="55.7540979" lon="48.7409093"><time>2021-10-24T04:24:54.637</time></trkpt><trkpt lat="55.7540583" lon="48.7408627"><time>2021-10-24T04:25:45.627</time></trkpt><trkpt lat="55.7540630" lon="48.7409425"><time>2021-10-24T04:26:11.600</time></trkpt><trkpt lat="55.7541167" lon="48.7409323"><time>2021-10-24T04:26:17.627</time></trkpt><trkpt lat="55.7540730" lon="48.7408950"><time>2021-10-24T04:26:38.613</time></trkpt><trkpt lat="55.7540366" lon="48.7408378"><time>2021-10-24T04:27:56.627</time></trkpt><trkpt lat="55.7541014" lon="48.7408496"><time>2021-10-24T04:28:08.633</time></trkpt><trkpt lat="55.7540511" lon="48.7408197"><time>2021-10-24T04:28:13.627</time></trkpt><trkpt lat="55.7541053" lon="48.7408344"><time>2021-10-24T04:28:51.627</time></trkpt><trkpt lat="55.7541508" lon="48.7408572"><time>2021-10-24T04:28:54.627</time></trkpt><trkpt lat="55.7541131" lon="48.7408124"><time>2021-10-24T04:29:02.627</time></trkpt><trkpt lat="55.7540663" lon="48.7408020"><time>2021-10-24T04:29:10.623</time></trkpt><trkpt lat="55.7540327" lon="48.7407453"><time>2021-10-24T04:29:13.623</time></trkpt><trkpt lat="55.7540667" lon="48.7407981"><time>2021-10-24T04:30:00.623</time></trkpt><trkpt lat="55.7540189" lon="48.7407961"><time>2021-10-24T04:30:27.623</time></trkpt><trkpt lat="55.7539719" lon="48.7408095"><time>2021-10-24T04:30:56.627</time></trkpt><trkpt lat="55.7539338" lon="48.7408777"><time>2021-10-24T04:31:13.630</time></trkpt><trkpt lat="55.7539716" lon="48.7408152"><time>2021-10-24T04:31:38.630</time></trkpt><trkpt lat="55.7540160" lon="48.7408624"><time>2021-10-24T04:32:04.607</time></trkpt><trkpt lat="55.7540605" lon="48.7408349"><time>2021-10-24T04:32:22.627</time></trkpt><trkpt lat="55.7541011" lon="48.7408723"><time>2021-10-24T04:32:30.627</time></trkpt><trkpt lat="55.7541503" lon="48.7408974"><time>2021-10-24T04:32:42.623</time></trkpt><trkpt lat="55.7541713" lon="48.7409744"><time>2021-10-24T04:35:13.587</time></trkpt><trkpt lat="55.7542116" lon="48.7410225"><time>2021-10-24T04:35:32.623</time></trkpt><trkpt lat="55.7541655" lon="48.7410339"><time>2021-10-24T04:36:03.627</time></trkpt><trkpt lat="55.7541392" lon="48.7409652"><time>2021-10-24T04:36:15.627</time></trkpt><trkpt lat="55.7540980" lon="48.7409109"><time>2021-10-24T04:36:21.623</time></trkpt><trkpt lat="55.7540601" lon="48.7408462"><time>2021-10-24T04:36:31.623</time></trkpt><trkpt lat="55.7540158" lon="48.7408294"><time>2021-10-24T04:36:40.623</time></trkpt><trkpt lat="55.7540650" lon="48.7408965"><time>2021-10-24T04:36:48.623</time></trkpt><trkpt lat="55.7540955" lon="48.7409614"><time>2021-10-24T04:37:09.603</time></trkpt><trkpt lat="55.7541302" lon="48.7410191"><time>2021-10-24T04:37:17.610</time></trkpt><trkpt lat="55.7541699" lon="48.7410892"><time>2021-10-24T04:37:21.597</time></trkpt><trkpt lat="55.7541492" lon="48.7411649"><time>2021-10-24T04:37:39.623</time></trkpt><trkpt lat="55.7541077" lon="48.7411249"><time>2021-10-24T04:38:20.623</time></trkpt><trkpt lat="55.7541540" lon="48.7411105"><time>2021-10-24T04:38:32.633</time></trkpt><trkpt lat="55.7540683" lon="48.7410483"><time>2021-10-24T04:47:01.630</time></trkpt><trkpt lat="55.7539744" lon="48.7410121"><time>2021-10-24T04:47:03.633</time></trkpt><trkpt lat="55.7539141" lon="48.7409856"><time>2021-10-24T04:47:04.633</time></trkpt><trkpt lat="55.7538630" lon="48.7409586"><time>2021-10-24T04:47:06.627</time></trkpt><trkpt lat="55.7538046" lon="48.7409365"><time>2021-10-24T04:47:09.620</time></trkpt><trkpt lat="55.7538502" lon="48.7409392"><time>2021-10-24T04:47:19.617</time></trkpt><trkpt lat="55.7538963" lon="48.7409416"><time>2021-10-24T04:47:24.617</time></trkpt><trkpt lat="55.7539773" lon="48.7409635"><time>2021-10-24T04:48:09.637</time></trkpt><trkpt lat="55.7540381" lon="48.7409729"><time>2021-10-24T04:48:13.627</time></trkpt><trkpt lat="55.7539874" lon="48.7409560"><time>2021-10-24T04:48:14.627</time></trkpt><trkpt lat="55.7539471" lon="48.7409093"><time>2021-10-24T04:48:36.627</time></trkpt><trkpt lat="55.7539952" lon="48.7409237"><time>2021-10-24T04:48:45.627</time></trkpt><trkpt lat="55.7539418" lon="48.7409370"><time>2021-10-24T04:48:58.617</time></trkpt><trkpt lat="55.7539113" lon="48.7408666"><time>2021-10-24T04:49:02.623</time></trkpt><trkpt lat="55.7539497" lon="48.7409253"><time>2021-10-24T04:49:06.627</time></trkpt><trkpt lat="55.7540083" lon="48.7409454"><time>2021-10-24T04:49:08.627</time></trkpt><trkpt lat="55.7540565" lon="48.7409493"><time>2021-10-24T04:49:11.630</time></trkpt><trkpt lat="55.7539953" lon="48.7409108"><time>2021-10-24T04:49:13.620</time></trkpt><trkpt lat="55.7539489" lon="48.7408886"><time>2021-10-24T04:49:15.623</time></trkpt><trkpt lat="55.7539989" lon="48.7409112"><time>2021-10-24T04:49:23.600</time></trkpt><trkpt lat="55.7540617" lon="48.7409410"><time>2021-10-24T04:49:25.627</time></trkpt><trkpt lat="55.7541008" lon="48.7409894"><time>2021-10-24T04:49:31.627</time></trkpt><trkpt lat="55.7540578" lon="48.7409616"><time>2021-10-24T04:49:35.623</time></trkpt><trkpt lat="55.7540158" lon="48.7409307"><time>2021-10-24T04:49:38.627</time></trkpt><trkpt lat="55.7539746" lon="48.7408977"><time>2021-10-24T04:49:43.627</time></trkpt><trkpt lat="55.7540571" lon="48.7409514"><time>2021-10-24T04:51:35.627</time></trkpt><trkpt lat="55.7541143" lon="48.7409440"><time>2021-10-24T04:51:36.630</time></trkpt><trkpt lat="55.7541890" lon="48.7409380"><time>2021-10-24T04:51:38.623</time></trkpt><trkpt lat="55.7541272" lon="48.7409572"><time>2021-10-24T04:51:41.623</time></trkpt><trkpt lat="55.7540828" lon="48.7409861"><time>2021-10-24T04:51:47.627</time></trkpt><trkpt lat="55.7541284" lon="48.7410245"><time>2021-10-24T04:51:59.610</time></trkpt><trkpt lat="55.7541038" lon="48.7410948"><time>2021-10-24T04:52:07.627</time></trkpt><trkpt lat="55.7540502" lon="48.7410798"><time>2021-10-24T04:52:24.613</time></trkpt><trkpt lat="55.7540831" lon="48.7410215"><time>2021-10-24T04:52:31.627</time></trkpt><trkpt lat="55.7540380" lon="48.7410202"><time>2021-10-24T04:53:25.630</time></trkpt></trkseg></trk></gpx>